<?xml version="1.0" encoding="UTF-8" standalone="no" ?>
<gpx xmlns="http://www.topografix.com/GPX/1/1" xmlns:xsi="http://www.w3.org/2001/XMLSchema-instance" xsi:schemaLocation="http://www.topografix.com/GPX/1/1 http://www.topografix.com/GPX/1/1/gpx.xsd" version="1.1" creator="VisuGPX - https://www.visugpx.com">
  <metadata>
    <name>autour de Farnay</name>
    <desc><![CDATA[entrainement avec dénivelé]]></desc>
  </metadata>
  <trk>
    <name><![CDATA[entrainement]]></name>
    <cmt><![CDATA[18.8]]></cmt>
    <trkseg>
      <trkpt lat="45.49247" lon="4.59771">
        <ele>458</ele>
        <time>2014-11-29T08:01:32Z</time>
      </trkpt>
      <trkpt lat="45.49269" lon="4.59795">
        <ele>455</ele>
        <time>2014-11-29T08:01:46Z</time>
      </trkpt>
      <trkpt lat="45.4927" lon="4.59804">
        <ele>454</ele>
        <time>2014-11-29T08:01:49Z</time>
      </trkpt>
      <trkpt lat="45.49274" lon="4.5981">
        <ele>453</ele>
        <time>2014-11-29T08:01:52Z</time>
      </trkpt>
      <trkpt lat="45.4928" lon="4.59812">
        <ele>452</ele>
        <time>2014-11-29T08:01:55Z</time>
      </trkpt>
      <trkpt lat="45.49288" lon="4.59815">
        <ele>452</ele>
        <time>2014-11-29T08:01:59Z</time>
      </trkpt>
      <trkpt lat="45.49295" lon="4.59817">
        <ele>452</ele>
        <time>2014-11-29T08:02:02Z</time>
      </trkpt>
      <trkpt lat="45.49303" lon="4.59817">
        <ele>452</ele>
        <time>2014-11-29T08:02:05Z</time>
      </trkpt>
      <trkpt lat="45.49309" lon="4.59817">
        <ele>451</ele>
        <time>2014-11-29T08:02:08Z</time>
      </trkpt>
      <trkpt lat="45.49316" lon="4.59815">
        <ele>451</ele>
        <time>2014-11-29T08:02:11Z</time>
      </trkpt>
      <trkpt lat="45.49321" lon="4.5981">
        <ele>451</ele>
        <time>2014-11-29T08:02:14Z</time>
      </trkpt>
      <trkpt lat="45.49326" lon="4.59804">
        <ele>451</ele>
        <time>2014-11-29T08:02:17Z</time>
      </trkpt>
      <trkpt lat="45.4933" lon="4.59798">
        <ele>451</ele>
        <time>2014-11-29T08:02:20Z</time>
      </trkpt>
      <trkpt lat="45.49331" lon="4.59789">
        <ele>451</ele>
        <time>2014-11-29T08:02:23Z</time>
      </trkpt>
      <trkpt lat="45.49332" lon="4.59779">
        <ele>451</ele>
        <time>2014-11-29T08:02:26Z</time>
      </trkpt>
      <trkpt lat="45.49332" lon="4.59768">
        <ele>451</ele>
        <time>2014-11-29T08:02:29Z</time>
      </trkpt>
      <trkpt lat="45.4933" lon="4.59758">
        <ele>451</ele>
        <time>2014-11-29T08:02:32Z</time>
      </trkpt>
      <trkpt lat="45.49329" lon="4.59748">
        <ele>449</ele>
        <time>2014-11-29T08:02:35Z</time>
      </trkpt>
      <trkpt lat="45.49329" lon="4.59738">
        <ele>446</ele>
        <time>2014-11-29T08:02:38Z</time>
      </trkpt>
      <trkpt lat="45.49331" lon="4.59732">
        <ele>443</ele>
        <time>2014-11-29T08:02:41Z</time>
      </trkpt>
      <trkpt lat="45.49325" lon="4.59726">
        <ele>442</ele>
        <time>2014-11-29T08:02:44Z</time>
      </trkpt>
      <trkpt lat="45.49317" lon="4.5972">
        <ele>441</ele>
        <time>2014-11-29T08:02:47Z</time>
      </trkpt>
      <trkpt lat="45.49311" lon="4.59714">
        <ele>440</ele>
        <time>2014-11-29T08:02:50Z</time>
      </trkpt>
      <trkpt lat="45.49306" lon="4.59708">
        <ele>440</ele>
        <time>2014-11-29T08:02:53Z</time>
      </trkpt>
      <trkpt lat="45.49301" lon="4.59702">
        <ele>440</ele>
        <time>2014-11-29T08:02:56Z</time>
      </trkpt>
      <trkpt lat="45.49295" lon="4.59697">
        <ele>440</ele>
        <time>2014-11-29T08:02:59Z</time>
      </trkpt>
      <trkpt lat="45.49288" lon="4.59696">
        <ele>440</ele>
        <time>2014-11-29T08:03:02Z</time>
      </trkpt>
      <trkpt lat="45.49281" lon="4.59699">
        <ele>441</ele>
        <time>2014-11-29T08:03:05Z</time>
      </trkpt>
      <trkpt lat="45.49273" lon="4.59701">
        <ele>443</ele>
        <time>2014-11-29T08:03:08Z</time>
      </trkpt>
      <trkpt lat="45.49266" lon="4.59706">
        <ele>443</ele>
        <time>2014-11-29T08:03:11Z</time>
      </trkpt>
      <trkpt lat="45.4926" lon="4.59713">
        <ele>443</ele>
        <time>2014-11-29T08:03:14Z</time>
      </trkpt>
      <trkpt lat="45.49254" lon="4.59719">
        <ele>443</ele>
        <time>2014-11-29T08:03:17Z</time>
      </trkpt>
      <trkpt lat="45.49248" lon="4.59725">
        <ele>444</ele>
        <time>2014-11-29T08:03:20Z</time>
      </trkpt>
      <trkpt lat="45.49244" lon="4.59731">
        <ele>446</ele>
        <time>2014-11-29T08:03:23Z</time>
      </trkpt>
      <trkpt lat="45.4924" lon="4.59739">
        <ele>447</ele>
        <time>2014-11-29T08:03:26Z</time>
      </trkpt>
      <trkpt lat="45.49235" lon="4.59748">
        <ele>448</ele>
        <time>2014-11-29T08:03:29Z</time>
      </trkpt>
      <trkpt lat="45.4923" lon="4.59755">
        <ele>448</ele>
        <time>2014-11-29T08:03:32Z</time>
      </trkpt>
      <trkpt lat="45.49221" lon="4.59762">
        <ele>448</ele>
        <time>2014-11-29T08:03:36Z</time>
      </trkpt>
      <trkpt lat="45.49213" lon="4.59763">
        <ele>449</ele>
        <time>2014-11-29T08:03:39Z</time>
      </trkpt>
      <trkpt lat="45.49206" lon="4.5976">
        <ele>449</ele>
        <time>2014-11-29T08:03:42Z</time>
      </trkpt>
      <trkpt lat="45.49199" lon="4.59755">
        <ele>449</ele>
        <time>2014-11-29T08:03:45Z</time>
      </trkpt>
      <trkpt lat="45.49192" lon="4.5975">
        <ele>449</ele>
        <time>2014-11-29T08:03:48Z</time>
      </trkpt>
      <trkpt lat="45.49185" lon="4.59745">
        <ele>449</ele>
        <time>2014-11-29T08:03:51Z</time>
      </trkpt>
      <trkpt lat="45.49178" lon="4.59742">
        <ele>449</ele>
        <time>2014-11-29T08:03:54Z</time>
      </trkpt>
      <trkpt lat="45.4917" lon="4.59738">
        <ele>449</ele>
        <time>2014-11-29T08:03:57Z</time>
      </trkpt>
      <trkpt lat="45.49163" lon="4.59733">
        <ele>449</ele>
        <time>2014-11-29T08:04:00Z</time>
      </trkpt>
      <trkpt lat="45.49158" lon="4.59727">
        <ele>449</ele>
        <time>2014-11-29T08:04:03Z</time>
      </trkpt>
      <trkpt lat="45.49152" lon="4.59722">
        <ele>449</ele>
        <time>2014-11-29T08:04:06Z</time>
      </trkpt>
      <trkpt lat="45.49146" lon="4.59717">
        <ele>449</ele>
        <time>2014-11-29T08:04:09Z</time>
      </trkpt>
      <trkpt lat="45.49141" lon="4.59714">
        <ele>449</ele>
        <time>2014-11-29T08:04:12Z</time>
      </trkpt>
      <trkpt lat="45.49133" lon="4.59714">
        <ele>449</ele>
        <time>2014-11-29T08:04:15Z</time>
      </trkpt>
      <trkpt lat="45.49126" lon="4.59712">
        <ele>449</ele>
        <time>2014-11-29T08:04:18Z</time>
      </trkpt>
      <trkpt lat="45.49119" lon="4.59708">
        <ele>449</ele>
        <time>2014-11-29T08:04:21Z</time>
      </trkpt>
      <trkpt lat="45.49112" lon="4.59705">
        <ele>449</ele>
        <time>2014-11-29T08:04:24Z</time>
      </trkpt>
      <trkpt lat="45.49105" lon="4.59702">
        <ele>449</ele>
        <time>2014-11-29T08:04:27Z</time>
      </trkpt>
      <trkpt lat="45.49097" lon="4.597">
        <ele>449</ele>
        <time>2014-11-29T08:04:30Z</time>
      </trkpt>
      <trkpt lat="45.49089" lon="4.59698">
        <ele>449</ele>
        <time>2014-11-29T08:04:33Z</time>
      </trkpt>
      <trkpt lat="45.49083" lon="4.59695">
        <ele>449</ele>
        <time>2014-11-29T08:04:36Z</time>
      </trkpt>
      <trkpt lat="45.49076" lon="4.59694">
        <ele>450</ele>
        <time>2014-11-29T08:04:39Z</time>
      </trkpt>
      <trkpt lat="45.4907" lon="4.59692">
        <ele>451</ele>
        <time>2014-11-29T08:04:42Z</time>
      </trkpt>
      <trkpt lat="45.49063" lon="4.5969">
        <ele>451</ele>
        <time>2014-11-29T08:04:45Z</time>
      </trkpt>
      <trkpt lat="45.49057" lon="4.59687">
        <ele>451</ele>
        <time>2014-11-29T08:04:48Z</time>
      </trkpt>
      <trkpt lat="45.49049" lon="4.59687">
        <ele>451</ele>
        <time>2014-11-29T08:04:51Z</time>
      </trkpt>
      <trkpt lat="45.49042" lon="4.59687">
        <ele>452</ele>
        <time>2014-11-29T08:04:54Z</time>
      </trkpt>
      <trkpt lat="45.49036" lon="4.59686">
        <ele>452</ele>
        <time>2014-11-29T08:04:57Z</time>
      </trkpt>
      <trkpt lat="45.49029" lon="4.59686">
        <ele>453</ele>
        <time>2014-11-29T08:05:00Z</time>
      </trkpt>
      <trkpt lat="45.49023" lon="4.59684">
        <ele>453</ele>
        <time>2014-11-29T08:05:03Z</time>
      </trkpt>
      <trkpt lat="45.49016" lon="4.59681">
        <ele>453</ele>
        <time>2014-11-29T08:05:06Z</time>
      </trkpt>
      <trkpt lat="45.49009" lon="4.59679">
        <ele>453</ele>
        <time>2014-11-29T08:05:09Z</time>
      </trkpt>
      <trkpt lat="45.49004" lon="4.59674">
        <ele>453</ele>
        <time>2014-11-29T08:05:12Z</time>
      </trkpt>
      <trkpt lat="45.48996" lon="4.5967">
        <ele>453</ele>
        <time>2014-11-29T08:05:16Z</time>
      </trkpt>
      <trkpt lat="45.48991" lon="4.59668">
        <ele>453</ele>
        <time>2014-11-29T08:05:19Z</time>
      </trkpt>
      <trkpt lat="45.48986" lon="4.59666">
        <ele>453</ele>
        <time>2014-11-29T08:05:22Z</time>
      </trkpt>
      <trkpt lat="45.48979" lon="4.59669">
        <ele>453</ele>
        <time>2014-11-29T08:05:25Z</time>
      </trkpt>
      <trkpt lat="45.48972" lon="4.59674">
        <ele>453</ele>
        <time>2014-11-29T08:05:28Z</time>
      </trkpt>
      <trkpt lat="45.48965" lon="4.59675">
        <ele>453</ele>
        <time>2014-11-29T08:05:31Z</time>
      </trkpt>
      <trkpt lat="45.4896" lon="4.59672">
        <ele>453</ele>
        <time>2014-11-29T08:05:34Z</time>
      </trkpt>
      <trkpt lat="45.48956" lon="4.59669">
        <ele>453</ele>
        <time>2014-11-29T08:05:37Z</time>
      </trkpt>
      <trkpt lat="45.48951" lon="4.59662">
        <ele>455</ele>
        <time>2014-11-29T08:05:42Z</time>
      </trkpt>
      <trkpt lat="45.48947" lon="4.59657">
        <ele>456</ele>
        <time>2014-11-29T08:05:46Z</time>
      </trkpt>
      <trkpt lat="45.48944" lon="4.59656">
        <ele>457</ele>
        <time>2014-11-29T08:05:49Z</time>
      </trkpt>
      <trkpt lat="45.4894" lon="4.59655">
        <ele>459</ele>
        <time>2014-11-29T08:05:52Z</time>
      </trkpt>
      <trkpt lat="45.48935" lon="4.59655">
        <ele>460</ele>
        <time>2014-11-29T08:05:55Z</time>
      </trkpt>
      <trkpt lat="45.4893" lon="4.59657">
        <ele>461</ele>
        <time>2014-11-29T08:05:58Z</time>
      </trkpt>
      <trkpt lat="45.48925" lon="4.59659">
        <ele>461</ele>
        <time>2014-11-29T08:06:01Z</time>
      </trkpt>
      <trkpt lat="45.48921" lon="4.59662">
        <ele>462</ele>
        <time>2014-11-29T08:06:04Z</time>
      </trkpt>
      <trkpt lat="45.48916" lon="4.59663">
        <ele>463</ele>
        <time>2014-11-29T08:06:07Z</time>
      </trkpt>
      <trkpt lat="45.48912" lon="4.59664">
        <ele>464</ele>
        <time>2014-11-29T08:06:10Z</time>
      </trkpt>
      <trkpt lat="45.48908" lon="4.59665">
        <ele>465</ele>
        <time>2014-11-29T08:06:13Z</time>
      </trkpt>
      <trkpt lat="45.48904" lon="4.59664">
        <ele>466</ele>
        <time>2014-11-29T08:06:16Z</time>
      </trkpt>
      <trkpt lat="45.489" lon="4.59664">
        <ele>467</ele>
        <time>2014-11-29T08:06:19Z</time>
      </trkpt>
      <trkpt lat="45.48896" lon="4.59663">
        <ele>467</ele>
        <time>2014-11-29T08:06:22Z</time>
      </trkpt>
      <trkpt lat="45.48891" lon="4.59663">
        <ele>468</ele>
        <time>2014-11-29T08:06:25Z</time>
      </trkpt>
      <trkpt lat="45.48887" lon="4.59663">
        <ele>469</ele>
        <time>2014-11-29T08:06:28Z</time>
      </trkpt>
      <trkpt lat="45.48883" lon="4.59663">
        <ele>470</ele>
        <time>2014-11-29T08:06:31Z</time>
      </trkpt>
      <trkpt lat="45.48879" lon="4.59662">
        <ele>471</ele>
        <time>2014-11-29T08:06:34Z</time>
      </trkpt>
      <trkpt lat="45.48875" lon="4.59661">
        <ele>471</ele>
        <time>2014-11-29T08:06:37Z</time>
      </trkpt>
      <trkpt lat="45.48871" lon="4.5966">
        <ele>472</ele>
        <time>2014-11-29T08:06:40Z</time>
      </trkpt>
      <trkpt lat="45.48866" lon="4.59659">
        <ele>474</ele>
        <time>2014-11-29T08:06:43Z</time>
      </trkpt>
      <trkpt lat="45.48862" lon="4.59659">
        <ele>475</ele>
        <time>2014-11-29T08:06:46Z</time>
      </trkpt>
      <trkpt lat="45.48858" lon="4.59658">
        <ele>475</ele>
        <time>2014-11-29T08:06:49Z</time>
      </trkpt>
      <trkpt lat="45.48854" lon="4.59658">
        <ele>475</ele>
        <time>2014-11-29T08:06:52Z</time>
      </trkpt>
      <trkpt lat="45.4885" lon="4.59657">
        <ele>476</ele>
        <time>2014-11-29T08:06:55Z</time>
      </trkpt>
      <trkpt lat="45.48846" lon="4.59657">
        <ele>477</ele>
        <time>2014-11-29T08:06:58Z</time>
      </trkpt>
      <trkpt lat="45.48842" lon="4.59657">
        <ele>477</ele>
        <time>2014-11-29T08:07:01Z</time>
      </trkpt>
      <trkpt lat="45.48838" lon="4.59657">
        <ele>477</ele>
        <time>2014-11-29T08:07:04Z</time>
      </trkpt>
      <trkpt lat="45.48834" lon="4.59657">
        <ele>477</ele>
        <time>2014-11-29T08:07:07Z</time>
      </trkpt>
      <trkpt lat="45.4883" lon="4.59656">
        <ele>477</ele>
        <time>2014-11-29T08:07:10Z</time>
      </trkpt>
      <trkpt lat="45.48826" lon="4.59655">
        <ele>477</ele>
        <time>2014-11-29T08:07:13Z</time>
      </trkpt>
      <trkpt lat="45.48822" lon="4.59654">
        <ele>478</ele>
        <time>2014-11-29T08:07:16Z</time>
      </trkpt>
      <trkpt lat="45.48816" lon="4.59652">
        <ele>480</ele>
        <time>2014-11-29T08:07:19Z</time>
      </trkpt>
      <trkpt lat="45.48811" lon="4.59647">
        <ele>481</ele>
        <time>2014-11-29T08:07:23Z</time>
      </trkpt>
      <trkpt lat="45.48808" lon="4.59643">
        <ele>482</ele>
        <time>2014-11-29T08:07:26Z</time>
      </trkpt>
      <trkpt lat="45.48804" lon="4.59639">
        <ele>483</ele>
        <time>2014-11-29T08:07:29Z</time>
      </trkpt>
      <trkpt lat="45.48801" lon="4.59634">
        <ele>483</ele>
        <time>2014-11-29T08:07:33Z</time>
      </trkpt>
      <trkpt lat="45.48796" lon="4.5963">
        <ele>483</ele>
        <time>2014-11-29T08:07:37Z</time>
      </trkpt>
      <trkpt lat="45.48793" lon="4.59627">
        <ele>484</ele>
        <time>2014-11-29T08:07:40Z</time>
      </trkpt>
      <trkpt lat="45.48789" lon="4.59624">
        <ele>484</ele>
        <time>2014-11-29T08:07:43Z</time>
      </trkpt>
      <trkpt lat="45.48786" lon="4.59622">
        <ele>485</ele>
        <time>2014-11-29T08:07:46Z</time>
      </trkpt>
      <trkpt lat="45.48782" lon="4.59621">
        <ele>486</ele>
        <time>2014-11-29T08:07:49Z</time>
      </trkpt>
      <trkpt lat="45.48778" lon="4.5962">
        <ele>487</ele>
        <time>2014-11-29T08:07:52Z</time>
      </trkpt>
      <trkpt lat="45.48772" lon="4.59621">
        <ele>488</ele>
        <time>2014-11-29T08:07:56Z</time>
      </trkpt>
      <trkpt lat="45.48767" lon="4.59624">
        <ele>489</ele>
        <time>2014-11-29T08:07:59Z</time>
      </trkpt>
      <trkpt lat="45.48764" lon="4.59625">
        <ele>490</ele>
        <time>2014-11-29T08:08:02Z</time>
      </trkpt>
      <trkpt lat="45.4876" lon="4.59625">
        <ele>491</ele>
        <time>2014-11-29T08:08:05Z</time>
      </trkpt>
      <trkpt lat="45.48756" lon="4.59626">
        <ele>492</ele>
        <time>2014-11-29T08:08:08Z</time>
      </trkpt>
      <trkpt lat="45.48752" lon="4.59627">
        <ele>494</ele>
        <time>2014-11-29T08:08:11Z</time>
      </trkpt>
      <trkpt lat="45.48747" lon="4.59627">
        <ele>495</ele>
        <time>2014-11-29T08:08:14Z</time>
      </trkpt>
      <trkpt lat="45.48743" lon="4.59627">
        <ele>495</ele>
        <time>2014-11-29T08:08:17Z</time>
      </trkpt>
      <trkpt lat="45.48738" lon="4.59628">
        <ele>495</ele>
        <time>2014-11-29T08:08:20Z</time>
      </trkpt>
      <trkpt lat="45.48735" lon="4.59629">
        <ele>495</ele>
        <time>2014-11-29T08:08:23Z</time>
      </trkpt>
      <trkpt lat="45.48731" lon="4.59628">
        <ele>495</ele>
        <time>2014-11-29T08:08:26Z</time>
      </trkpt>
      <trkpt lat="45.48728" lon="4.59627">
        <ele>495</ele>
        <time>2014-11-29T08:08:30Z</time>
      </trkpt>
      <trkpt lat="45.48725" lon="4.59627">
        <ele>496</ele>
        <time>2014-11-29T08:08:40Z</time>
      </trkpt>
      <trkpt lat="45.48724" lon="4.59626">
        <ele>497</ele>
        <time>2014-11-29T08:09:00Z</time>
      </trkpt>
      <trkpt lat="45.48723" lon="4.59625">
        <ele>497</ele>
        <time>2014-11-29T08:09:16Z</time>
      </trkpt>
      <trkpt lat="45.48722" lon="4.59624">
        <ele>497</ele>
        <time>2014-11-29T08:09:20Z</time>
      </trkpt>
      <trkpt lat="45.4872" lon="4.59624">
        <ele>497</ele>
        <time>2014-11-29T08:09:23Z</time>
      </trkpt>
      <trkpt lat="45.48717" lon="4.59622">
        <ele>497</ele>
        <time>2014-11-29T08:09:26Z</time>
      </trkpt>
      <trkpt lat="45.48712" lon="4.59621">
        <ele>497</ele>
        <time>2014-11-29T08:09:29Z</time>
      </trkpt>
      <trkpt lat="45.48707" lon="4.59621">
        <ele>498</ele>
        <time>2014-11-29T08:09:32Z</time>
      </trkpt>
      <trkpt lat="45.48702" lon="4.59621">
        <ele>498</ele>
        <time>2014-11-29T08:09:35Z</time>
      </trkpt>
      <trkpt lat="45.48698" lon="4.59623">
        <ele>498</ele>
        <time>2014-11-29T08:09:38Z</time>
      </trkpt>
      <trkpt lat="45.48692" lon="4.59623">
        <ele>498</ele>
        <time>2014-11-29T08:09:41Z</time>
      </trkpt>
      <trkpt lat="45.48687" lon="4.59622">
        <ele>498</ele>
        <time>2014-11-29T08:09:44Z</time>
      </trkpt>
      <trkpt lat="45.48683" lon="4.59622">
        <ele>499</ele>
        <time>2014-11-29T08:09:47Z</time>
      </trkpt>
      <trkpt lat="45.48677" lon="4.59623">
        <ele>500</ele>
        <time>2014-11-29T08:09:50Z</time>
      </trkpt>
      <trkpt lat="45.48672" lon="4.59623">
        <ele>500</ele>
        <time>2014-11-29T08:09:53Z</time>
      </trkpt>
      <trkpt lat="45.48668" lon="4.59623">
        <ele>500</ele>
        <time>2014-11-29T08:09:56Z</time>
      </trkpt>
      <trkpt lat="45.48663" lon="4.59623">
        <ele>501</ele>
        <time>2014-11-29T08:09:59Z</time>
      </trkpt>
      <trkpt lat="45.48657" lon="4.59624">
        <ele>501</ele>
        <time>2014-11-29T08:10:02Z</time>
      </trkpt>
      <trkpt lat="45.48652" lon="4.59624">
        <ele>501</ele>
        <time>2014-11-29T08:10:05Z</time>
      </trkpt>
      <trkpt lat="45.48648" lon="4.59623">
        <ele>502</ele>
        <time>2014-11-29T08:10:08Z</time>
      </trkpt>
      <trkpt lat="45.48643" lon="4.59623">
        <ele>503</ele>
        <time>2014-11-29T08:10:11Z</time>
      </trkpt>
      <trkpt lat="45.48639" lon="4.59622">
        <ele>505</ele>
        <time>2014-11-29T08:10:14Z</time>
      </trkpt>
      <trkpt lat="45.48633" lon="4.59621">
        <ele>506</ele>
        <time>2014-11-29T08:10:17Z</time>
      </trkpt>
      <trkpt lat="45.48629" lon="4.59621">
        <ele>507</ele>
        <time>2014-11-29T08:10:20Z</time>
      </trkpt>
      <trkpt lat="45.48624" lon="4.5962">
        <ele>508</ele>
        <time>2014-11-29T08:10:23Z</time>
      </trkpt>
      <trkpt lat="45.48619" lon="4.5962">
        <ele>509</ele>
        <time>2014-11-29T08:10:26Z</time>
      </trkpt>
      <trkpt lat="45.48616" lon="4.59619">
        <ele>510</ele>
        <time>2014-11-29T08:10:29Z</time>
      </trkpt>
      <trkpt lat="45.48612" lon="4.59619">
        <ele>511</ele>
        <time>2014-11-29T08:10:32Z</time>
      </trkpt>
      <trkpt lat="45.48608" lon="4.59619">
        <ele>512</ele>
        <time>2014-11-29T08:10:35Z</time>
      </trkpt>
      <trkpt lat="45.48603" lon="4.59619">
        <ele>513</ele>
        <time>2014-11-29T08:10:38Z</time>
      </trkpt>
      <trkpt lat="45.48599" lon="4.59618">
        <ele>514</ele>
        <time>2014-11-29T08:10:41Z</time>
      </trkpt>
      <trkpt lat="45.48595" lon="4.59618">
        <ele>514</ele>
        <time>2014-11-29T08:10:44Z</time>
      </trkpt>
      <trkpt lat="45.48591" lon="4.59618">
        <ele>515</ele>
        <time>2014-11-29T08:10:47Z</time>
      </trkpt>
      <trkpt lat="45.48587" lon="4.59619">
        <ele>516</ele>
        <time>2014-11-29T08:10:50Z</time>
      </trkpt>
      <trkpt lat="45.48582" lon="4.5962">
        <ele>517</ele>
        <time>2014-11-29T08:10:53Z</time>
      </trkpt>
      <trkpt lat="45.48579" lon="4.59619">
        <ele>517</ele>
        <time>2014-11-29T08:10:56Z</time>
      </trkpt>
      <trkpt lat="45.48575" lon="4.59619">
        <ele>517</ele>
        <time>2014-11-29T08:10:59Z</time>
      </trkpt>
      <trkpt lat="45.48571" lon="4.59619">
        <ele>517</ele>
        <time>2014-11-29T08:11:02Z</time>
      </trkpt>
      <trkpt lat="45.48567" lon="4.59619">
        <ele>517</ele>
        <time>2014-11-29T08:11:05Z</time>
      </trkpt>
      <trkpt lat="45.48563" lon="4.5962">
        <ele>518</ele>
        <time>2014-11-29T08:11:08Z</time>
      </trkpt>
      <trkpt lat="45.48559" lon="4.5962">
        <ele>518</ele>
        <time>2014-11-29T08:11:11Z</time>
      </trkpt>
      <trkpt lat="45.48555" lon="4.59619">
        <ele>519</ele>
        <time>2014-11-29T08:11:14Z</time>
      </trkpt>
      <trkpt lat="45.48551" lon="4.59619">
        <ele>520</ele>
        <time>2014-11-29T08:11:17Z</time>
      </trkpt>
      <trkpt lat="45.48548" lon="4.59618">
        <ele>520</ele>
        <time>2014-11-29T08:11:20Z</time>
      </trkpt>
      <trkpt lat="45.48544" lon="4.59618">
        <ele>521</ele>
        <time>2014-11-29T08:11:23Z</time>
      </trkpt>
      <trkpt lat="45.4854" lon="4.59617">
        <ele>521</ele>
        <time>2014-11-29T08:11:26Z</time>
      </trkpt>
      <trkpt lat="45.48535" lon="4.59617">
        <ele>521</ele>
        <time>2014-11-29T08:11:30Z</time>
      </trkpt>
      <trkpt lat="45.48531" lon="4.59616">
        <ele>522</ele>
        <time>2014-11-29T08:11:33Z</time>
      </trkpt>
      <trkpt lat="45.48527" lon="4.59615">
        <ele>524</ele>
        <time>2014-11-29T08:11:37Z</time>
      </trkpt>
      <trkpt lat="45.48523" lon="4.59614">
        <ele>526</ele>
        <time>2014-11-29T08:11:40Z</time>
      </trkpt>
      <trkpt lat="45.48519" lon="4.59614">
        <ele>527</ele>
        <time>2014-11-29T08:11:44Z</time>
      </trkpt>
      <trkpt lat="45.48515" lon="4.59614">
        <ele>527</ele>
        <time>2014-11-29T08:11:47Z</time>
      </trkpt>
      <trkpt lat="45.48512" lon="4.59614">
        <ele>527</ele>
        <time>2014-11-29T08:11:50Z</time>
      </trkpt>
      <trkpt lat="45.48508" lon="4.59613">
        <ele>527</ele>
        <time>2014-11-29T08:11:54Z</time>
      </trkpt>
      <trkpt lat="45.48504" lon="4.59613">
        <ele>528</ele>
        <time>2014-11-29T08:11:58Z</time>
      </trkpt>
      <trkpt lat="45.48501" lon="4.59613">
        <ele>528</ele>
        <time>2014-11-29T08:12:01Z</time>
      </trkpt>
      <trkpt lat="45.48497" lon="4.59613">
        <ele>528</ele>
        <time>2014-11-29T08:12:04Z</time>
      </trkpt>
      <trkpt lat="45.48494" lon="4.59613">
        <ele>529</ele>
        <time>2014-11-29T08:12:07Z</time>
      </trkpt>
      <trkpt lat="45.48491" lon="4.59613">
        <ele>530</ele>
        <time>2014-11-29T08:12:10Z</time>
      </trkpt>
      <trkpt lat="45.48486" lon="4.59614">
        <ele>532</ele>
        <time>2014-11-29T08:12:14Z</time>
      </trkpt>
      <trkpt lat="45.48483" lon="4.59614">
        <ele>533</ele>
        <time>2014-11-29T08:12:18Z</time>
      </trkpt>
      <trkpt lat="45.48479" lon="4.59615">
        <ele>533</ele>
        <time>2014-11-29T08:12:21Z</time>
      </trkpt>
      <trkpt lat="45.48475" lon="4.59616">
        <ele>534</ele>
        <time>2014-11-29T08:12:25Z</time>
      </trkpt>
      <trkpt lat="45.48472" lon="4.59616">
        <ele>535</ele>
        <time>2014-11-29T08:12:29Z</time>
      </trkpt>
      <trkpt lat="45.4847" lon="4.59617">
        <ele>536</ele>
        <time>2014-11-29T08:12:32Z</time>
      </trkpt>
      <trkpt lat="45.48467" lon="4.59618">
        <ele>536</ele>
        <time>2014-11-29T08:12:36Z</time>
      </trkpt>
      <trkpt lat="45.48463" lon="4.59618">
        <ele>536</ele>
        <time>2014-11-29T08:12:39Z</time>
      </trkpt>
      <trkpt lat="45.48459" lon="4.59618">
        <ele>536</ele>
        <time>2014-11-29T08:12:42Z</time>
      </trkpt>
      <trkpt lat="45.48456" lon="4.59619">
        <ele>536</ele>
        <time>2014-11-29T08:12:45Z</time>
      </trkpt>
      <trkpt lat="45.48452" lon="4.59618">
        <ele>536</ele>
        <time>2014-11-29T08:12:48Z</time>
      </trkpt>
      <trkpt lat="45.48449" lon="4.59616">
        <ele>536</ele>
        <time>2014-11-29T08:12:51Z</time>
      </trkpt>
      <trkpt lat="45.48445" lon="4.59613">
        <ele>536</ele>
        <time>2014-11-29T08:12:54Z</time>
      </trkpt>
      <trkpt lat="45.48442" lon="4.59611">
        <ele>537</ele>
        <time>2014-11-29T08:12:57Z</time>
      </trkpt>
      <trkpt lat="45.48437" lon="4.59608">
        <ele>538</ele>
        <time>2014-11-29T08:13:00Z</time>
      </trkpt>
      <trkpt lat="45.48432" lon="4.59606">
        <ele>539</ele>
        <time>2014-11-29T08:13:03Z</time>
      </trkpt>
      <trkpt lat="45.48428" lon="4.59603">
        <ele>540</ele>
        <time>2014-11-29T08:13:06Z</time>
      </trkpt>
      <trkpt lat="45.48423" lon="4.59599">
        <ele>540</ele>
        <time>2014-11-29T08:13:10Z</time>
      </trkpt>
      <trkpt lat="45.4842" lon="4.59596">
        <ele>541</ele>
        <time>2014-11-29T08:13:13Z</time>
      </trkpt>
      <trkpt lat="45.48417" lon="4.59594">
        <ele>542</ele>
        <time>2014-11-29T08:13:16Z</time>
      </trkpt>
      <trkpt lat="45.48413" lon="4.59592">
        <ele>542</ele>
        <time>2014-11-29T08:13:19Z</time>
      </trkpt>
      <trkpt lat="45.4841" lon="4.59592">
        <ele>544</ele>
        <time>2014-11-29T08:13:22Z</time>
      </trkpt>
      <trkpt lat="45.48406" lon="4.59592">
        <ele>544</ele>
        <time>2014-11-29T08:13:25Z</time>
      </trkpt>
      <trkpt lat="45.48402" lon="4.59591">
        <ele>545</ele>
        <time>2014-11-29T08:13:28Z</time>
      </trkpt>
      <trkpt lat="45.48398" lon="4.59589">
        <ele>546</ele>
        <time>2014-11-29T08:13:32Z</time>
      </trkpt>
      <trkpt lat="45.48395" lon="4.59588">
        <ele>547</ele>
        <time>2014-11-29T08:13:35Z</time>
      </trkpt>
      <trkpt lat="45.48391" lon="4.59588">
        <ele>548</ele>
        <time>2014-11-29T08:13:39Z</time>
      </trkpt>
      <trkpt lat="45.48387" lon="4.59588">
        <ele>548</ele>
        <time>2014-11-29T08:13:43Z</time>
      </trkpt>
      <trkpt lat="45.48383" lon="4.59588">
        <ele>549</ele>
        <time>2014-11-29T08:13:47Z</time>
      </trkpt>
      <trkpt lat="45.48378" lon="4.59588">
        <ele>549</ele>
        <time>2014-11-29T08:13:51Z</time>
      </trkpt>
      <trkpt lat="45.48374" lon="4.59588">
        <ele>549</ele>
        <time>2014-11-29T08:13:55Z</time>
      </trkpt>
      <trkpt lat="45.48371" lon="4.59588">
        <ele>549</ele>
        <time>2014-11-29T08:13:58Z</time>
      </trkpt>
      <trkpt lat="45.48367" lon="4.59589">
        <ele>549</ele>
        <time>2014-11-29T08:14:01Z</time>
      </trkpt>
      <trkpt lat="45.48364" lon="4.59589">
        <ele>549</ele>
        <time>2014-11-29T08:14:04Z</time>
      </trkpt>
      <trkpt lat="45.48361" lon="4.59589">
        <ele>549</ele>
        <time>2014-11-29T08:14:08Z</time>
      </trkpt>
      <trkpt lat="45.48357" lon="4.5959">
        <ele>550</ele>
        <time>2014-11-29T08:14:12Z</time>
      </trkpt>
      <trkpt lat="45.48353" lon="4.5959">
        <ele>552</ele>
        <time>2014-11-29T08:14:16Z</time>
      </trkpt>
      <trkpt lat="45.48349" lon="4.59591">
        <ele>554</ele>
        <time>2014-11-29T08:14:20Z</time>
      </trkpt>
      <trkpt lat="45.48345" lon="4.59591">
        <ele>554</ele>
        <time>2014-11-29T08:14:24Z</time>
      </trkpt>
      <trkpt lat="45.48341" lon="4.59592">
        <ele>555</ele>
        <time>2014-11-29T08:14:27Z</time>
      </trkpt>
      <trkpt lat="45.48338" lon="4.59595">
        <ele>555</ele>
        <time>2014-11-29T08:14:31Z</time>
      </trkpt>
      <trkpt lat="45.48335" lon="4.59597">
        <ele>555</ele>
        <time>2014-11-29T08:14:35Z</time>
      </trkpt>
      <trkpt lat="45.48331" lon="4.596">
        <ele>556</ele>
        <time>2014-11-29T08:14:39Z</time>
      </trkpt>
      <trkpt lat="45.48328" lon="4.59601">
        <ele>558</ele>
        <time>2014-11-29T08:14:42Z</time>
      </trkpt>
      <trkpt lat="45.48325" lon="4.59606">
        <ele>559</ele>
        <time>2014-11-29T08:14:46Z</time>
      </trkpt>
      <trkpt lat="45.48322" lon="4.59608">
        <ele>559</ele>
        <time>2014-11-29T08:14:50Z</time>
      </trkpt>
      <trkpt lat="45.4832" lon="4.59609">
        <ele>560</ele>
        <time>2014-11-29T08:14:53Z</time>
      </trkpt>
      <trkpt lat="45.48317" lon="4.59611">
        <ele>562</ele>
        <time>2014-11-29T08:14:57Z</time>
      </trkpt>
      <trkpt lat="45.48314" lon="4.59612">
        <ele>563</ele>
        <time>2014-11-29T08:15:01Z</time>
      </trkpt>
      <trkpt lat="45.48313" lon="4.59614">
        <ele>564</ele>
        <time>2014-11-29T08:15:13Z</time>
      </trkpt>
      <trkpt lat="45.48314" lon="4.59612">
        <ele>569</ele>
        <time>2014-11-29T08:15:45Z</time>
      </trkpt>
      <trkpt lat="45.48313" lon="4.59614">
        <ele>570</ele>
        <time>2014-11-29T08:15:56Z</time>
      </trkpt>
      <trkpt lat="45.4831" lon="4.59618">
        <ele>570</ele>
        <time>2014-11-29T08:16:00Z</time>
      </trkpt>
      <trkpt lat="45.48307" lon="4.59623">
        <ele>570</ele>
        <time>2014-11-29T08:16:03Z</time>
      </trkpt>
      <trkpt lat="45.48303" lon="4.59629">
        <ele>570</ele>
        <time>2014-11-29T08:16:06Z</time>
      </trkpt>
      <trkpt lat="45.48299" lon="4.59635">
        <ele>570</ele>
        <time>2014-11-29T08:16:09Z</time>
      </trkpt>
      <trkpt lat="45.48296" lon="4.59645">
        <ele>570</ele>
        <time>2014-11-29T08:16:13Z</time>
      </trkpt>
      <trkpt lat="45.48292" lon="4.59653">
        <ele>571</ele>
        <time>2014-11-29T08:16:16Z</time>
      </trkpt>
      <trkpt lat="45.48289" lon="4.59659">
        <ele>571</ele>
        <time>2014-11-29T08:16:19Z</time>
      </trkpt>
      <trkpt lat="45.48286" lon="4.59667">
        <ele>572</ele>
        <time>2014-11-29T08:16:22Z</time>
      </trkpt>
      <trkpt lat="45.48282" lon="4.59674">
        <ele>573</ele>
        <time>2014-11-29T08:16:25Z</time>
      </trkpt>
      <trkpt lat="45.48278" lon="4.59681">
        <ele>573</ele>
        <time>2014-11-29T08:16:28Z</time>
      </trkpt>
      <trkpt lat="45.48273" lon="4.59687">
        <ele>574</ele>
        <time>2014-11-29T08:16:31Z</time>
      </trkpt>
      <trkpt lat="45.48267" lon="4.59692">
        <ele>574</ele>
        <time>2014-11-29T08:16:34Z</time>
      </trkpt>
      <trkpt lat="45.4826" lon="4.59696">
        <ele>574</ele>
        <time>2014-11-29T08:16:37Z</time>
      </trkpt>
      <trkpt lat="45.48255" lon="4.59701">
        <ele>574</ele>
        <time>2014-11-29T08:16:40Z</time>
      </trkpt>
      <trkpt lat="45.48249" lon="4.59706">
        <ele>574</ele>
        <time>2014-11-29T08:16:43Z</time>
      </trkpt>
      <trkpt lat="45.48243" lon="4.59712">
        <ele>574</ele>
        <time>2014-11-29T08:16:47Z</time>
      </trkpt>
      <trkpt lat="45.48237" lon="4.59717">
        <ele>574</ele>
        <time>2014-11-29T08:16:50Z</time>
      </trkpt>
      <trkpt lat="45.48231" lon="4.59722">
        <ele>574</ele>
        <time>2014-11-29T08:16:53Z</time>
      </trkpt>
      <trkpt lat="45.48226" lon="4.59727">
        <ele>574</ele>
        <time>2014-11-29T08:16:56Z</time>
      </trkpt>
      <trkpt lat="45.48221" lon="4.59732">
        <ele>574</ele>
        <time>2014-11-29T08:16:59Z</time>
      </trkpt>
      <trkpt lat="45.48214" lon="4.59739">
        <ele>574</ele>
        <time>2014-11-29T08:17:03Z</time>
      </trkpt>
      <trkpt lat="45.48209" lon="4.59745">
        <ele>574</ele>
        <time>2014-11-29T08:17:06Z</time>
      </trkpt>
      <trkpt lat="45.48204" lon="4.59749">
        <ele>574</ele>
        <time>2014-11-29T08:17:09Z</time>
      </trkpt>
      <trkpt lat="45.48199" lon="4.59754">
        <ele>574</ele>
        <time>2014-11-29T08:17:12Z</time>
      </trkpt>
      <trkpt lat="45.48194" lon="4.59759">
        <ele>574</ele>
        <time>2014-11-29T08:17:15Z</time>
      </trkpt>
      <trkpt lat="45.48188" lon="4.59764">
        <ele>574</ele>
        <time>2014-11-29T08:17:18Z</time>
      </trkpt>
      <trkpt lat="45.48183" lon="4.59768">
        <ele>574</ele>
        <time>2014-11-29T08:17:21Z</time>
      </trkpt>
      <trkpt lat="45.48179" lon="4.59773">
        <ele>574</ele>
        <time>2014-11-29T08:17:24Z</time>
      </trkpt>
      <trkpt lat="45.48174" lon="4.59778">
        <ele>574</ele>
        <time>2014-11-29T08:17:27Z</time>
      </trkpt>
      <trkpt lat="45.48169" lon="4.59785">
        <ele>574</ele>
        <time>2014-11-29T08:17:31Z</time>
      </trkpt>
      <trkpt lat="45.48165" lon="4.59793">
        <ele>574</ele>
        <time>2014-11-29T08:17:34Z</time>
      </trkpt>
      <trkpt lat="45.48158" lon="4.59798">
        <ele>574</ele>
        <time>2014-11-29T08:17:37Z</time>
      </trkpt>
      <trkpt lat="45.48152" lon="4.59804">
        <ele>575</ele>
        <time>2014-11-29T08:17:40Z</time>
      </trkpt>
      <trkpt lat="45.48146" lon="4.59808">
        <ele>576</ele>
        <time>2014-11-29T08:17:43Z</time>
      </trkpt>
      <trkpt lat="45.48139" lon="4.59813">
        <ele>577</ele>
        <time>2014-11-29T08:17:46Z</time>
      </trkpt>
      <trkpt lat="45.48135" lon="4.59818">
        <ele>578</ele>
        <time>2014-11-29T08:17:49Z</time>
      </trkpt>
      <trkpt lat="45.4813" lon="4.59825">
        <ele>579</ele>
        <time>2014-11-29T08:17:53Z</time>
      </trkpt>
      <trkpt lat="45.48126" lon="4.59829">
        <ele>581</ele>
        <time>2014-11-29T08:17:57Z</time>
      </trkpt>
      <trkpt lat="45.4812" lon="4.59834">
        <ele>582</ele>
        <time>2014-11-29T08:18:02Z</time>
      </trkpt>
      <trkpt lat="45.48115" lon="4.59838">
        <ele>582</ele>
        <time>2014-11-29T08:18:06Z</time>
      </trkpt>
      <trkpt lat="45.48109" lon="4.59842">
        <ele>583</ele>
        <time>2014-11-29T08:18:10Z</time>
      </trkpt>
      <trkpt lat="45.48105" lon="4.59844">
        <ele>583</ele>
        <time>2014-11-29T08:18:13Z</time>
      </trkpt>
      <trkpt lat="45.48099" lon="4.59848">
        <ele>583</ele>
        <time>2014-11-29T08:18:16Z</time>
      </trkpt>
      <trkpt lat="45.48095" lon="4.59852">
        <ele>583</ele>
        <time>2014-11-29T08:18:19Z</time>
      </trkpt>
      <trkpt lat="45.48091" lon="4.59856">
        <ele>583</ele>
        <time>2014-11-29T08:18:23Z</time>
      </trkpt>
      <trkpt lat="45.48086" lon="4.59859">
        <ele>584</ele>
        <time>2014-11-29T08:18:26Z</time>
      </trkpt>
      <trkpt lat="45.48083" lon="4.59862">
        <ele>586</ele>
        <time>2014-11-29T08:18:30Z</time>
      </trkpt>
      <trkpt lat="45.48079" lon="4.59864">
        <ele>587</ele>
        <time>2014-11-29T08:18:33Z</time>
      </trkpt>
      <trkpt lat="45.48074" lon="4.59868">
        <ele>588</ele>
        <time>2014-11-29T08:18:37Z</time>
      </trkpt>
      <trkpt lat="45.48071" lon="4.5987">
        <ele>588</ele>
        <time>2014-11-29T08:18:41Z</time>
      </trkpt>
      <trkpt lat="45.48066" lon="4.59872">
        <ele>589</ele>
        <time>2014-11-29T08:18:45Z</time>
      </trkpt>
      <trkpt lat="45.48061" lon="4.59875">
        <ele>590</ele>
        <time>2014-11-29T08:18:48Z</time>
      </trkpt>
      <trkpt lat="45.48058" lon="4.59878">
        <ele>591</ele>
        <time>2014-11-29T08:18:51Z</time>
      </trkpt>
      <trkpt lat="45.48054" lon="4.5988">
        <ele>592</ele>
        <time>2014-11-29T08:18:56Z</time>
      </trkpt>
      <trkpt lat="45.48051" lon="4.59882">
        <ele>593</ele>
        <time>2014-11-29T08:18:59Z</time>
      </trkpt>
      <trkpt lat="45.48045" lon="4.59885">
        <ele>593</ele>
        <time>2014-11-29T08:19:03Z</time>
      </trkpt>
      <trkpt lat="45.4804" lon="4.59889">
        <ele>593</ele>
        <time>2014-11-29T08:19:07Z</time>
      </trkpt>
      <trkpt lat="45.48035" lon="4.59894">
        <ele>593</ele>
        <time>2014-11-29T08:19:11Z</time>
      </trkpt>
      <trkpt lat="45.48029" lon="4.59898">
        <ele>593</ele>
        <time>2014-11-29T08:19:14Z</time>
      </trkpt>
      <trkpt lat="45.48025" lon="4.59901">
        <ele>593</ele>
        <time>2014-11-29T08:19:17Z</time>
      </trkpt>
      <trkpt lat="45.48021" lon="4.59904">
        <ele>594</ele>
        <time>2014-11-29T08:19:21Z</time>
      </trkpt>
      <trkpt lat="45.48016" lon="4.5991">
        <ele>595</ele>
        <time>2014-11-29T08:19:24Z</time>
      </trkpt>
      <trkpt lat="45.48012" lon="4.59912">
        <ele>596</ele>
        <time>2014-11-29T08:19:27Z</time>
      </trkpt>
      <trkpt lat="45.48008" lon="4.59915">
        <ele>597</ele>
        <time>2014-11-29T08:19:31Z</time>
      </trkpt>
      <trkpt lat="45.48002" lon="4.59922">
        <ele>597</ele>
        <time>2014-11-29T08:19:34Z</time>
      </trkpt>
      <trkpt lat="45.47998" lon="4.59928">
        <ele>598</ele>
        <time>2014-11-29T08:19:37Z</time>
      </trkpt>
      <trkpt lat="45.47993" lon="4.59935">
        <ele>598</ele>
        <time>2014-11-29T08:19:41Z</time>
      </trkpt>
      <trkpt lat="45.47987" lon="4.59943">
        <ele>599</ele>
        <time>2014-11-29T08:19:44Z</time>
      </trkpt>
      <trkpt lat="45.47981" lon="4.59948">
        <ele>599</ele>
        <time>2014-11-29T08:19:48Z</time>
      </trkpt>
      <trkpt lat="45.47976" lon="4.59952">
        <ele>599</ele>
        <time>2014-11-29T08:19:51Z</time>
      </trkpt>
      <trkpt lat="45.47968" lon="4.59959">
        <ele>599</ele>
        <time>2014-11-29T08:19:54Z</time>
      </trkpt>
      <trkpt lat="45.47963" lon="4.59963">
        <ele>599</ele>
        <time>2014-11-29T08:19:57Z</time>
      </trkpt>
      <trkpt lat="45.47957" lon="4.59968">
        <ele>599</ele>
        <time>2014-11-29T08:20:00Z</time>
      </trkpt>
      <trkpt lat="45.4795" lon="4.59973">
        <ele>599</ele>
        <time>2014-11-29T08:20:03Z</time>
      </trkpt>
      <trkpt lat="45.47943" lon="4.59977">
        <ele>599</ele>
        <time>2014-11-29T08:20:07Z</time>
      </trkpt>
      <trkpt lat="45.47934" lon="4.59983">
        <ele>599</ele>
        <time>2014-11-29T08:20:10Z</time>
      </trkpt>
      <trkpt lat="45.47927" lon="4.59986">
        <ele>599</ele>
        <time>2014-11-29T08:20:13Z</time>
      </trkpt>
      <trkpt lat="45.47921" lon="4.59989">
        <ele>599</ele>
        <time>2014-11-29T08:20:17Z</time>
      </trkpt>
      <trkpt lat="45.47912" lon="4.59994">
        <ele>599</ele>
        <time>2014-11-29T08:20:20Z</time>
      </trkpt>
      <trkpt lat="45.47906" lon="4.59997">
        <ele>599</ele>
        <time>2014-11-29T08:20:23Z</time>
      </trkpt>
      <trkpt lat="45.479" lon="4.60001">
        <ele>599</ele>
        <time>2014-11-29T08:20:27Z</time>
      </trkpt>
      <trkpt lat="45.47889" lon="4.60004">
        <ele>599</ele>
        <time>2014-11-29T08:20:30Z</time>
      </trkpt>
      <trkpt lat="45.47881" lon="4.60006">
        <ele>598</ele>
        <time>2014-11-29T08:20:33Z</time>
      </trkpt>
      <trkpt lat="45.47875" lon="4.60012">
        <ele>598</ele>
        <time>2014-11-29T08:20:37Z</time>
      </trkpt>
      <trkpt lat="45.47867" lon="4.60014">
        <ele>598</ele>
        <time>2014-11-29T08:20:40Z</time>
      </trkpt>
      <trkpt lat="45.47861" lon="4.60015">
        <ele>598</ele>
        <time>2014-11-29T08:20:43Z</time>
      </trkpt>
      <trkpt lat="45.47857" lon="4.60015">
        <ele>598</ele>
        <time>2014-11-29T08:20:48Z</time>
      </trkpt>
      <trkpt lat="45.47848" lon="4.60017">
        <ele>598</ele>
        <time>2014-11-29T08:20:51Z</time>
      </trkpt>
      <trkpt lat="45.47842" lon="4.6002">
        <ele>598</ele>
        <time>2014-11-29T08:20:54Z</time>
      </trkpt>
      <trkpt lat="45.47836" lon="4.60021">
        <ele>597</ele>
        <time>2014-11-29T08:20:57Z</time>
      </trkpt>
      <trkpt lat="45.47829" lon="4.60022">
        <ele>597</ele>
        <time>2014-11-29T08:21:00Z</time>
      </trkpt>
      <trkpt lat="45.47823" lon="4.60024">
        <ele>597</ele>
        <time>2014-11-29T08:21:03Z</time>
      </trkpt>
      <trkpt lat="45.47816" lon="4.60027">
        <ele>596</ele>
        <time>2014-11-29T08:21:06Z</time>
      </trkpt>
      <trkpt lat="45.47809" lon="4.60029">
        <ele>596</ele>
        <time>2014-11-29T08:21:09Z</time>
      </trkpt>
      <trkpt lat="45.47802" lon="4.60031">
        <ele>595</ele>
        <time>2014-11-29T08:21:13Z</time>
      </trkpt>
      <trkpt lat="45.47793" lon="4.60034">
        <ele>594</ele>
        <time>2014-11-29T08:21:16Z</time>
      </trkpt>
      <trkpt lat="45.47786" lon="4.60036">
        <ele>593</ele>
        <time>2014-11-29T08:21:19Z</time>
      </trkpt>
      <trkpt lat="45.47779" lon="4.60038">
        <ele>592</ele>
        <time>2014-11-29T08:21:23Z</time>
      </trkpt>
      <trkpt lat="45.4777" lon="4.60043">
        <ele>590</ele>
        <time>2014-11-29T08:21:26Z</time>
      </trkpt>
      <trkpt lat="45.47763" lon="4.60045">
        <ele>588</ele>
        <time>2014-11-29T08:21:29Z</time>
      </trkpt>
      <trkpt lat="45.47756" lon="4.60048">
        <ele>586</ele>
        <time>2014-11-29T08:21:33Z</time>
      </trkpt>
      <trkpt lat="45.47746" lon="4.60052">
        <ele>584</ele>
        <time>2014-11-29T08:21:36Z</time>
      </trkpt>
      <trkpt lat="45.47739" lon="4.60054">
        <ele>583</ele>
        <time>2014-11-29T08:21:39Z</time>
      </trkpt>
      <trkpt lat="45.4773" lon="4.60058">
        <ele>583</ele>
        <time>2014-11-29T08:21:42Z</time>
      </trkpt>
      <trkpt lat="45.47721" lon="4.6006">
        <ele>583</ele>
        <time>2014-11-29T08:21:45Z</time>
      </trkpt>
      <trkpt lat="45.47714" lon="4.60062">
        <ele>583</ele>
        <time>2014-11-29T08:21:48Z</time>
      </trkpt>
      <trkpt lat="45.47706" lon="4.60064">
        <ele>583</ele>
        <time>2014-11-29T08:21:51Z</time>
      </trkpt>
      <trkpt lat="45.47699" lon="4.60067">
        <ele>583</ele>
        <time>2014-11-29T08:21:54Z</time>
      </trkpt>
      <trkpt lat="45.47691" lon="4.6007">
        <ele>583</ele>
        <time>2014-11-29T08:21:57Z</time>
      </trkpt>
      <trkpt lat="45.47684" lon="4.60074">
        <ele>583</ele>
        <time>2014-11-29T08:22:00Z</time>
      </trkpt>
      <trkpt lat="45.47676" lon="4.60077">
        <ele>581</ele>
        <time>2014-11-29T08:22:03Z</time>
      </trkpt>
      <trkpt lat="45.47669" lon="4.6008">
        <ele>580</ele>
        <time>2014-11-29T08:22:06Z</time>
      </trkpt>
      <trkpt lat="45.4766" lon="4.60082">
        <ele>579</ele>
        <time>2014-11-29T08:22:09Z</time>
      </trkpt>
      <trkpt lat="45.47652" lon="4.60083">
        <ele>579</ele>
        <time>2014-11-29T08:22:13Z</time>
      </trkpt>
      <trkpt lat="45.4764" lon="4.60084">
        <ele>579</ele>
        <time>2014-11-29T08:22:16Z</time>
      </trkpt>
      <trkpt lat="45.47631" lon="4.60083">
        <ele>579</ele>
        <time>2014-11-29T08:22:19Z</time>
      </trkpt>
      <trkpt lat="45.47622" lon="4.60083">
        <ele>579</ele>
        <time>2014-11-29T08:22:22Z</time>
      </trkpt>
      <trkpt lat="45.47612" lon="4.60083">
        <ele>579</ele>
        <time>2014-11-29T08:22:25Z</time>
      </trkpt>
      <trkpt lat="45.47603" lon="4.60081">
        <ele>579</ele>
        <time>2014-11-29T08:22:29Z</time>
      </trkpt>
      <trkpt lat="45.47591" lon="4.60077">
        <ele>579</ele>
        <time>2014-11-29T08:22:32Z</time>
      </trkpt>
      <trkpt lat="45.47583" lon="4.60074">
        <ele>580</ele>
        <time>2014-11-29T08:22:35Z</time>
      </trkpt>
      <trkpt lat="45.47575" lon="4.60072">
        <ele>581</ele>
        <time>2014-11-29T08:22:38Z</time>
      </trkpt>
      <trkpt lat="45.47567" lon="4.60071">
        <ele>582</ele>
        <time>2014-11-29T08:22:41Z</time>
      </trkpt>
      <trkpt lat="45.47559" lon="4.60069">
        <ele>582</ele>
        <time>2014-11-29T08:22:44Z</time>
      </trkpt>
      <trkpt lat="45.47552" lon="4.60067">
        <ele>582</ele>
        <time>2014-11-29T08:22:47Z</time>
      </trkpt>
      <trkpt lat="45.47545" lon="4.60064">
        <ele>583</ele>
        <time>2014-11-29T08:22:50Z</time>
      </trkpt>
      <trkpt lat="45.47541" lon="4.60061">
        <ele>584</ele>
        <time>2014-11-29T08:22:54Z</time>
      </trkpt>
      <trkpt lat="45.47538" lon="4.60059">
        <ele>584</ele>
        <time>2014-11-29T08:22:58Z</time>
      </trkpt>
      <trkpt lat="45.47535" lon="4.60056">
        <ele>584</ele>
        <time>2014-11-29T08:23:02Z</time>
      </trkpt>
      <trkpt lat="45.47536" lon="4.60056">
        <ele>584</ele>
        <time>2014-11-29T08:23:07Z</time>
      </trkpt>
      <trkpt lat="45.47535" lon="4.60055">
        <ele>584</ele>
        <time>2014-11-29T08:23:29Z</time>
      </trkpt>
      <trkpt lat="45.47534" lon="4.60055">
        <ele>584</ele>
        <time>2014-11-29T08:23:33Z</time>
      </trkpt>
      <trkpt lat="45.47534" lon="4.60053">
        <ele>584</ele>
        <time>2014-11-29T08:23:46Z</time>
      </trkpt>
      <trkpt lat="45.47533" lon="4.60055">
        <ele>584</ele>
        <time>2014-11-29T08:24:07Z</time>
      </trkpt>
      <trkpt lat="45.47529" lon="4.60056">
        <ele>584</ele>
        <time>2014-11-29T08:24:11Z</time>
      </trkpt>
      <trkpt lat="45.47525" lon="4.60058">
        <ele>584</ele>
        <time>2014-11-29T08:24:14Z</time>
      </trkpt>
      <trkpt lat="45.47522" lon="4.60059">
        <ele>584</ele>
        <time>2014-11-29T08:24:17Z</time>
      </trkpt>
      <trkpt lat="45.47515" lon="4.60059">
        <ele>584</ele>
        <time>2014-11-29T08:24:20Z</time>
      </trkpt>
      <trkpt lat="45.47509" lon="4.6006">
        <ele>584</ele>
        <time>2014-11-29T08:24:23Z</time>
      </trkpt>
      <trkpt lat="45.47502" lon="4.6006">
        <ele>584</ele>
        <time>2014-11-29T08:24:26Z</time>
      </trkpt>
      <trkpt lat="45.47495" lon="4.60059">
        <ele>584</ele>
        <time>2014-11-29T08:24:29Z</time>
      </trkpt>
      <trkpt lat="45.47488" lon="4.60058">
        <ele>584</ele>
        <time>2014-11-29T08:24:32Z</time>
      </trkpt>
      <trkpt lat="45.4748" lon="4.60055">
        <ele>584</ele>
        <time>2014-11-29T08:24:35Z</time>
      </trkpt>
      <trkpt lat="45.47474" lon="4.60053">
        <ele>584</ele>
        <time>2014-11-29T08:24:38Z</time>
      </trkpt>
      <trkpt lat="45.47468" lon="4.6005">
        <ele>584</ele>
        <time>2014-11-29T08:24:41Z</time>
      </trkpt>
      <trkpt lat="45.47462" lon="4.60046">
        <ele>585</ele>
        <time>2014-11-29T08:24:44Z</time>
      </trkpt>
      <trkpt lat="45.47456" lon="4.60044">
        <ele>586</ele>
        <time>2014-11-29T08:24:47Z</time>
      </trkpt>
      <trkpt lat="45.4745" lon="4.60042">
        <ele>588</ele>
        <time>2014-11-29T08:24:50Z</time>
      </trkpt>
      <trkpt lat="45.47443" lon="4.60039">
        <ele>589</ele>
        <time>2014-11-29T08:24:53Z</time>
      </trkpt>
      <trkpt lat="45.47437" lon="4.60036">
        <ele>589</ele>
        <time>2014-11-29T08:24:56Z</time>
      </trkpt>
      <trkpt lat="45.47431" lon="4.60032">
        <ele>590</ele>
        <time>2014-11-29T08:24:59Z</time>
      </trkpt>
      <trkpt lat="45.47425" lon="4.60029">
        <ele>590</ele>
        <time>2014-11-29T08:25:02Z</time>
      </trkpt>
      <trkpt lat="45.47419" lon="4.60025">
        <ele>590</ele>
        <time>2014-11-29T08:25:05Z</time>
      </trkpt>
      <trkpt lat="45.47413" lon="4.60021">
        <ele>590</ele>
        <time>2014-11-29T08:25:09Z</time>
      </trkpt>
      <trkpt lat="45.47405" lon="4.60016">
        <ele>591</ele>
        <time>2014-11-29T08:25:12Z</time>
      </trkpt>
      <trkpt lat="45.474" lon="4.60012">
        <ele>591</ele>
        <time>2014-11-29T08:25:15Z</time>
      </trkpt>
      <trkpt lat="45.47393" lon="4.6001">
        <ele>592</ele>
        <time>2014-11-29T08:25:18Z</time>
      </trkpt>
      <trkpt lat="45.47386" lon="4.6001">
        <ele>592</ele>
        <time>2014-11-29T08:25:21Z</time>
      </trkpt>
      <trkpt lat="45.47379" lon="4.6001">
        <ele>592</ele>
        <time>2014-11-29T08:25:24Z</time>
      </trkpt>
      <trkpt lat="45.47372" lon="4.6001">
        <ele>593</ele>
        <time>2014-11-29T08:25:27Z</time>
      </trkpt>
      <trkpt lat="45.47365" lon="4.60009">
        <ele>593</ele>
        <time>2014-11-29T08:25:30Z</time>
      </trkpt>
      <trkpt lat="45.47357" lon="4.60009">
        <ele>593</ele>
        <time>2014-11-29T08:25:33Z</time>
      </trkpt>
      <trkpt lat="45.47349" lon="4.6001">
        <ele>593</ele>
        <time>2014-11-29T08:25:36Z</time>
      </trkpt>
      <trkpt lat="45.47341" lon="4.60011">
        <ele>594</ele>
        <time>2014-11-29T08:25:39Z</time>
      </trkpt>
      <trkpt lat="45.47333" lon="4.60011">
        <ele>595</ele>
        <time>2014-11-29T08:25:43Z</time>
      </trkpt>
      <trkpt lat="45.47323" lon="4.60012">
        <ele>595</ele>
        <time>2014-11-29T08:25:46Z</time>
      </trkpt>
      <trkpt lat="45.47316" lon="4.60012">
        <ele>596</ele>
        <time>2014-11-29T08:25:49Z</time>
      </trkpt>
      <trkpt lat="45.47309" lon="4.60012">
        <ele>596</ele>
        <time>2014-11-29T08:25:52Z</time>
      </trkpt>
      <trkpt lat="45.47301" lon="4.60012">
        <ele>596</ele>
        <time>2014-11-29T08:25:55Z</time>
      </trkpt>
      <trkpt lat="45.47294" lon="4.60013">
        <ele>596</ele>
        <time>2014-11-29T08:25:58Z</time>
      </trkpt>
      <trkpt lat="45.47289" lon="4.60012">
        <ele>596</ele>
        <time>2014-11-29T08:26:01Z</time>
      </trkpt>
      <trkpt lat="45.47283" lon="4.60012">
        <ele>596</ele>
        <time>2014-11-29T08:26:04Z</time>
      </trkpt>
      <trkpt lat="45.47278" lon="4.60012">
        <ele>596</ele>
        <time>2014-11-29T08:26:07Z</time>
      </trkpt>
      <trkpt lat="45.47273" lon="4.60011">
        <ele>596</ele>
        <time>2014-11-29T08:26:11Z</time>
      </trkpt>
      <trkpt lat="45.47271" lon="4.60012">
        <ele>596</ele>
        <time>2014-11-29T08:26:14Z</time>
      </trkpt>
      <trkpt lat="45.47266" lon="4.60013">
        <ele>596</ele>
        <time>2014-11-29T08:26:17Z</time>
      </trkpt>
      <trkpt lat="45.47263" lon="4.60014">
        <ele>597</ele>
        <time>2014-11-29T08:26:20Z</time>
      </trkpt>
      <trkpt lat="45.47258" lon="4.60013">
        <ele>597</ele>
        <time>2014-11-29T08:26:24Z</time>
      </trkpt>
      <trkpt lat="45.47253" lon="4.60014">
        <ele>598</ele>
        <time>2014-11-29T08:26:29Z</time>
      </trkpt>
      <trkpt lat="45.47249" lon="4.60015">
        <ele>599</ele>
        <time>2014-11-29T08:26:32Z</time>
      </trkpt>
      <trkpt lat="45.47245" lon="4.60015">
        <ele>600</ele>
        <time>2014-11-29T08:26:36Z</time>
      </trkpt>
      <trkpt lat="45.4724" lon="4.60016">
        <ele>601</ele>
        <time>2014-11-29T08:26:40Z</time>
      </trkpt>
      <trkpt lat="45.47237" lon="4.60016">
        <ele>602</ele>
        <time>2014-11-29T08:26:43Z</time>
      </trkpt>
      <trkpt lat="45.47234" lon="4.60017">
        <ele>602</ele>
        <time>2014-11-29T08:26:46Z</time>
      </trkpt>
      <trkpt lat="45.47231" lon="4.60017">
        <ele>603</ele>
        <time>2014-11-29T08:26:49Z</time>
      </trkpt>
      <trkpt lat="45.47227" lon="4.60018">
        <ele>604</ele>
        <time>2014-11-29T08:26:52Z</time>
      </trkpt>
      <trkpt lat="45.47224" lon="4.60017">
        <ele>605</ele>
        <time>2014-11-29T08:26:55Z</time>
      </trkpt>
      <trkpt lat="45.4722" lon="4.60017">
        <ele>605</ele>
        <time>2014-11-29T08:26:59Z</time>
      </trkpt>
      <trkpt lat="45.47216" lon="4.60016">
        <ele>606</ele>
        <time>2014-11-29T08:27:03Z</time>
      </trkpt>
      <trkpt lat="45.47211" lon="4.60016">
        <ele>607</ele>
        <time>2014-11-29T08:27:07Z</time>
      </trkpt>
      <trkpt lat="45.47208" lon="4.60017">
        <ele>607</ele>
        <time>2014-11-29T08:27:11Z</time>
      </trkpt>
      <trkpt lat="45.47205" lon="4.60016">
        <ele>608</ele>
        <time>2014-11-29T08:27:14Z</time>
      </trkpt>
      <trkpt lat="45.47202" lon="4.60017">
        <ele>608</ele>
        <time>2014-11-29T08:27:17Z</time>
      </trkpt>
      <trkpt lat="45.47199" lon="4.60017">
        <ele>610</ele>
        <time>2014-11-29T08:27:24Z</time>
      </trkpt>
      <trkpt lat="45.47196" lon="4.60018">
        <ele>610</ele>
        <time>2014-11-29T08:27:28Z</time>
      </trkpt>
      <trkpt lat="45.47193" lon="4.60018">
        <ele>611</ele>
        <time>2014-11-29T08:27:32Z</time>
      </trkpt>
      <trkpt lat="45.4719" lon="4.60018">
        <ele>612</ele>
        <time>2014-11-29T08:27:36Z</time>
      </trkpt>
      <trkpt lat="45.47187" lon="4.60019">
        <ele>613</ele>
        <time>2014-11-29T08:27:40Z</time>
      </trkpt>
      <trkpt lat="45.47184" lon="4.60019">
        <ele>614</ele>
        <time>2014-11-29T08:27:44Z</time>
      </trkpt>
      <trkpt lat="45.47181" lon="4.60018">
        <ele>615</ele>
        <time>2014-11-29T08:27:48Z</time>
      </trkpt>
      <trkpt lat="45.47179" lon="4.60018">
        <ele>616</ele>
        <time>2014-11-29T08:27:54Z</time>
      </trkpt>
      <trkpt lat="45.47176" lon="4.60018">
        <ele>616</ele>
        <time>2014-11-29T08:27:58Z</time>
      </trkpt>
      <trkpt lat="45.47172" lon="4.60017">
        <ele>617</ele>
        <time>2014-11-29T08:28:02Z</time>
      </trkpt>
      <trkpt lat="45.47169" lon="4.60018">
        <ele>618</ele>
        <time>2014-11-29T08:28:06Z</time>
      </trkpt>
      <trkpt lat="45.47165" lon="4.60018">
        <ele>618</ele>
        <time>2014-11-29T08:28:10Z</time>
      </trkpt>
      <trkpt lat="45.47162" lon="4.60018">
        <ele>619</ele>
        <time>2014-11-29T08:28:14Z</time>
      </trkpt>
      <trkpt lat="45.47158" lon="4.60018">
        <ele>620</ele>
        <time>2014-11-29T08:28:18Z</time>
      </trkpt>
      <trkpt lat="45.47155" lon="4.60018">
        <ele>620</ele>
        <time>2014-11-29T08:28:22Z</time>
      </trkpt>
      <trkpt lat="45.47151" lon="4.60019">
        <ele>621</ele>
        <time>2014-11-29T08:28:26Z</time>
      </trkpt>
      <trkpt lat="45.47148" lon="4.60019">
        <ele>621</ele>
        <time>2014-11-29T08:28:30Z</time>
      </trkpt>
      <trkpt lat="45.47144" lon="4.60019">
        <ele>622</ele>
        <time>2014-11-29T08:28:34Z</time>
      </trkpt>
      <trkpt lat="45.4714" lon="4.60018">
        <ele>623</ele>
        <time>2014-11-29T08:28:38Z</time>
      </trkpt>
      <trkpt lat="45.47136" lon="4.60018">
        <ele>623</ele>
        <time>2014-11-29T08:28:42Z</time>
      </trkpt>
      <trkpt lat="45.47133" lon="4.60018">
        <ele>623</ele>
        <time>2014-11-29T08:28:46Z</time>
      </trkpt>
      <trkpt lat="45.4713" lon="4.60018">
        <ele>624</ele>
        <time>2014-11-29T08:28:49Z</time>
      </trkpt>
      <trkpt lat="45.47127" lon="4.60019">
        <ele>624</ele>
        <time>2014-11-29T08:28:53Z</time>
      </trkpt>
      <trkpt lat="45.47124" lon="4.60021">
        <ele>625</ele>
        <time>2014-11-29T08:28:57Z</time>
      </trkpt>
      <trkpt lat="45.47121" lon="4.60022">
        <ele>626</ele>
        <time>2014-11-29T08:29:01Z</time>
      </trkpt>
      <trkpt lat="45.47118" lon="4.60023">
        <ele>627</ele>
        <time>2014-11-29T08:29:06Z</time>
      </trkpt>
      <trkpt lat="45.47115" lon="4.60024">
        <ele>628</ele>
        <time>2014-11-29T08:29:09Z</time>
      </trkpt>
      <trkpt lat="45.47112" lon="4.60025">
        <ele>628</ele>
        <time>2014-11-29T08:29:13Z</time>
      </trkpt>
      <trkpt lat="45.47109" lon="4.60026">
        <ele>628</ele>
        <time>2014-11-29T08:29:17Z</time>
      </trkpt>
      <trkpt lat="45.47106" lon="4.60027">
        <ele>629</ele>
        <time>2014-11-29T08:29:21Z</time>
      </trkpt>
      <trkpt lat="45.47104" lon="4.60029">
        <ele>630</ele>
        <time>2014-11-29T08:29:25Z</time>
      </trkpt>
      <trkpt lat="45.47101" lon="4.60031">
        <ele>631</ele>
        <time>2014-11-29T08:29:29Z</time>
      </trkpt>
      <trkpt lat="45.47098" lon="4.60032">
        <ele>632</ele>
        <time>2014-11-29T08:29:33Z</time>
      </trkpt>
      <trkpt lat="45.47095" lon="4.60034">
        <ele>633</ele>
        <time>2014-11-29T08:29:37Z</time>
      </trkpt>
      <trkpt lat="45.47092" lon="4.60034">
        <ele>634</ele>
        <time>2014-11-29T08:29:41Z</time>
      </trkpt>
      <trkpt lat="45.47089" lon="4.60035">
        <ele>634</ele>
        <time>2014-11-29T08:29:45Z</time>
      </trkpt>
      <trkpt lat="45.47086" lon="4.60035">
        <ele>635</ele>
        <time>2014-11-29T08:29:50Z</time>
      </trkpt>
      <trkpt lat="45.47084" lon="4.60035">
        <ele>635</ele>
        <time>2014-11-29T08:29:54Z</time>
      </trkpt>
      <trkpt lat="45.47081" lon="4.60035">
        <ele>636</ele>
        <time>2014-11-29T08:29:58Z</time>
      </trkpt>
      <trkpt lat="45.47078" lon="4.60035">
        <ele>636</ele>
        <time>2014-11-29T08:30:02Z</time>
      </trkpt>
      <trkpt lat="45.47075" lon="4.60035">
        <ele>636</ele>
        <time>2014-11-29T08:30:06Z</time>
      </trkpt>
      <trkpt lat="45.47072" lon="4.60034">
        <ele>637</ele>
        <time>2014-11-29T08:30:10Z</time>
      </trkpt>
      <trkpt lat="45.4707" lon="4.60035">
        <ele>638</ele>
        <time>2014-11-29T08:30:14Z</time>
      </trkpt>
      <trkpt lat="45.47067" lon="4.60035">
        <ele>638</ele>
        <time>2014-11-29T08:30:18Z</time>
      </trkpt>
      <trkpt lat="45.47064" lon="4.60037">
        <ele>639</ele>
        <time>2014-11-29T08:30:23Z</time>
      </trkpt>
      <trkpt lat="45.47061" lon="4.60038">
        <ele>640</ele>
        <time>2014-11-29T08:30:27Z</time>
      </trkpt>
      <trkpt lat="45.47058" lon="4.60039">
        <ele>641</ele>
        <time>2014-11-29T08:30:31Z</time>
      </trkpt>
      <trkpt lat="45.47055" lon="4.60039">
        <ele>642</ele>
        <time>2014-11-29T08:30:35Z</time>
      </trkpt>
      <trkpt lat="45.47053" lon="4.6004">
        <ele>642</ele>
        <time>2014-11-29T08:30:38Z</time>
      </trkpt>
      <trkpt lat="45.4705" lon="4.6004">
        <ele>643</ele>
        <time>2014-11-29T08:30:42Z</time>
      </trkpt>
      <trkpt lat="45.47047" lon="4.60041">
        <ele>644</ele>
        <time>2014-11-29T08:30:46Z</time>
      </trkpt>
      <trkpt lat="45.47044" lon="4.60043">
        <ele>644</ele>
        <time>2014-11-29T08:30:50Z</time>
      </trkpt>
      <trkpt lat="45.47041" lon="4.60044">
        <ele>645</ele>
        <time>2014-11-29T08:30:54Z</time>
      </trkpt>
      <trkpt lat="45.47038" lon="4.60044">
        <ele>646</ele>
        <time>2014-11-29T08:30:58Z</time>
      </trkpt>
      <trkpt lat="45.47035" lon="4.60044">
        <ele>647</ele>
        <time>2014-11-29T08:31:02Z</time>
      </trkpt>
      <trkpt lat="45.47032" lon="4.60044">
        <ele>648</ele>
        <time>2014-11-29T08:31:06Z</time>
      </trkpt>
      <trkpt lat="45.4703" lon="4.60045">
        <ele>650</ele>
        <time>2014-11-29T08:31:12Z</time>
      </trkpt>
      <trkpt lat="45.47029" lon="4.60046">
        <ele>652</ele>
        <time>2014-11-29T08:31:21Z</time>
      </trkpt>
      <trkpt lat="45.47026" lon="4.60048">
        <ele>652</ele>
        <time>2014-11-29T08:31:24Z</time>
      </trkpt>
      <trkpt lat="45.4702" lon="4.60049">
        <ele>653</ele>
        <time>2014-11-29T08:31:27Z</time>
      </trkpt>
      <trkpt lat="45.47016" lon="4.6005">
        <ele>653</ele>
        <time>2014-11-29T08:31:30Z</time>
      </trkpt>
      <trkpt lat="45.47012" lon="4.6005">
        <ele>654</ele>
        <time>2014-11-29T08:31:34Z</time>
      </trkpt>
      <trkpt lat="45.4701" lon="4.6005">
        <ele>654</ele>
        <time>2014-11-29T08:31:38Z</time>
      </trkpt>
      <trkpt lat="45.47007" lon="4.6005">
        <ele>654</ele>
        <time>2014-11-29T08:31:42Z</time>
      </trkpt>
      <trkpt lat="45.47004" lon="4.6005">
        <ele>655</ele>
        <time>2014-11-29T08:31:46Z</time>
      </trkpt>
      <trkpt lat="45.47002" lon="4.60049">
        <ele>656</ele>
        <time>2014-11-29T08:31:50Z</time>
      </trkpt>
      <trkpt lat="45.47" lon="4.60049">
        <ele>657</ele>
        <time>2014-11-29T08:31:54Z</time>
      </trkpt>
      <trkpt lat="45.46997" lon="4.60049">
        <ele>658</ele>
        <time>2014-11-29T08:31:59Z</time>
      </trkpt>
      <trkpt lat="45.46994" lon="4.6005">
        <ele>660</ele>
        <time>2014-11-29T08:32:04Z</time>
      </trkpt>
      <trkpt lat="45.46991" lon="4.60051">
        <ele>662</ele>
        <time>2014-11-29T08:32:09Z</time>
      </trkpt>
      <trkpt lat="45.46988" lon="4.60052">
        <ele>663</ele>
        <time>2014-11-29T08:32:14Z</time>
      </trkpt>
      <trkpt lat="45.46985" lon="4.60054">
        <ele>664</ele>
        <time>2014-11-29T08:32:18Z</time>
      </trkpt>
      <trkpt lat="45.46982" lon="4.60055">
        <ele>664</ele>
        <time>2014-11-29T08:32:22Z</time>
      </trkpt>
      <trkpt lat="45.46978" lon="4.60057">
        <ele>665</ele>
        <time>2014-11-29T08:32:26Z</time>
      </trkpt>
      <trkpt lat="45.46975" lon="4.60059">
        <ele>665</ele>
        <time>2014-11-29T08:32:29Z</time>
      </trkpt>
      <trkpt lat="45.46972" lon="4.60063">
        <ele>666</ele>
        <time>2014-11-29T08:32:33Z</time>
      </trkpt>
      <trkpt lat="45.46968" lon="4.60066">
        <ele>667</ele>
        <time>2014-11-29T08:32:37Z</time>
      </trkpt>
      <trkpt lat="45.46966" lon="4.60066">
        <ele>667</ele>
        <time>2014-11-29T08:32:40Z</time>
      </trkpt>
      <trkpt lat="45.46963" lon="4.60067">
        <ele>668</ele>
        <time>2014-11-29T08:32:44Z</time>
      </trkpt>
      <trkpt lat="45.4696" lon="4.60067">
        <ele>668</ele>
        <time>2014-11-29T08:32:48Z</time>
      </trkpt>
      <trkpt lat="45.46956" lon="4.60069">
        <ele>668</ele>
        <time>2014-11-29T08:32:52Z</time>
      </trkpt>
      <trkpt lat="45.46953" lon="4.6007">
        <ele>668</ele>
        <time>2014-11-29T08:32:55Z</time>
      </trkpt>
      <trkpt lat="45.46949" lon="4.6007">
        <ele>669</ele>
        <time>2014-11-29T08:32:59Z</time>
      </trkpt>
      <trkpt lat="45.46946" lon="4.60072">
        <ele>669</ele>
        <time>2014-11-29T08:33:03Z</time>
      </trkpt>
      <trkpt lat="45.46943" lon="4.60073">
        <ele>670</ele>
        <time>2014-11-29T08:33:07Z</time>
      </trkpt>
      <trkpt lat="45.4694" lon="4.60073">
        <ele>671</ele>
        <time>2014-11-29T08:33:10Z</time>
      </trkpt>
      <trkpt lat="45.46937" lon="4.60072">
        <ele>671</ele>
        <time>2014-11-29T08:33:14Z</time>
      </trkpt>
      <trkpt lat="45.46933" lon="4.60072">
        <ele>672</ele>
        <time>2014-11-29T08:33:18Z</time>
      </trkpt>
      <trkpt lat="45.4693" lon="4.60072">
        <ele>672</ele>
        <time>2014-11-29T08:33:22Z</time>
      </trkpt>
      <trkpt lat="45.46926" lon="4.60071">
        <ele>673</ele>
        <time>2014-11-29T08:33:26Z</time>
      </trkpt>
      <trkpt lat="45.46923" lon="4.6007">
        <ele>673</ele>
        <time>2014-11-29T08:33:30Z</time>
      </trkpt>
      <trkpt lat="45.4692" lon="4.6007">
        <ele>673</ele>
        <time>2014-11-29T08:33:33Z</time>
      </trkpt>
      <trkpt lat="45.46916" lon="4.6007">
        <ele>674</ele>
        <time>2014-11-29T08:33:37Z</time>
      </trkpt>
      <trkpt lat="45.46912" lon="4.60071">
        <ele>674</ele>
        <time>2014-11-29T08:33:41Z</time>
      </trkpt>
      <trkpt lat="45.46908" lon="4.60072">
        <ele>675</ele>
        <time>2014-11-29T08:33:45Z</time>
      </trkpt>
      <trkpt lat="45.46904" lon="4.60073">
        <ele>675</ele>
        <time>2014-11-29T08:33:49Z</time>
      </trkpt>
      <trkpt lat="45.469" lon="4.60074">
        <ele>675</ele>
        <time>2014-11-29T08:33:53Z</time>
      </trkpt>
      <trkpt lat="45.46897" lon="4.60075">
        <ele>675</ele>
        <time>2014-11-29T08:33:56Z</time>
      </trkpt>
      <trkpt lat="45.46893" lon="4.60076">
        <ele>676</ele>
        <time>2014-11-29T08:34:00Z</time>
      </trkpt>
      <trkpt lat="45.46889" lon="4.60078">
        <ele>676</ele>
        <time>2014-11-29T08:34:04Z</time>
      </trkpt>
      <trkpt lat="45.46886" lon="4.6008">
        <ele>677</ele>
        <time>2014-11-29T08:34:07Z</time>
      </trkpt>
      <trkpt lat="45.46883" lon="4.60082">
        <ele>678</ele>
        <time>2014-11-29T08:34:10Z</time>
      </trkpt>
      <trkpt lat="45.46878" lon="4.60085">
        <ele>678</ele>
        <time>2014-11-29T08:34:14Z</time>
      </trkpt>
      <trkpt lat="45.46875" lon="4.60087">
        <ele>679</ele>
        <time>2014-11-29T08:34:18Z</time>
      </trkpt>
      <trkpt lat="45.46871" lon="4.60089">
        <ele>679</ele>
        <time>2014-11-29T08:34:21Z</time>
      </trkpt>
      <trkpt lat="45.46869" lon="4.60091">
        <ele>679</ele>
        <time>2014-11-29T08:34:24Z</time>
      </trkpt>
      <trkpt lat="45.46865" lon="4.60093">
        <ele>680</ele>
        <time>2014-11-29T08:34:28Z</time>
      </trkpt>
      <trkpt lat="45.46861" lon="4.60096">
        <ele>681</ele>
        <time>2014-11-29T08:34:31Z</time>
      </trkpt>
      <trkpt lat="45.46857" lon="4.60098">
        <ele>682</ele>
        <time>2014-11-29T08:34:35Z</time>
      </trkpt>
      <trkpt lat="45.46854" lon="4.601">
        <ele>684</ele>
        <time>2014-11-29T08:34:39Z</time>
      </trkpt>
      <trkpt lat="45.46851" lon="4.60102">
        <ele>685</ele>
        <time>2014-11-29T08:34:42Z</time>
      </trkpt>
      <trkpt lat="45.46848" lon="4.60105">
        <ele>686</ele>
        <time>2014-11-29T08:34:45Z</time>
      </trkpt>
      <trkpt lat="45.46844" lon="4.60107">
        <ele>686</ele>
        <time>2014-11-29T08:34:48Z</time>
      </trkpt>
      <trkpt lat="45.4684" lon="4.60109">
        <ele>687</ele>
        <time>2014-11-29T08:34:52Z</time>
      </trkpt>
      <trkpt lat="45.46835" lon="4.60111">
        <ele>689</ele>
        <time>2014-11-29T08:34:56Z</time>
      </trkpt>
      <trkpt lat="45.46831" lon="4.60113">
        <ele>690</ele>
        <time>2014-11-29T08:35:00Z</time>
      </trkpt>
      <trkpt lat="45.46828" lon="4.60115">
        <ele>691</ele>
        <time>2014-11-29T08:35:04Z</time>
      </trkpt>
      <trkpt lat="45.46824" lon="4.60117">
        <ele>692</ele>
        <time>2014-11-29T08:35:07Z</time>
      </trkpt>
      <trkpt lat="45.4682" lon="4.60119">
        <ele>693</ele>
        <time>2014-11-29T08:35:11Z</time>
      </trkpt>
      <trkpt lat="45.46817" lon="4.60121">
        <ele>693</ele>
        <time>2014-11-29T08:35:15Z</time>
      </trkpt>
      <trkpt lat="45.46814" lon="4.60123">
        <ele>694</ele>
        <time>2014-11-29T08:35:19Z</time>
      </trkpt>
      <trkpt lat="45.4681" lon="4.60125">
        <ele>694</ele>
        <time>2014-11-29T08:35:23Z</time>
      </trkpt>
      <trkpt lat="45.46806" lon="4.60126">
        <ele>695</ele>
        <time>2014-11-29T08:35:27Z</time>
      </trkpt>
      <trkpt lat="45.46803" lon="4.60128">
        <ele>696</ele>
        <time>2014-11-29T08:35:31Z</time>
      </trkpt>
      <trkpt lat="45.46799" lon="4.6013">
        <ele>697</ele>
        <time>2014-11-29T08:35:35Z</time>
      </trkpt>
      <trkpt lat="45.46796" lon="4.60132">
        <ele>698</ele>
        <time>2014-11-29T08:35:39Z</time>
      </trkpt>
      <trkpt lat="45.46793" lon="4.60134">
        <ele>698</ele>
        <time>2014-11-29T08:35:43Z</time>
      </trkpt>
      <trkpt lat="45.4679" lon="4.60136">
        <ele>699</ele>
        <time>2014-11-29T08:35:47Z</time>
      </trkpt>
      <trkpt lat="45.46787" lon="4.60138">
        <ele>700</ele>
        <time>2014-11-29T08:35:51Z</time>
      </trkpt>
      <trkpt lat="45.46784" lon="4.6014">
        <ele>701</ele>
        <time>2014-11-29T08:35:55Z</time>
      </trkpt>
      <trkpt lat="45.4678" lon="4.60141">
        <ele>701</ele>
        <time>2014-11-29T08:35:59Z</time>
      </trkpt>
      <trkpt lat="45.46777" lon="4.60143">
        <ele>702</ele>
        <time>2014-11-29T08:36:03Z</time>
      </trkpt>
      <trkpt lat="45.46773" lon="4.60144">
        <ele>703</ele>
        <time>2014-11-29T08:36:08Z</time>
      </trkpt>
      <trkpt lat="45.46769" lon="4.60145">
        <ele>703</ele>
        <time>2014-11-29T08:36:12Z</time>
      </trkpt>
      <trkpt lat="45.46766" lon="4.60147">
        <ele>703</ele>
        <time>2014-11-29T08:36:15Z</time>
      </trkpt>
      <trkpt lat="45.46762" lon="4.60149">
        <ele>703</ele>
        <time>2014-11-29T08:36:18Z</time>
      </trkpt>
      <trkpt lat="45.46758" lon="4.60152">
        <ele>704</ele>
        <time>2014-11-29T08:36:22Z</time>
      </trkpt>
      <trkpt lat="45.46755" lon="4.60156">
        <ele>705</ele>
        <time>2014-11-29T08:36:26Z</time>
      </trkpt>
      <trkpt lat="45.46752" lon="4.60159">
        <ele>706</ele>
        <time>2014-11-29T08:36:30Z</time>
      </trkpt>
      <trkpt lat="45.46751" lon="4.60161">
        <ele>707</ele>
        <time>2014-11-29T08:36:35Z</time>
      </trkpt>
      <trkpt lat="45.46747" lon="4.60164">
        <ele>708</ele>
        <time>2014-11-29T08:36:39Z</time>
      </trkpt>
      <trkpt lat="45.46744" lon="4.60168">
        <ele>708</ele>
        <time>2014-11-29T08:36:43Z</time>
      </trkpt>
      <trkpt lat="45.46741" lon="4.6017">
        <ele>709</ele>
        <time>2014-11-29T08:36:47Z</time>
      </trkpt>
      <trkpt lat="45.4674" lon="4.60172">
        <ele>710</ele>
        <time>2014-11-29T08:36:52Z</time>
      </trkpt>
      <trkpt lat="45.46737" lon="4.60176">
        <ele>710</ele>
        <time>2014-11-29T08:36:56Z</time>
      </trkpt>
      <trkpt lat="45.46733" lon="4.6018">
        <ele>711</ele>
        <time>2014-11-29T08:37:00Z</time>
      </trkpt>
      <trkpt lat="45.46729" lon="4.60184">
        <ele>712</ele>
        <time>2014-11-29T08:37:05Z</time>
      </trkpt>
      <trkpt lat="45.46725" lon="4.60189">
        <ele>712</ele>
        <time>2014-11-29T08:37:08Z</time>
      </trkpt>
      <trkpt lat="45.46722" lon="4.60192">
        <ele>713</ele>
        <time>2014-11-29T08:37:12Z</time>
      </trkpt>
      <trkpt lat="45.46718" lon="4.60196">
        <ele>714</ele>
        <time>2014-11-29T08:37:16Z</time>
      </trkpt>
      <trkpt lat="45.46715" lon="4.602">
        <ele>715</ele>
        <time>2014-11-29T08:37:20Z</time>
      </trkpt>
      <trkpt lat="45.46714" lon="4.60202">
        <ele>716</ele>
        <time>2014-11-29T08:37:23Z</time>
      </trkpt>
      <trkpt lat="45.46712" lon="4.60207">
        <ele>716</ele>
        <time>2014-11-29T08:37:27Z</time>
      </trkpt>
      <trkpt lat="45.4671" lon="4.60211">
        <ele>717</ele>
        <time>2014-11-29T08:37:31Z</time>
      </trkpt>
      <trkpt lat="45.46707" lon="4.60215">
        <ele>718</ele>
        <time>2014-11-29T08:37:35Z</time>
      </trkpt>
      <trkpt lat="45.46705" lon="4.6022">
        <ele>719</ele>
        <time>2014-11-29T08:37:38Z</time>
      </trkpt>
      <trkpt lat="45.46703" lon="4.60225">
        <ele>719</ele>
        <time>2014-11-29T08:37:41Z</time>
      </trkpt>
      <trkpt lat="45.46702" lon="4.60229">
        <ele>720</ele>
        <time>2014-11-29T08:37:44Z</time>
      </trkpt>
      <trkpt lat="45.46701" lon="4.60235">
        <ele>721</ele>
        <time>2014-11-29T08:37:47Z</time>
      </trkpt>
      <trkpt lat="45.467" lon="4.6024">
        <ele>721</ele>
        <time>2014-11-29T08:37:50Z</time>
      </trkpt>
      <trkpt lat="45.46699" lon="4.60245">
        <ele>722</ele>
        <time>2014-11-29T08:37:53Z</time>
      </trkpt>
      <trkpt lat="45.46698" lon="4.60251">
        <ele>723</ele>
        <time>2014-11-29T08:37:56Z</time>
      </trkpt>
      <trkpt lat="45.46697" lon="4.60255">
        <ele>723</ele>
        <time>2014-11-29T08:37:59Z</time>
      </trkpt>
      <trkpt lat="45.46696" lon="4.60261">
        <ele>723</ele>
        <time>2014-11-29T08:38:02Z</time>
      </trkpt>
      <trkpt lat="45.46695" lon="4.60266">
        <ele>723</ele>
        <time>2014-11-29T08:38:05Z</time>
      </trkpt>
      <trkpt lat="45.46694" lon="4.60272">
        <ele>723</ele>
        <time>2014-11-29T08:38:08Z</time>
      </trkpt>
      <trkpt lat="45.46693" lon="4.60277">
        <ele>724</ele>
        <time>2014-11-29T08:38:11Z</time>
      </trkpt>
      <trkpt lat="45.46691" lon="4.60283">
        <ele>724</ele>
        <time>2014-11-29T08:38:14Z</time>
      </trkpt>
      <trkpt lat="45.4669" lon="4.60291">
        <ele>724</ele>
        <time>2014-11-29T08:38:17Z</time>
      </trkpt>
      <trkpt lat="45.46687" lon="4.60298">
        <ele>724</ele>
        <time>2014-11-29T08:38:20Z</time>
      </trkpt>
      <trkpt lat="45.46685" lon="4.60306">
        <ele>724</ele>
        <time>2014-11-29T08:38:23Z</time>
      </trkpt>
      <trkpt lat="45.46684" lon="4.60313">
        <ele>724</ele>
        <time>2014-11-29T08:38:27Z</time>
      </trkpt>
      <trkpt lat="45.46683" lon="4.60324">
        <ele>724</ele>
        <time>2014-11-29T08:38:30Z</time>
      </trkpt>
      <trkpt lat="45.46682" lon="4.60331">
        <ele>724</ele>
        <time>2014-11-29T08:38:33Z</time>
      </trkpt>
      <trkpt lat="45.46681" lon="4.60338">
        <ele>725</ele>
        <time>2014-11-29T08:38:36Z</time>
      </trkpt>
      <trkpt lat="45.4668" lon="4.60343">
        <ele>726</ele>
        <time>2014-11-29T08:38:40Z</time>
      </trkpt>
      <trkpt lat="45.46679" lon="4.60344">
        <ele>726</ele>
        <time>2014-11-29T08:39:01Z</time>
      </trkpt>
      <trkpt lat="45.46679" lon="4.60346">
        <ele>726</ele>
        <time>2014-11-29T08:39:05Z</time>
      </trkpt>
      <trkpt lat="45.46678" lon="4.60351">
        <ele>726</ele>
        <time>2014-11-29T08:39:09Z</time>
      </trkpt>
      <trkpt lat="45.46677" lon="4.60357">
        <ele>726</ele>
        <time>2014-11-29T08:39:13Z</time>
      </trkpt>
      <trkpt lat="45.46676" lon="4.6036">
        <ele>727</ele>
        <time>2014-11-29T08:39:16Z</time>
      </trkpt>
      <trkpt lat="45.46675" lon="4.60365">
        <ele>727</ele>
        <time>2014-11-29T08:39:20Z</time>
      </trkpt>
      <trkpt lat="45.46674" lon="4.6037">
        <ele>727</ele>
        <time>2014-11-29T08:39:23Z</time>
      </trkpt>
      <trkpt lat="45.46674" lon="4.60376">
        <ele>727</ele>
        <time>2014-11-29T08:39:27Z</time>
      </trkpt>
      <trkpt lat="45.46673" lon="4.60381">
        <ele>727</ele>
        <time>2014-11-29T08:39:30Z</time>
      </trkpt>
      <trkpt lat="45.46672" lon="4.60386">
        <ele>728</ele>
        <time>2014-11-29T08:39:33Z</time>
      </trkpt>
      <trkpt lat="45.46672" lon="4.6039">
        <ele>728</ele>
        <time>2014-11-29T08:39:36Z</time>
      </trkpt>
      <trkpt lat="45.46672" lon="4.60396">
        <ele>728</ele>
        <time>2014-11-29T08:39:39Z</time>
      </trkpt>
      <trkpt lat="45.46672" lon="4.60403">
        <ele>728</ele>
        <time>2014-11-29T08:39:42Z</time>
      </trkpt>
      <trkpt lat="45.46671" lon="4.60412">
        <ele>729</ele>
        <time>2014-11-29T08:39:45Z</time>
      </trkpt>
      <trkpt lat="45.4667" lon="4.6042">
        <ele>730</ele>
        <time>2014-11-29T08:39:49Z</time>
      </trkpt>
      <trkpt lat="45.46668" lon="4.60433">
        <ele>732</ele>
        <time>2014-11-29T08:39:52Z</time>
      </trkpt>
      <trkpt lat="45.46664" lon="4.60443">
        <ele>733</ele>
        <time>2014-11-29T08:39:55Z</time>
      </trkpt>
      <trkpt lat="45.46663" lon="4.60453">
        <ele>734</ele>
        <time>2014-11-29T08:39:58Z</time>
      </trkpt>
      <trkpt lat="45.46661" lon="4.60461">
        <ele>735</ele>
        <time>2014-11-29T08:40:01Z</time>
      </trkpt>
      <trkpt lat="45.46659" lon="4.60472">
        <ele>735</ele>
        <time>2014-11-29T08:40:04Z</time>
      </trkpt>
      <trkpt lat="45.46656" lon="4.6048">
        <ele>735</ele>
        <time>2014-11-29T08:40:07Z</time>
      </trkpt>
      <trkpt lat="45.46652" lon="4.60489">
        <ele>735</ele>
        <time>2014-11-29T08:40:10Z</time>
      </trkpt>
      <trkpt lat="45.46649" lon="4.60498">
        <ele>735</ele>
        <time>2014-11-29T08:40:13Z</time>
      </trkpt>
      <trkpt lat="45.46645" lon="4.60506">
        <ele>735</ele>
        <time>2014-11-29T08:40:16Z</time>
      </trkpt>
      <trkpt lat="45.4664" lon="4.60513">
        <ele>735</ele>
        <time>2014-11-29T08:40:19Z</time>
      </trkpt>
      <trkpt lat="45.46635" lon="4.60521">
        <ele>735</ele>
        <time>2014-11-29T08:40:22Z</time>
      </trkpt>
      <trkpt lat="45.46631" lon="4.60528">
        <ele>735</ele>
        <time>2014-11-29T08:40:25Z</time>
      </trkpt>
      <trkpt lat="45.46627" lon="4.60537">
        <ele>735</ele>
        <time>2014-11-29T08:40:28Z</time>
      </trkpt>
      <trkpt lat="45.46624" lon="4.60546">
        <ele>735</ele>
        <time>2014-11-29T08:40:31Z</time>
      </trkpt>
      <trkpt lat="45.46621" lon="4.60554">
        <ele>735</ele>
        <time>2014-11-29T08:40:34Z</time>
      </trkpt>
      <trkpt lat="45.46618" lon="4.60563">
        <ele>735</ele>
        <time>2014-11-29T08:40:37Z</time>
      </trkpt>
      <trkpt lat="45.46614" lon="4.6057">
        <ele>735</ele>
        <time>2014-11-29T08:40:40Z</time>
      </trkpt>
      <trkpt lat="45.46609" lon="4.60578">
        <ele>735</ele>
        <time>2014-11-29T08:40:43Z</time>
      </trkpt>
      <trkpt lat="45.46603" lon="4.60585">
        <ele>735</ele>
        <time>2014-11-29T08:40:46Z</time>
      </trkpt>
      <trkpt lat="45.46599" lon="4.60593">
        <ele>735</ele>
        <time>2014-11-29T08:40:49Z</time>
      </trkpt>
      <trkpt lat="45.46595" lon="4.60599">
        <ele>735</ele>
        <time>2014-11-29T08:40:52Z</time>
      </trkpt>
      <trkpt lat="45.4659" lon="4.60603">
        <ele>736</ele>
        <time>2014-11-29T08:40:55Z</time>
      </trkpt>
      <trkpt lat="45.46585" lon="4.60609">
        <ele>739</ele>
        <time>2014-11-29T08:40:58Z</time>
      </trkpt>
      <trkpt lat="45.4658" lon="4.60615">
        <ele>742</ele>
        <time>2014-11-29T08:41:01Z</time>
      </trkpt>
      <trkpt lat="45.46575" lon="4.60623">
        <ele>743</ele>
        <time>2014-11-29T08:41:04Z</time>
      </trkpt>
      <trkpt lat="45.46571" lon="4.60628">
        <ele>744</ele>
        <time>2014-11-29T08:41:07Z</time>
      </trkpt>
      <trkpt lat="45.46567" lon="4.60633">
        <ele>744</ele>
        <time>2014-11-29T08:41:10Z</time>
      </trkpt>
      <trkpt lat="45.46563" lon="4.60638">
        <ele>744</ele>
        <time>2014-11-29T08:41:13Z</time>
      </trkpt>
      <trkpt lat="45.4656" lon="4.60643">
        <ele>744</ele>
        <time>2014-11-29T08:41:16Z</time>
      </trkpt>
      <trkpt lat="45.46557" lon="4.60649">
        <ele>744</ele>
        <time>2014-11-29T08:41:19Z</time>
      </trkpt>
      <trkpt lat="45.46553" lon="4.60655">
        <ele>744</ele>
        <time>2014-11-29T08:41:22Z</time>
      </trkpt>
      <trkpt lat="45.4655" lon="4.6066">
        <ele>744</ele>
        <time>2014-11-29T08:41:25Z</time>
      </trkpt>
      <trkpt lat="45.46546" lon="4.60666">
        <ele>744</ele>
        <time>2014-11-29T08:41:28Z</time>
      </trkpt>
      <trkpt lat="45.4654" lon="4.60673">
        <ele>745</ele>
        <time>2014-11-29T08:41:31Z</time>
      </trkpt>
      <trkpt lat="45.46535" lon="4.6068">
        <ele>745</ele>
        <time>2014-11-29T08:41:34Z</time>
      </trkpt>
      <trkpt lat="45.46531" lon="4.60685">
        <ele>745</ele>
        <time>2014-11-29T08:41:37Z</time>
      </trkpt>
      <trkpt lat="45.46526" lon="4.60692">
        <ele>746</ele>
        <time>2014-11-29T08:41:40Z</time>
      </trkpt>
      <trkpt lat="45.46522" lon="4.60699">
        <ele>746</ele>
        <time>2014-11-29T08:41:43Z</time>
      </trkpt>
      <trkpt lat="45.46518" lon="4.60706">
        <ele>747</ele>
        <time>2014-11-29T08:41:46Z</time>
      </trkpt>
      <trkpt lat="45.46513" lon="4.60713">
        <ele>748</ele>
        <time>2014-11-29T08:41:49Z</time>
      </trkpt>
      <trkpt lat="45.46509" lon="4.6072">
        <ele>749</ele>
        <time>2014-11-29T08:41:52Z</time>
      </trkpt>
      <trkpt lat="45.46504" lon="4.60726">
        <ele>750</ele>
        <time>2014-11-29T08:41:55Z</time>
      </trkpt>
      <trkpt lat="45.46501" lon="4.60734">
        <ele>750</ele>
        <time>2014-11-29T08:41:58Z</time>
      </trkpt>
      <trkpt lat="45.46497" lon="4.6074">
        <ele>751</ele>
        <time>2014-11-29T08:42:01Z</time>
      </trkpt>
      <trkpt lat="45.46493" lon="4.60747">
        <ele>751</ele>
        <time>2014-11-29T08:42:04Z</time>
      </trkpt>
      <trkpt lat="45.46488" lon="4.60756">
        <ele>751</ele>
        <time>2014-11-29T08:42:07Z</time>
      </trkpt>
      <trkpt lat="45.46484" lon="4.60765">
        <ele>752</ele>
        <time>2014-11-29T08:42:10Z</time>
      </trkpt>
      <trkpt lat="45.4648" lon="4.60773">
        <ele>752</ele>
        <time>2014-11-29T08:42:13Z</time>
      </trkpt>
      <trkpt lat="45.46476" lon="4.6078">
        <ele>752</ele>
        <time>2014-11-29T08:42:16Z</time>
      </trkpt>
      <trkpt lat="45.46472" lon="4.60788">
        <ele>752</ele>
        <time>2014-11-29T08:42:19Z</time>
      </trkpt>
      <trkpt lat="45.46468" lon="4.60793">
        <ele>752</ele>
        <time>2014-11-29T08:42:22Z</time>
      </trkpt>
      <trkpt lat="45.46465" lon="4.608">
        <ele>752</ele>
        <time>2014-11-29T08:42:25Z</time>
      </trkpt>
      <trkpt lat="45.46462" lon="4.60807">
        <ele>752</ele>
        <time>2014-11-29T08:42:28Z</time>
      </trkpt>
      <trkpt lat="45.46458" lon="4.60815">
        <ele>752</ele>
        <time>2014-11-29T08:42:31Z</time>
      </trkpt>
      <trkpt lat="45.46455" lon="4.60822">
        <ele>752</ele>
        <time>2014-11-29T08:42:34Z</time>
      </trkpt>
      <trkpt lat="45.46452" lon="4.6083">
        <ele>752</ele>
        <time>2014-11-29T08:42:37Z</time>
      </trkpt>
      <trkpt lat="45.46448" lon="4.60838">
        <ele>752</ele>
        <time>2014-11-29T08:42:40Z</time>
      </trkpt>
      <trkpt lat="45.46443" lon="4.60845">
        <ele>752</ele>
        <time>2014-11-29T08:42:43Z</time>
      </trkpt>
      <trkpt lat="45.46439" lon="4.60854">
        <ele>752</ele>
        <time>2014-11-29T08:42:46Z</time>
      </trkpt>
      <trkpt lat="45.46436" lon="4.60862">
        <ele>752</ele>
        <time>2014-11-29T08:42:49Z</time>
      </trkpt>
      <trkpt lat="45.46432" lon="4.60871">
        <ele>752</ele>
        <time>2014-11-29T08:42:52Z</time>
      </trkpt>
      <trkpt lat="45.4643" lon="4.60879">
        <ele>752</ele>
        <time>2014-11-29T08:42:55Z</time>
      </trkpt>
      <trkpt lat="45.46426" lon="4.60888">
        <ele>752</ele>
        <time>2014-11-29T08:42:58Z</time>
      </trkpt>
      <trkpt lat="45.46421" lon="4.60898">
        <ele>752</ele>
        <time>2014-11-29T08:43:01Z</time>
      </trkpt>
      <trkpt lat="45.46417" lon="4.60906">
        <ele>753</ele>
        <time>2014-11-29T08:43:04Z</time>
      </trkpt>
      <trkpt lat="45.46414" lon="4.60914">
        <ele>753</ele>
        <time>2014-11-29T08:43:07Z</time>
      </trkpt>
      <trkpt lat="45.46409" lon="4.60922">
        <ele>754</ele>
        <time>2014-11-29T08:43:10Z</time>
      </trkpt>
      <trkpt lat="45.46405" lon="4.6093">
        <ele>754</ele>
        <time>2014-11-29T08:43:13Z</time>
      </trkpt>
      <trkpt lat="45.46402" lon="4.60939">
        <ele>754</ele>
        <time>2014-11-29T08:43:16Z</time>
      </trkpt>
      <trkpt lat="45.46399" lon="4.60948">
        <ele>754</ele>
        <time>2014-11-29T08:43:19Z</time>
      </trkpt>
      <trkpt lat="45.46396" lon="4.60956">
        <ele>754</ele>
        <time>2014-11-29T08:43:22Z</time>
      </trkpt>
      <trkpt lat="45.46393" lon="4.60965">
        <ele>754</ele>
        <time>2014-11-29T08:43:25Z</time>
      </trkpt>
      <trkpt lat="45.46389" lon="4.60976">
        <ele>754</ele>
        <time>2014-11-29T08:43:28Z</time>
      </trkpt>
      <trkpt lat="45.46387" lon="4.60985">
        <ele>754</ele>
        <time>2014-11-29T08:43:31Z</time>
      </trkpt>
      <trkpt lat="45.46385" lon="4.60993">
        <ele>754</ele>
        <time>2014-11-29T08:43:34Z</time>
      </trkpt>
      <trkpt lat="45.46383" lon="4.60999">
        <ele>754</ele>
        <time>2014-11-29T08:43:37Z</time>
      </trkpt>
      <trkpt lat="45.4638" lon="4.6101">
        <ele>754</ele>
        <time>2014-11-29T08:43:40Z</time>
      </trkpt>
      <trkpt lat="45.46376" lon="4.61019">
        <ele>754</ele>
        <time>2014-11-29T08:43:43Z</time>
      </trkpt>
      <trkpt lat="45.46373" lon="4.61029">
        <ele>754</ele>
        <time>2014-11-29T08:43:46Z</time>
      </trkpt>
      <trkpt lat="45.4637" lon="4.6104">
        <ele>753</ele>
        <time>2014-11-29T08:43:49Z</time>
      </trkpt>
      <trkpt lat="45.46367" lon="4.61049">
        <ele>751</ele>
        <time>2014-11-29T08:43:52Z</time>
      </trkpt>
      <trkpt lat="45.46364" lon="4.61058">
        <ele>750</ele>
        <time>2014-11-29T08:43:55Z</time>
      </trkpt>
      <trkpt lat="45.46362" lon="4.61068">
        <ele>750</ele>
        <time>2014-11-29T08:43:58Z</time>
      </trkpt>
      <trkpt lat="45.4636" lon="4.61078">
        <ele>750</ele>
        <time>2014-11-29T08:44:01Z</time>
      </trkpt>
      <trkpt lat="45.46356" lon="4.61087">
        <ele>750</ele>
        <time>2014-11-29T08:44:04Z</time>
      </trkpt>
      <trkpt lat="45.46353" lon="4.61096">
        <ele>749</ele>
        <time>2014-11-29T08:44:07Z</time>
      </trkpt>
      <trkpt lat="45.4635" lon="4.61107">
        <ele>748</ele>
        <time>2014-11-29T08:44:10Z</time>
      </trkpt>
      <trkpt lat="45.46347" lon="4.61117">
        <ele>747</ele>
        <time>2014-11-29T08:44:13Z</time>
      </trkpt>
      <trkpt lat="45.46344" lon="4.61128">
        <ele>746</ele>
        <time>2014-11-29T08:44:16Z</time>
      </trkpt>
      <trkpt lat="45.46341" lon="4.61138">
        <ele>745</ele>
        <time>2014-11-29T08:44:19Z</time>
      </trkpt>
      <trkpt lat="45.46338" lon="4.61149">
        <ele>744</ele>
        <time>2014-11-29T08:44:23Z</time>
      </trkpt>
      <trkpt lat="45.46333" lon="4.61162">
        <ele>743</ele>
        <time>2014-11-29T08:44:26Z</time>
      </trkpt>
      <trkpt lat="45.46329" lon="4.61171">
        <ele>742</ele>
        <time>2014-11-29T08:44:29Z</time>
      </trkpt>
      <trkpt lat="45.46327" lon="4.61182">
        <ele>741</ele>
        <time>2014-11-29T08:44:32Z</time>
      </trkpt>
      <trkpt lat="45.46325" lon="4.6119">
        <ele>740</ele>
        <time>2014-11-29T08:44:35Z</time>
      </trkpt>
      <trkpt lat="45.46322" lon="4.612">
        <ele>739</ele>
        <time>2014-11-29T08:44:38Z</time>
      </trkpt>
      <trkpt lat="45.46319" lon="4.61208">
        <ele>738</ele>
        <time>2014-11-29T08:44:41Z</time>
      </trkpt>
      <trkpt lat="45.46315" lon="4.61216">
        <ele>738</ele>
        <time>2014-11-29T08:44:44Z</time>
      </trkpt>
      <trkpt lat="45.4631" lon="4.61228">
        <ele>737</ele>
        <time>2014-11-29T08:44:47Z</time>
      </trkpt>
      <trkpt lat="45.46305" lon="4.61236">
        <ele>736</ele>
        <time>2014-11-29T08:44:50Z</time>
      </trkpt>
      <trkpt lat="45.46301" lon="4.61246">
        <ele>735</ele>
        <time>2014-11-29T08:44:53Z</time>
      </trkpt>
      <trkpt lat="45.46297" lon="4.61257">
        <ele>734</ele>
        <time>2014-11-29T08:44:56Z</time>
      </trkpt>
      <trkpt lat="45.46293" lon="4.61267">
        <ele>733</ele>
        <time>2014-11-29T08:44:59Z</time>
      </trkpt>
      <trkpt lat="45.46289" lon="4.61277">
        <ele>732</ele>
        <time>2014-11-29T08:45:02Z</time>
      </trkpt>
      <trkpt lat="45.46285" lon="4.61286">
        <ele>731</ele>
        <time>2014-11-29T08:45:05Z</time>
      </trkpt>
      <trkpt lat="45.46281" lon="4.61295">
        <ele>731</ele>
        <time>2014-11-29T08:45:08Z</time>
      </trkpt>
      <trkpt lat="45.46277" lon="4.61305">
        <ele>730</ele>
        <time>2014-11-29T08:45:11Z</time>
      </trkpt>
      <trkpt lat="45.46273" lon="4.61316">
        <ele>729</ele>
        <time>2014-11-29T08:45:14Z</time>
      </trkpt>
      <trkpt lat="45.46272" lon="4.61321">
        <ele>726</ele>
        <time>2014-11-29T08:45:19Z</time>
      </trkpt>
      <trkpt lat="45.46271" lon="4.61326">
        <ele>726</ele>
        <time>2014-11-29T08:45:22Z</time>
      </trkpt>
      <trkpt lat="45.46269" lon="4.61332">
        <ele>726</ele>
        <time>2014-11-29T08:45:25Z</time>
      </trkpt>
      <trkpt lat="45.46266" lon="4.61337">
        <ele>725</ele>
        <time>2014-11-29T08:45:28Z</time>
      </trkpt>
      <trkpt lat="45.46265" lon="4.61343">
        <ele>723</ele>
        <time>2014-11-29T08:45:31Z</time>
      </trkpt>
      <trkpt lat="45.46263" lon="4.61348">
        <ele>722</ele>
        <time>2014-11-29T08:45:34Z</time>
      </trkpt>
      <trkpt lat="45.46261" lon="4.61354">
        <ele>721</ele>
        <time>2014-11-29T08:45:37Z</time>
      </trkpt>
      <trkpt lat="45.4626" lon="4.61359">
        <ele>720</ele>
        <time>2014-11-29T08:45:40Z</time>
      </trkpt>
      <trkpt lat="45.46257" lon="4.6137">
        <ele>717</ele>
        <time>2014-11-29T08:45:43Z</time>
      </trkpt>
      <trkpt lat="45.46252" lon="4.6138">
        <ele>714</ele>
        <time>2014-11-29T08:45:46Z</time>
      </trkpt>
      <trkpt lat="45.46247" lon="4.61393">
        <ele>712</ele>
        <time>2014-11-29T08:45:49Z</time>
      </trkpt>
      <trkpt lat="45.46242" lon="4.61405">
        <ele>711</ele>
        <time>2014-11-29T08:45:52Z</time>
      </trkpt>
      <trkpt lat="45.46237" lon="4.61419">
        <ele>711</ele>
        <time>2014-11-29T08:45:55Z</time>
      </trkpt>
      <trkpt lat="45.46232" lon="4.61431">
        <ele>711</ele>
        <time>2014-11-29T08:45:58Z</time>
      </trkpt>
      <trkpt lat="45.46228" lon="4.61444">
        <ele>711</ele>
        <time>2014-11-29T08:46:01Z</time>
      </trkpt>
      <trkpt lat="45.46223" lon="4.61456">
        <ele>711</ele>
        <time>2014-11-29T08:46:04Z</time>
      </trkpt>
      <trkpt lat="45.46217" lon="4.61468">
        <ele>711</ele>
        <time>2014-11-29T08:46:07Z</time>
      </trkpt>
      <trkpt lat="45.46212" lon="4.61479">
        <ele>711</ele>
        <time>2014-11-29T08:46:10Z</time>
      </trkpt>
      <trkpt lat="45.46207" lon="4.61489">
        <ele>709</ele>
        <time>2014-11-29T08:46:13Z</time>
      </trkpt>
      <trkpt lat="45.46201" lon="4.61497">
        <ele>708</ele>
        <time>2014-11-29T08:46:16Z</time>
      </trkpt>
      <trkpt lat="45.46195" lon="4.61508">
        <ele>707</ele>
        <time>2014-11-29T08:46:19Z</time>
      </trkpt>
      <trkpt lat="45.4619" lon="4.61516">
        <ele>707</ele>
        <time>2014-11-29T08:46:22Z</time>
      </trkpt>
      <trkpt lat="45.46183" lon="4.61527">
        <ele>705</ele>
        <time>2014-11-29T08:46:25Z</time>
      </trkpt>
      <trkpt lat="45.46176" lon="4.61541">
        <ele>705</ele>
        <time>2014-11-29T08:46:28Z</time>
      </trkpt>
      <trkpt lat="45.46168" lon="4.61555">
        <ele>704</ele>
        <time>2014-11-29T08:46:31Z</time>
      </trkpt>
      <trkpt lat="45.46159" lon="4.61568">
        <ele>704</ele>
        <time>2014-11-29T08:46:34Z</time>
      </trkpt>
      <trkpt lat="45.46151" lon="4.61582">
        <ele>704</ele>
        <time>2014-11-29T08:46:37Z</time>
      </trkpt>
      <trkpt lat="45.46145" lon="4.61598">
        <ele>704</ele>
        <time>2014-11-29T08:46:40Z</time>
      </trkpt>
      <trkpt lat="45.46139" lon="4.61612">
        <ele>704</ele>
        <time>2014-11-29T08:46:43Z</time>
      </trkpt>
      <trkpt lat="45.46135" lon="4.61629">
        <ele>704</ele>
        <time>2014-11-29T08:46:46Z</time>
      </trkpt>
      <trkpt lat="45.46129" lon="4.61646">
        <ele>704</ele>
        <time>2014-11-29T08:46:49Z</time>
      </trkpt>
      <trkpt lat="45.46128" lon="4.61661">
        <ele>704</ele>
        <time>2014-11-29T08:46:52Z</time>
      </trkpt>
      <trkpt lat="45.4613" lon="4.61675">
        <ele>704</ele>
        <time>2014-11-29T08:46:55Z</time>
      </trkpt>
      <trkpt lat="45.46131" lon="4.61683">
        <ele>703</ele>
        <time>2014-11-29T08:46:58Z</time>
      </trkpt>
      <trkpt lat="45.46133" lon="4.61695">
        <ele>701</ele>
        <time>2014-11-29T08:47:01Z</time>
      </trkpt>
      <trkpt lat="45.46134" lon="4.61708">
        <ele>700</ele>
        <time>2014-11-29T08:47:04Z</time>
      </trkpt>
      <trkpt lat="45.46135" lon="4.61721">
        <ele>700</ele>
        <time>2014-11-29T08:47:07Z</time>
      </trkpt>
      <trkpt lat="45.46135" lon="4.61733">
        <ele>699</ele>
        <time>2014-11-29T08:47:10Z</time>
      </trkpt>
      <trkpt lat="45.46135" lon="4.61748">
        <ele>698</ele>
        <time>2014-11-29T08:47:13Z</time>
      </trkpt>
      <trkpt lat="45.46135" lon="4.61765">
        <ele>696</ele>
        <time>2014-11-29T08:47:16Z</time>
      </trkpt>
      <trkpt lat="45.46139" lon="4.61778">
        <ele>694</ele>
        <time>2014-11-29T08:47:19Z</time>
      </trkpt>
      <trkpt lat="45.46144" lon="4.61792">
        <ele>692</ele>
        <time>2014-11-29T08:47:22Z</time>
      </trkpt>
      <trkpt lat="45.46149" lon="4.61805">
        <ele>689</ele>
        <time>2014-11-29T08:47:25Z</time>
      </trkpt>
      <trkpt lat="45.46154" lon="4.6182">
        <ele>686</ele>
        <time>2014-11-29T08:47:28Z</time>
      </trkpt>
      <trkpt lat="45.46159" lon="4.61834">
        <ele>683</ele>
        <time>2014-11-29T08:47:31Z</time>
      </trkpt>
      <trkpt lat="45.46165" lon="4.61851">
        <ele>680</ele>
        <time>2014-11-29T08:47:34Z</time>
      </trkpt>
      <trkpt lat="45.46171" lon="4.61866">
        <ele>677</ele>
        <time>2014-11-29T08:47:37Z</time>
      </trkpt>
      <trkpt lat="45.46181" lon="4.6188">
        <ele>675</ele>
        <time>2014-11-29T08:47:40Z</time>
      </trkpt>
      <trkpt lat="45.4619" lon="4.61893">
        <ele>673</ele>
        <time>2014-11-29T08:47:43Z</time>
      </trkpt>
      <trkpt lat="45.46199" lon="4.61906">
        <ele>671</ele>
        <time>2014-11-29T08:47:46Z</time>
      </trkpt>
      <trkpt lat="45.46208" lon="4.61917">
        <ele>668</ele>
        <time>2014-11-29T08:47:49Z</time>
      </trkpt>
      <trkpt lat="45.4622" lon="4.61928">
        <ele>666</ele>
        <time>2014-11-29T08:47:52Z</time>
      </trkpt>
      <trkpt lat="45.46233" lon="4.61939">
        <ele>664</ele>
        <time>2014-11-29T08:47:55Z</time>
      </trkpt>
      <trkpt lat="45.46244" lon="4.61947">
        <ele>662</ele>
        <time>2014-11-29T08:47:58Z</time>
      </trkpt>
      <trkpt lat="45.46254" lon="4.61951">
        <ele>660</ele>
        <time>2014-11-29T08:48:01Z</time>
      </trkpt>
      <trkpt lat="45.46265" lon="4.61954">
        <ele>657</ele>
        <time>2014-11-29T08:48:04Z</time>
      </trkpt>
      <trkpt lat="45.46271" lon="4.61964">
        <ele>656</ele>
        <time>2014-11-29T08:48:07Z</time>
      </trkpt>
      <trkpt lat="45.46272" lon="4.6197">
        <ele>655</ele>
        <time>2014-11-29T08:48:12Z</time>
      </trkpt>
      <trkpt lat="45.46268" lon="4.61971">
        <ele>655</ele>
        <time>2014-11-29T08:48:15Z</time>
      </trkpt>
      <trkpt lat="45.46265" lon="4.61971">
        <ele>655</ele>
        <time>2014-11-29T08:48:18Z</time>
      </trkpt>
      <trkpt lat="45.46261" lon="4.61971">
        <ele>655</ele>
        <time>2014-11-29T08:48:22Z</time>
      </trkpt>
      <trkpt lat="45.46259" lon="4.6197">
        <ele>655</ele>
        <time>2014-11-29T08:48:26Z</time>
      </trkpt>
      <trkpt lat="45.46257" lon="4.61969">
        <ele>656</ele>
        <time>2014-11-29T08:48:29Z</time>
      </trkpt>
      <trkpt lat="45.46254" lon="4.61968">
        <ele>658</ele>
        <time>2014-11-29T08:48:33Z</time>
      </trkpt>
      <trkpt lat="45.46249" lon="4.61967">
        <ele>658</ele>
        <time>2014-11-29T08:48:37Z</time>
      </trkpt>
      <trkpt lat="45.46245" lon="4.61966">
        <ele>659</ele>
        <time>2014-11-29T08:48:40Z</time>
      </trkpt>
      <trkpt lat="45.46243" lon="4.61965">
        <ele>661</ele>
        <time>2014-11-29T08:48:43Z</time>
      </trkpt>
      <trkpt lat="45.46241" lon="4.61965">
        <ele>663</ele>
        <time>2014-11-29T08:48:46Z</time>
      </trkpt>
      <trkpt lat="45.46239" lon="4.61965">
        <ele>663</ele>
        <time>2014-11-29T08:48:50Z</time>
      </trkpt>
      <trkpt lat="45.46236" lon="4.61965">
        <ele>663</ele>
        <time>2014-11-29T08:48:53Z</time>
      </trkpt>
      <trkpt lat="45.46232" lon="4.61965">
        <ele>663</ele>
        <time>2014-11-29T08:48:56Z</time>
      </trkpt>
      <trkpt lat="45.46224" lon="4.61963">
        <ele>663</ele>
        <time>2014-11-29T08:48:59Z</time>
      </trkpt>
      <trkpt lat="45.46215" lon="4.61963">
        <ele>663</ele>
        <time>2014-11-29T08:49:02Z</time>
      </trkpt>
      <trkpt lat="45.46207" lon="4.61962">
        <ele>663</ele>
        <time>2014-11-29T08:49:05Z</time>
      </trkpt>
      <trkpt lat="45.462" lon="4.61959">
        <ele>663</ele>
        <time>2014-11-29T08:49:08Z</time>
      </trkpt>
      <trkpt lat="45.46192" lon="4.61957">
        <ele>663</ele>
        <time>2014-11-29T08:49:11Z</time>
      </trkpt>
      <trkpt lat="45.46183" lon="4.61956">
        <ele>662</ele>
        <time>2014-11-29T08:49:14Z</time>
      </trkpt>
      <trkpt lat="45.46174" lon="4.61954">
        <ele>661</ele>
        <time>2014-11-29T08:49:17Z</time>
      </trkpt>
      <trkpt lat="45.46166" lon="4.61952">
        <ele>660</ele>
        <time>2014-11-29T08:49:20Z</time>
      </trkpt>
      <trkpt lat="45.46157" lon="4.61949">
        <ele>658</ele>
        <time>2014-11-29T08:49:23Z</time>
      </trkpt>
      <trkpt lat="45.46148" lon="4.61945">
        <ele>657</ele>
        <time>2014-11-29T08:49:26Z</time>
      </trkpt>
      <trkpt lat="45.46139" lon="4.61944">
        <ele>654</ele>
        <time>2014-11-29T08:49:29Z</time>
      </trkpt>
      <trkpt lat="45.4613" lon="4.61944">
        <ele>652</ele>
        <time>2014-11-29T08:49:32Z</time>
      </trkpt>
      <trkpt lat="45.46119" lon="4.61943">
        <ele>650</ele>
        <time>2014-11-29T08:49:35Z</time>
      </trkpt>
      <trkpt lat="45.46108" lon="4.6194">
        <ele>648</ele>
        <time>2014-11-29T08:49:38Z</time>
      </trkpt>
      <trkpt lat="45.46098" lon="4.61937">
        <ele>646</ele>
        <time>2014-11-29T08:49:41Z</time>
      </trkpt>
      <trkpt lat="45.46088" lon="4.61936">
        <ele>644</ele>
        <time>2014-11-29T08:49:44Z</time>
      </trkpt>
      <trkpt lat="45.46079" lon="4.61936">
        <ele>642</ele>
        <time>2014-11-29T08:49:47Z</time>
      </trkpt>
      <trkpt lat="45.4607" lon="4.61939">
        <ele>641</ele>
        <time>2014-11-29T08:49:50Z</time>
      </trkpt>
      <trkpt lat="45.46063" lon="4.61944">
        <ele>640</ele>
        <time>2014-11-29T08:49:53Z</time>
      </trkpt>
      <trkpt lat="45.46057" lon="4.6195">
        <ele>640</ele>
        <time>2014-11-29T08:49:56Z</time>
      </trkpt>
      <trkpt lat="45.46052" lon="4.61956">
        <ele>640</ele>
        <time>2014-11-29T08:50:00Z</time>
      </trkpt>
      <trkpt lat="45.46046" lon="4.6196">
        <ele>640</ele>
        <time>2014-11-29T08:50:03Z</time>
      </trkpt>
      <trkpt lat="45.46043" lon="4.61962">
        <ele>640</ele>
        <time>2014-11-29T08:50:06Z</time>
      </trkpt>
      <trkpt lat="45.4604" lon="4.61963">
        <ele>640</ele>
        <time>2014-11-29T08:50:10Z</time>
      </trkpt>
      <trkpt lat="45.46039" lon="4.61965">
        <ele>640</ele>
        <time>2014-11-29T08:50:13Z</time>
      </trkpt>
      <trkpt lat="45.46037" lon="4.61966">
        <ele>640</ele>
        <time>2014-11-29T08:50:17Z</time>
      </trkpt>
      <trkpt lat="45.46035" lon="4.61967">
        <ele>640</ele>
        <time>2014-11-29T08:50:20Z</time>
      </trkpt>
      <trkpt lat="45.46031" lon="4.61965">
        <ele>640</ele>
        <time>2014-11-29T08:50:24Z</time>
      </trkpt>
      <trkpt lat="45.46026" lon="4.6196">
        <ele>640</ele>
        <time>2014-11-29T08:50:27Z</time>
      </trkpt>
      <trkpt lat="45.46021" lon="4.61952">
        <ele>641</ele>
        <time>2014-11-29T08:50:30Z</time>
      </trkpt>
      <trkpt lat="45.46015" lon="4.61943">
        <ele>641</ele>
        <time>2014-11-29T08:50:33Z</time>
      </trkpt>
      <trkpt lat="45.46009" lon="4.61936">
        <ele>642</ele>
        <time>2014-11-29T08:50:36Z</time>
      </trkpt>
      <trkpt lat="45.46003" lon="4.61931">
        <ele>642</ele>
        <time>2014-11-29T08:50:39Z</time>
      </trkpt>
      <trkpt lat="45.45997" lon="4.61924">
        <ele>642</ele>
        <time>2014-11-29T08:50:42Z</time>
      </trkpt>
      <trkpt lat="45.45988" lon="4.61919">
        <ele>642</ele>
        <time>2014-11-29T08:50:45Z</time>
      </trkpt>
      <trkpt lat="45.45979" lon="4.61916">
        <ele>642</ele>
        <time>2014-11-29T08:50:48Z</time>
      </trkpt>
      <trkpt lat="45.45971" lon="4.61913">
        <ele>642</ele>
        <time>2014-11-29T08:50:51Z</time>
      </trkpt>
      <trkpt lat="45.45962" lon="4.6191">
        <ele>642</ele>
        <time>2014-11-29T08:50:54Z</time>
      </trkpt>
      <trkpt lat="45.45954" lon="4.61907">
        <ele>642</ele>
        <time>2014-11-29T08:50:57Z</time>
      </trkpt>
      <trkpt lat="45.45945" lon="4.61904">
        <ele>642</ele>
        <time>2014-11-29T08:51:00Z</time>
      </trkpt>
      <trkpt lat="45.45936" lon="4.61901">
        <ele>642</ele>
        <time>2014-11-29T08:51:03Z</time>
      </trkpt>
      <trkpt lat="45.45926" lon="4.61898">
        <ele>642</ele>
        <time>2014-11-29T08:51:06Z</time>
      </trkpt>
      <trkpt lat="45.45918" lon="4.61895">
        <ele>642</ele>
        <time>2014-11-29T08:51:09Z</time>
      </trkpt>
      <trkpt lat="45.45909" lon="4.61891">
        <ele>642</ele>
        <time>2014-11-29T08:51:12Z</time>
      </trkpt>
      <trkpt lat="45.459" lon="4.61887">
        <ele>642</ele>
        <time>2014-11-29T08:51:15Z</time>
      </trkpt>
      <trkpt lat="45.45894" lon="4.61879">
        <ele>642</ele>
        <time>2014-11-29T08:51:18Z</time>
      </trkpt>
      <trkpt lat="45.45886" lon="4.61872">
        <ele>642</ele>
        <time>2014-11-29T08:51:21Z</time>
      </trkpt>
      <trkpt lat="45.45878" lon="4.61868">
        <ele>642</ele>
        <time>2014-11-29T08:51:24Z</time>
      </trkpt>
      <trkpt lat="45.45871" lon="4.61863">
        <ele>641</ele>
        <time>2014-11-29T08:51:27Z</time>
      </trkpt>
      <trkpt lat="45.45863" lon="4.61859">
        <ele>641</ele>
        <time>2014-11-29T08:51:30Z</time>
      </trkpt>
      <trkpt lat="45.45857" lon="4.61854">
        <ele>640</ele>
        <time>2014-11-29T08:51:33Z</time>
      </trkpt>
      <trkpt lat="45.4585" lon="4.6185">
        <ele>639</ele>
        <time>2014-11-29T08:51:36Z</time>
      </trkpt>
      <trkpt lat="45.45842" lon="4.61848">
        <ele>639</ele>
        <time>2014-11-29T08:51:39Z</time>
      </trkpt>
      <trkpt lat="45.45834" lon="4.61843">
        <ele>638</ele>
        <time>2014-11-29T08:51:42Z</time>
      </trkpt>
      <trkpt lat="45.45826" lon="4.61839">
        <ele>638</ele>
        <time>2014-11-29T08:51:45Z</time>
      </trkpt>
      <trkpt lat="45.45817" lon="4.61835">
        <ele>638</ele>
        <time>2014-11-29T08:51:48Z</time>
      </trkpt>
      <trkpt lat="45.45808" lon="4.61833">
        <ele>638</ele>
        <time>2014-11-29T08:51:51Z</time>
      </trkpt>
      <trkpt lat="45.458" lon="4.61829">
        <ele>638</ele>
        <time>2014-11-29T08:51:54Z</time>
      </trkpt>
      <trkpt lat="45.45791" lon="4.61827">
        <ele>638</ele>
        <time>2014-11-29T08:51:57Z</time>
      </trkpt>
      <trkpt lat="45.45781" lon="4.61824">
        <ele>638</ele>
        <time>2014-11-29T08:52:00Z</time>
      </trkpt>
      <trkpt lat="45.45773" lon="4.61819">
        <ele>638</ele>
        <time>2014-11-29T08:52:03Z</time>
      </trkpt>
      <trkpt lat="45.45764" lon="4.61814">
        <ele>638</ele>
        <time>2014-11-29T08:52:06Z</time>
      </trkpt>
      <trkpt lat="45.45754" lon="4.61813">
        <ele>638</ele>
        <time>2014-11-29T08:52:09Z</time>
      </trkpt>
      <trkpt lat="45.45745" lon="4.61808">
        <ele>637</ele>
        <time>2014-11-29T08:52:12Z</time>
      </trkpt>
      <trkpt lat="45.45736" lon="4.61803">
        <ele>637</ele>
        <time>2014-11-29T08:52:15Z</time>
      </trkpt>
      <trkpt lat="45.45727" lon="4.61798">
        <ele>637</ele>
        <time>2014-11-29T08:52:18Z</time>
      </trkpt>
      <trkpt lat="45.4572" lon="4.61791">
        <ele>636</ele>
        <time>2014-11-29T08:52:21Z</time>
      </trkpt>
      <trkpt lat="45.45713" lon="4.61786">
        <ele>635</ele>
        <time>2014-11-29T08:52:24Z</time>
      </trkpt>
      <trkpt lat="45.45704" lon="4.61782">
        <ele>635</ele>
        <time>2014-11-29T08:52:27Z</time>
      </trkpt>
      <trkpt lat="45.45697" lon="4.61778">
        <ele>634</ele>
        <time>2014-11-29T08:52:30Z</time>
      </trkpt>
      <trkpt lat="45.45689" lon="4.61774">
        <ele>634</ele>
        <time>2014-11-29T08:52:33Z</time>
      </trkpt>
      <trkpt lat="45.45681" lon="4.6177">
        <ele>633</ele>
        <time>2014-11-29T08:52:36Z</time>
      </trkpt>
      <trkpt lat="45.45673" lon="4.61764">
        <ele>632</ele>
        <time>2014-11-29T08:52:39Z</time>
      </trkpt>
      <trkpt lat="45.45665" lon="4.61758">
        <ele>631</ele>
        <time>2014-11-29T08:52:42Z</time>
      </trkpt>
      <trkpt lat="45.45659" lon="4.61748">
        <ele>629</ele>
        <time>2014-11-29T08:52:45Z</time>
      </trkpt>
      <trkpt lat="45.45652" lon="4.61738">
        <ele>628</ele>
        <time>2014-11-29T08:52:48Z</time>
      </trkpt>
      <trkpt lat="45.45644" lon="4.61732">
        <ele>628</ele>
        <time>2014-11-29T08:52:51Z</time>
      </trkpt>
      <trkpt lat="45.45636" lon="4.61727">
        <ele>628</ele>
        <time>2014-11-29T08:52:54Z</time>
      </trkpt>
      <trkpt lat="45.45628" lon="4.61723">
        <ele>627</ele>
        <time>2014-11-29T08:52:57Z</time>
      </trkpt>
      <trkpt lat="45.45619" lon="4.61718">
        <ele>626</ele>
        <time>2014-11-29T08:53:00Z</time>
      </trkpt>
      <trkpt lat="45.4561" lon="4.61716">
        <ele>625</ele>
        <time>2014-11-29T08:53:03Z</time>
      </trkpt>
      <trkpt lat="45.45602" lon="4.6171">
        <ele>624</ele>
        <time>2014-11-29T08:53:06Z</time>
      </trkpt>
      <trkpt lat="45.45594" lon="4.61704">
        <ele>623</ele>
        <time>2014-11-29T08:53:09Z</time>
      </trkpt>
      <trkpt lat="45.45587" lon="4.61697">
        <ele>621</ele>
        <time>2014-11-29T08:53:12Z</time>
      </trkpt>
      <trkpt lat="45.45582" lon="4.61687">
        <ele>619</ele>
        <time>2014-11-29T08:53:15Z</time>
      </trkpt>
      <trkpt lat="45.45577" lon="4.61675">
        <ele>616</ele>
        <time>2014-11-29T08:53:18Z</time>
      </trkpt>
      <trkpt lat="45.45573" lon="4.61662">
        <ele>614</ele>
        <time>2014-11-29T08:53:21Z</time>
      </trkpt>
      <trkpt lat="45.45572" lon="4.61649">
        <ele>612</ele>
        <time>2014-11-29T08:53:24Z</time>
      </trkpt>
      <trkpt lat="45.4557" lon="4.61636">
        <ele>610</ele>
        <time>2014-11-29T08:53:27Z</time>
      </trkpt>
      <trkpt lat="45.45567" lon="4.61623">
        <ele>609</ele>
        <time>2014-11-29T08:53:30Z</time>
      </trkpt>
      <trkpt lat="45.45567" lon="4.61611">
        <ele>608</ele>
        <time>2014-11-29T08:53:33Z</time>
      </trkpt>
      <trkpt lat="45.45566" lon="4.61599">
        <ele>607</ele>
        <time>2014-11-29T08:53:36Z</time>
      </trkpt>
      <trkpt lat="45.45565" lon="4.61586">
        <ele>606</ele>
        <time>2014-11-29T08:53:39Z</time>
      </trkpt>
      <trkpt lat="45.45565" lon="4.61573">
        <ele>606</ele>
        <time>2014-11-29T08:53:42Z</time>
      </trkpt>
      <trkpt lat="45.45564" lon="4.6156">
        <ele>605</ele>
        <time>2014-11-29T08:53:45Z</time>
      </trkpt>
      <trkpt lat="45.45568" lon="4.6155">
        <ele>604</ele>
        <time>2014-11-29T08:53:48Z</time>
      </trkpt>
      <trkpt lat="45.45577" lon="4.61546">
        <ele>604</ele>
        <time>2014-11-29T08:53:51Z</time>
      </trkpt>
      <trkpt lat="45.45587" lon="4.61547">
        <ele>603</ele>
        <time>2014-11-29T08:53:54Z</time>
      </trkpt>
      <trkpt lat="45.45595" lon="4.61547">
        <ele>601</ele>
        <time>2014-11-29T08:53:57Z</time>
      </trkpt>
      <trkpt lat="45.45603" lon="4.61551">
        <ele>600</ele>
        <time>2014-11-29T08:54:00Z</time>
      </trkpt>
      <trkpt lat="45.45612" lon="4.61554">
        <ele>599</ele>
        <time>2014-11-29T08:54:03Z</time>
      </trkpt>
      <trkpt lat="45.45621" lon="4.61556">
        <ele>599</ele>
        <time>2014-11-29T08:54:06Z</time>
      </trkpt>
      <trkpt lat="45.45629" lon="4.61558">
        <ele>598</ele>
        <time>2014-11-29T08:54:09Z</time>
      </trkpt>
      <trkpt lat="45.45636" lon="4.6156">
        <ele>598</ele>
        <time>2014-11-29T08:54:12Z</time>
      </trkpt>
      <trkpt lat="45.45645" lon="4.61564">
        <ele>597</ele>
        <time>2014-11-29T08:54:15Z</time>
      </trkpt>
      <trkpt lat="45.45654" lon="4.61568">
        <ele>597</ele>
        <time>2014-11-29T08:54:18Z</time>
      </trkpt>
      <trkpt lat="45.45661" lon="4.61573">
        <ele>596</ele>
        <time>2014-11-29T08:54:21Z</time>
      </trkpt>
      <trkpt lat="45.45669" lon="4.61577">
        <ele>596</ele>
        <time>2014-11-29T08:54:24Z</time>
      </trkpt>
      <trkpt lat="45.45677" lon="4.61582">
        <ele>596</ele>
        <time>2014-11-29T08:54:27Z</time>
      </trkpt>
      <trkpt lat="45.45685" lon="4.61586">
        <ele>595</ele>
        <time>2014-11-29T08:54:30Z</time>
      </trkpt>
      <trkpt lat="45.45693" lon="4.61591">
        <ele>595</ele>
        <time>2014-11-29T08:54:33Z</time>
      </trkpt>
      <trkpt lat="45.45701" lon="4.61595">
        <ele>594</ele>
        <time>2014-11-29T08:54:36Z</time>
      </trkpt>
      <trkpt lat="45.45708" lon="4.616">
        <ele>594</ele>
        <time>2014-11-29T08:54:39Z</time>
      </trkpt>
      <trkpt lat="45.45715" lon="4.61606">
        <ele>594</ele>
        <time>2014-11-29T08:54:42Z</time>
      </trkpt>
      <trkpt lat="45.45721" lon="4.61613">
        <ele>594</ele>
        <time>2014-11-29T08:54:45Z</time>
      </trkpt>
      <trkpt lat="45.45727" lon="4.61621">
        <ele>593</ele>
        <time>2014-11-29T08:54:48Z</time>
      </trkpt>
      <trkpt lat="45.45733" lon="4.61628">
        <ele>592</ele>
        <time>2014-11-29T08:54:51Z</time>
      </trkpt>
      <trkpt lat="45.45739" lon="4.61635">
        <ele>592</ele>
        <time>2014-11-29T08:54:54Z</time>
      </trkpt>
      <trkpt lat="45.45746" lon="4.61643">
        <ele>591</ele>
        <time>2014-11-29T08:54:57Z</time>
      </trkpt>
      <trkpt lat="45.45751" lon="4.61648">
        <ele>590</ele>
        <time>2014-11-29T08:55:00Z</time>
      </trkpt>
      <trkpt lat="45.45758" lon="4.61648">
        <ele>590</ele>
        <time>2014-11-29T08:55:03Z</time>
      </trkpt>
      <trkpt lat="45.45765" lon="4.61642">
        <ele>590</ele>
        <time>2014-11-29T08:55:06Z</time>
      </trkpt>
      <trkpt lat="45.45773" lon="4.61637">
        <ele>590</ele>
        <time>2014-11-29T08:55:09Z</time>
      </trkpt>
      <trkpt lat="45.45779" lon="4.61629">
        <ele>590</ele>
        <time>2014-11-29T08:55:12Z</time>
      </trkpt>
      <trkpt lat="45.45786" lon="4.61624">
        <ele>590</ele>
        <time>2014-11-29T08:55:15Z</time>
      </trkpt>
      <trkpt lat="45.45795" lon="4.6162">
        <ele>590</ele>
        <time>2014-11-29T08:55:18Z</time>
      </trkpt>
      <trkpt lat="45.45803" lon="4.61619">
        <ele>590</ele>
        <time>2014-11-29T08:55:21Z</time>
      </trkpt>
      <trkpt lat="45.4581" lon="4.6162">
        <ele>590</ele>
        <time>2014-11-29T08:55:24Z</time>
      </trkpt>
      <trkpt lat="45.45816" lon="4.61623">
        <ele>590</ele>
        <time>2014-11-29T08:55:27Z</time>
      </trkpt>
      <trkpt lat="45.45824" lon="4.61626">
        <ele>590</ele>
        <time>2014-11-29T08:55:30Z</time>
      </trkpt>
      <trkpt lat="45.45834" lon="4.61628">
        <ele>590</ele>
        <time>2014-11-29T08:55:34Z</time>
      </trkpt>
      <trkpt lat="45.45844" lon="4.6163">
        <ele>590</ele>
        <time>2014-11-29T08:55:37Z</time>
      </trkpt>
      <trkpt lat="45.45853" lon="4.61631">
        <ele>590</ele>
        <time>2014-11-29T08:55:40Z</time>
      </trkpt>
      <trkpt lat="45.45864" lon="4.61633">
        <ele>590</ele>
        <time>2014-11-29T08:55:44Z</time>
      </trkpt>
      <trkpt lat="45.45872" lon="4.6163">
        <ele>590</ele>
        <time>2014-11-29T08:55:47Z</time>
      </trkpt>
      <trkpt lat="45.45878" lon="4.6162">
        <ele>590</ele>
        <time>2014-11-29T08:55:51Z</time>
      </trkpt>
      <trkpt lat="45.4588" lon="4.61609">
        <ele>590</ele>
        <time>2014-11-29T08:55:54Z</time>
      </trkpt>
      <trkpt lat="45.45882" lon="4.61599">
        <ele>590</ele>
        <time>2014-11-29T08:55:57Z</time>
      </trkpt>
      <trkpt lat="45.45883" lon="4.61592">
        <ele>590</ele>
        <time>2014-11-29T08:56:00Z</time>
      </trkpt>
      <trkpt lat="45.4588" lon="4.61581">
        <ele>592</ele>
        <time>2014-11-29T08:56:03Z</time>
      </trkpt>
      <trkpt lat="45.4588" lon="4.61569">
        <ele>593</ele>
        <time>2014-11-29T08:56:06Z</time>
      </trkpt>
      <trkpt lat="45.4588" lon="4.61555">
        <ele>596</ele>
        <time>2014-11-29T08:56:10Z</time>
      </trkpt>
      <trkpt lat="45.45881" lon="4.61548">
        <ele>597</ele>
        <time>2014-11-29T08:56:13Z</time>
      </trkpt>
      <trkpt lat="45.45881" lon="4.61539">
        <ele>597</ele>
        <time>2014-11-29T08:56:16Z</time>
      </trkpt>
      <trkpt lat="45.45882" lon="4.61541">
        <ele>597</ele>
        <time>2014-11-29T08:56:24Z</time>
      </trkpt>
      <trkpt lat="45.45882" lon="4.61542">
        <ele>597</ele>
        <time>2014-11-29T08:56:28Z</time>
      </trkpt>
      <trkpt lat="45.45881" lon="4.6154">
        <ele>597</ele>
        <time>2014-11-29T08:56:32Z</time>
      </trkpt>
      <trkpt lat="45.45882" lon="4.61529">
        <ele>597</ele>
        <time>2014-11-29T08:56:35Z</time>
      </trkpt>
      <trkpt lat="45.45882" lon="4.61516">
        <ele>597</ele>
        <time>2014-11-29T08:56:38Z</time>
      </trkpt>
      <trkpt lat="45.45883" lon="4.61498">
        <ele>597</ele>
        <time>2014-11-29T08:56:42Z</time>
      </trkpt>
      <trkpt lat="45.45884" lon="4.61485">
        <ele>597</ele>
        <time>2014-11-29T08:56:45Z</time>
      </trkpt>
      <trkpt lat="45.45885" lon="4.61472">
        <ele>597</ele>
        <time>2014-11-29T08:56:48Z</time>
      </trkpt>
      <trkpt lat="45.4588" lon="4.61456">
        <ele>597</ele>
        <time>2014-11-29T08:56:52Z</time>
      </trkpt>
      <trkpt lat="45.45875" lon="4.6145">
        <ele>596</ele>
        <time>2014-11-29T08:56:55Z</time>
      </trkpt>
      <trkpt lat="45.45868" lon="4.61443">
        <ele>593</ele>
        <time>2014-11-29T08:56:58Z</time>
      </trkpt>
      <trkpt lat="45.4586" lon="4.61438">
        <ele>590</ele>
        <time>2014-11-29T08:57:01Z</time>
      </trkpt>
      <trkpt lat="45.45853" lon="4.61433">
        <ele>589</ele>
        <time>2014-11-29T08:57:04Z</time>
      </trkpt>
      <trkpt lat="45.4584" lon="4.61429">
        <ele>588</ele>
        <time>2014-11-29T08:57:08Z</time>
      </trkpt>
      <trkpt lat="45.45831" lon="4.61424">
        <ele>587</ele>
        <time>2014-11-29T08:57:11Z</time>
      </trkpt>
      <trkpt lat="45.45823" lon="4.61415">
        <ele>587</ele>
        <time>2014-11-29T08:57:14Z</time>
      </trkpt>
      <trkpt lat="45.45816" lon="4.61407">
        <ele>586</ele>
        <time>2014-11-29T08:57:17Z</time>
      </trkpt>
      <trkpt lat="45.45807" lon="4.61396">
        <ele>586</ele>
        <time>2014-11-29T08:57:21Z</time>
      </trkpt>
      <trkpt lat="45.458" lon="4.61383">
        <ele>586</ele>
        <time>2014-11-29T08:57:25Z</time>
      </trkpt>
      <trkpt lat="45.45797" lon="4.61374">
        <ele>586</ele>
        <time>2014-11-29T08:57:28Z</time>
      </trkpt>
      <trkpt lat="45.45793" lon="4.61367">
        <ele>586</ele>
        <time>2014-11-29T08:57:31Z</time>
      </trkpt>
      <trkpt lat="45.45788" lon="4.61359">
        <ele>586</ele>
        <time>2014-11-29T08:57:35Z</time>
      </trkpt>
      <trkpt lat="45.45785" lon="4.61352">
        <ele>586</ele>
        <time>2014-11-29T08:57:38Z</time>
      </trkpt>
      <trkpt lat="45.45782" lon="4.61344">
        <ele>586</ele>
        <time>2014-11-29T08:57:41Z</time>
      </trkpt>
      <trkpt lat="45.45777" lon="4.61333">
        <ele>586</ele>
        <time>2014-11-29T08:57:45Z</time>
      </trkpt>
      <trkpt lat="45.45773" lon="4.61324">
        <ele>586</ele>
        <time>2014-11-29T08:57:48Z</time>
      </trkpt>
      <trkpt lat="45.45771" lon="4.61316">
        <ele>587</ele>
        <time>2014-11-29T08:57:51Z</time>
      </trkpt>
      <trkpt lat="45.45768" lon="4.61308">
        <ele>588</ele>
        <time>2014-11-29T08:57:54Z</time>
      </trkpt>
      <trkpt lat="45.45765" lon="4.61297">
        <ele>589</ele>
        <time>2014-11-29T08:57:58Z</time>
      </trkpt>
      <trkpt lat="45.45763" lon="4.61289">
        <ele>591</ele>
        <time>2014-11-29T08:58:01Z</time>
      </trkpt>
      <trkpt lat="45.45761" lon="4.61283">
        <ele>592</ele>
        <time>2014-11-29T08:58:04Z</time>
      </trkpt>
      <trkpt lat="45.4576" lon="4.61276">
        <ele>592</ele>
        <time>2014-11-29T08:58:07Z</time>
      </trkpt>
      <trkpt lat="45.45758" lon="4.61271">
        <ele>592</ele>
        <time>2014-11-29T08:58:11Z</time>
      </trkpt>
      <trkpt lat="45.45757" lon="4.61267">
        <ele>592</ele>
        <time>2014-11-29T08:58:15Z</time>
      </trkpt>
      <trkpt lat="45.45756" lon="4.61262">
        <ele>592</ele>
        <time>2014-11-29T08:58:19Z</time>
      </trkpt>
      <trkpt lat="45.45754" lon="4.61256">
        <ele>592</ele>
        <time>2014-11-29T08:58:23Z</time>
      </trkpt>
      <trkpt lat="45.45753" lon="4.61252">
        <ele>592</ele>
        <time>2014-11-29T08:58:26Z</time>
      </trkpt>
      <trkpt lat="45.45751" lon="4.61247">
        <ele>592</ele>
        <time>2014-11-29T08:58:29Z</time>
      </trkpt>
      <trkpt lat="45.45749" lon="4.61243">
        <ele>592</ele>
        <time>2014-11-29T08:58:32Z</time>
      </trkpt>
      <trkpt lat="45.45747" lon="4.61238">
        <ele>592</ele>
        <time>2014-11-29T08:58:35Z</time>
      </trkpt>
      <trkpt lat="45.45746" lon="4.61233">
        <ele>592</ele>
        <time>2014-11-29T08:58:39Z</time>
      </trkpt>
      <trkpt lat="45.45743" lon="4.61227">
        <ele>592</ele>
        <time>2014-11-29T08:58:42Z</time>
      </trkpt>
      <trkpt lat="45.45742" lon="4.61222">
        <ele>592</ele>
        <time>2014-11-29T08:58:45Z</time>
      </trkpt>
      <trkpt lat="45.45741" lon="4.61216">
        <ele>592</ele>
        <time>2014-11-29T08:58:48Z</time>
      </trkpt>
      <trkpt lat="45.45739" lon="4.61209">
        <ele>592</ele>
        <time>2014-11-29T08:58:52Z</time>
      </trkpt>
      <trkpt lat="45.45738" lon="4.61202">
        <ele>592</ele>
        <time>2014-11-29T08:58:55Z</time>
      </trkpt>
      <trkpt lat="45.45737" lon="4.61192">
        <ele>593</ele>
        <time>2014-11-29T08:58:58Z</time>
      </trkpt>
      <trkpt lat="45.45736" lon="4.6118">
        <ele>594</ele>
        <time>2014-11-29T08:59:01Z</time>
      </trkpt>
      <trkpt lat="45.45735" lon="4.6117">
        <ele>595</ele>
        <time>2014-11-29T08:59:04Z</time>
      </trkpt>
      <trkpt lat="45.45732" lon="4.61156">
        <ele>595</ele>
        <time>2014-11-29T08:59:08Z</time>
      </trkpt>
      <trkpt lat="45.4573" lon="4.61141">
        <ele>595</ele>
        <time>2014-11-29T08:59:12Z</time>
      </trkpt>
      <trkpt lat="45.45729" lon="4.61131">
        <ele>595</ele>
        <time>2014-11-29T08:59:15Z</time>
      </trkpt>
      <trkpt lat="45.45725" lon="4.61118">
        <ele>595</ele>
        <time>2014-11-29T08:59:19Z</time>
      </trkpt>
      <trkpt lat="45.45722" lon="4.61105">
        <ele>595</ele>
        <time>2014-11-29T08:59:23Z</time>
      </trkpt>
      <trkpt lat="45.45719" lon="4.61094">
        <ele>595</ele>
        <time>2014-11-29T08:59:26Z</time>
      </trkpt>
      <trkpt lat="45.45715" lon="4.61084">
        <ele>595</ele>
        <time>2014-11-29T08:59:29Z</time>
      </trkpt>
      <trkpt lat="45.45714" lon="4.61073">
        <ele>595</ele>
        <time>2014-11-29T08:59:32Z</time>
      </trkpt>
      <trkpt lat="45.45713" lon="4.61059">
        <ele>595</ele>
        <time>2014-11-29T08:59:36Z</time>
      </trkpt>
      <trkpt lat="45.45712" lon="4.61045">
        <ele>595</ele>
        <time>2014-11-29T08:59:40Z</time>
      </trkpt>
      <trkpt lat="45.45712" lon="4.61036">
        <ele>595</ele>
        <time>2014-11-29T08:59:43Z</time>
      </trkpt>
      <trkpt lat="45.45712" lon="4.61026">
        <ele>595</ele>
        <time>2014-11-29T08:59:46Z</time>
      </trkpt>
      <trkpt lat="45.4571" lon="4.61014">
        <ele>595</ele>
        <time>2014-11-29T08:59:50Z</time>
      </trkpt>
      <trkpt lat="45.4571" lon="4.61004">
        <ele>595</ele>
        <time>2014-11-29T08:59:53Z</time>
      </trkpt>
      <trkpt lat="45.45711" lon="4.60994">
        <ele>595</ele>
        <time>2014-11-29T08:59:56Z</time>
      </trkpt>
      <trkpt lat="45.45712" lon="4.60985">
        <ele>595</ele>
        <time>2014-11-29T08:59:59Z</time>
      </trkpt>
      <trkpt lat="45.45712" lon="4.60974">
        <ele>595</ele>
        <time>2014-11-29T09:00:02Z</time>
      </trkpt>
      <trkpt lat="45.45709" lon="4.6096">
        <ele>595</ele>
        <time>2014-11-29T09:00:06Z</time>
      </trkpt>
      <trkpt lat="45.45708" lon="4.60951">
        <ele>595</ele>
        <time>2014-11-29T09:00:09Z</time>
      </trkpt>
      <trkpt lat="45.45706" lon="4.60942">
        <ele>595</ele>
        <time>2014-11-29T09:00:12Z</time>
      </trkpt>
      <trkpt lat="45.45702" lon="4.6093">
        <ele>595</ele>
        <time>2014-11-29T09:00:16Z</time>
      </trkpt>
      <trkpt lat="45.45699" lon="4.60921">
        <ele>595</ele>
        <time>2014-11-29T09:00:19Z</time>
      </trkpt>
      <trkpt lat="45.45694" lon="4.60912">
        <ele>595</ele>
        <time>2014-11-29T09:00:22Z</time>
      </trkpt>
      <trkpt lat="45.45691" lon="4.60901">
        <ele>595</ele>
        <time>2014-11-29T09:00:26Z</time>
      </trkpt>
      <trkpt lat="45.45688" lon="4.60893">
        <ele>595</ele>
        <time>2014-11-29T09:00:29Z</time>
      </trkpt>
      <trkpt lat="45.45686" lon="4.60884">
        <ele>595</ele>
        <time>2014-11-29T09:00:32Z</time>
      </trkpt>
      <trkpt lat="45.45682" lon="4.60873">
        <ele>595</ele>
        <time>2014-11-29T09:00:36Z</time>
      </trkpt>
      <trkpt lat="45.45679" lon="4.60863">
        <ele>595</ele>
        <time>2014-11-29T09:00:39Z</time>
      </trkpt>
      <trkpt lat="45.45676" lon="4.60854">
        <ele>595</ele>
        <time>2014-11-29T09:00:42Z</time>
      </trkpt>
      <trkpt lat="45.45674" lon="4.60842">
        <ele>595</ele>
        <time>2014-11-29T09:00:46Z</time>
      </trkpt>
      <trkpt lat="45.45671" lon="4.60833">
        <ele>595</ele>
        <time>2014-11-29T09:00:49Z</time>
      </trkpt>
      <trkpt lat="45.45669" lon="4.60823">
        <ele>595</ele>
        <time>2014-11-29T09:00:52Z</time>
      </trkpt>
      <trkpt lat="45.45668" lon="4.60811">
        <ele>595</ele>
        <time>2014-11-29T09:00:56Z</time>
      </trkpt>
      <trkpt lat="45.45665" lon="4.60801">
        <ele>595</ele>
        <time>2014-11-29T09:00:59Z</time>
      </trkpt>
      <trkpt lat="45.45664" lon="4.60791">
        <ele>595</ele>
        <time>2014-11-29T09:01:02Z</time>
      </trkpt>
      <trkpt lat="45.45663" lon="4.60782">
        <ele>595</ele>
        <time>2014-11-29T09:01:05Z</time>
      </trkpt>
      <trkpt lat="45.45661" lon="4.60774">
        <ele>595</ele>
        <time>2014-11-29T09:01:08Z</time>
      </trkpt>
      <trkpt lat="45.4566" lon="4.60762">
        <ele>595</ele>
        <time>2014-11-29T09:01:12Z</time>
      </trkpt>
      <trkpt lat="45.45659" lon="4.60753">
        <ele>595</ele>
        <time>2014-11-29T09:01:15Z</time>
      </trkpt>
      <trkpt lat="45.45657" lon="4.60744">
        <ele>595</ele>
        <time>2014-11-29T09:01:18Z</time>
      </trkpt>
      <trkpt lat="45.45655" lon="4.60732">
        <ele>595</ele>
        <time>2014-11-29T09:01:22Z</time>
      </trkpt>
      <trkpt lat="45.45653" lon="4.60723">
        <ele>596</ele>
        <time>2014-11-29T09:01:25Z</time>
      </trkpt>
      <trkpt lat="45.45652" lon="4.60713">
        <ele>597</ele>
        <time>2014-11-29T09:01:28Z</time>
      </trkpt>
      <trkpt lat="45.4565" lon="4.60703">
        <ele>598</ele>
        <time>2014-11-29T09:01:31Z</time>
      </trkpt>
      <trkpt lat="45.45649" lon="4.60693">
        <ele>598</ele>
        <time>2014-11-29T09:01:34Z</time>
      </trkpt>
      <trkpt lat="45.45647" lon="4.60682">
        <ele>598</ele>
        <time>2014-11-29T09:01:38Z</time>
      </trkpt>
      <trkpt lat="45.45646" lon="4.60672">
        <ele>598</ele>
        <time>2014-11-29T09:01:41Z</time>
      </trkpt>
      <trkpt lat="45.45644" lon="4.60662">
        <ele>598</ele>
        <time>2014-11-29T09:01:44Z</time>
      </trkpt>
      <trkpt lat="45.45642" lon="4.60648">
        <ele>598</ele>
        <time>2014-11-29T09:01:48Z</time>
      </trkpt>
      <trkpt lat="45.45641" lon="4.60638">
        <ele>598</ele>
        <time>2014-11-29T09:01:51Z</time>
      </trkpt>
      <trkpt lat="45.45639" lon="4.60627">
        <ele>598</ele>
        <time>2014-11-29T09:01:54Z</time>
      </trkpt>
      <trkpt lat="45.45638" lon="4.60612">
        <ele>598</ele>
        <time>2014-11-29T09:01:58Z</time>
      </trkpt>
      <trkpt lat="45.45637" lon="4.60601">
        <ele>598</ele>
        <time>2014-11-29T09:02:01Z</time>
      </trkpt>
      <trkpt lat="45.45636" lon="4.60589">
        <ele>598</ele>
        <time>2014-11-29T09:02:04Z</time>
      </trkpt>
      <trkpt lat="45.45636" lon="4.60574">
        <ele>598</ele>
        <time>2014-11-29T09:02:08Z</time>
      </trkpt>
      <trkpt lat="45.45636" lon="4.60563">
        <ele>598</ele>
        <time>2014-11-29T09:02:11Z</time>
      </trkpt>
      <trkpt lat="45.45635" lon="4.60551">
        <ele>598</ele>
        <time>2014-11-29T09:02:14Z</time>
      </trkpt>
      <trkpt lat="45.45635" lon="4.60535">
        <ele>598</ele>
        <time>2014-11-29T09:02:18Z</time>
      </trkpt>
      <trkpt lat="45.45638" lon="4.6052">
        <ele>598</ele>
        <time>2014-11-29T09:02:22Z</time>
      </trkpt>
      <trkpt lat="45.4564" lon="4.60509">
        <ele>598</ele>
        <time>2014-11-29T09:02:25Z</time>
      </trkpt>
      <trkpt lat="45.45642" lon="4.60497">
        <ele>598</ele>
        <time>2014-11-29T09:02:28Z</time>
      </trkpt>
      <trkpt lat="45.45644" lon="4.60485">
        <ele>598</ele>
        <time>2014-11-29T09:02:31Z</time>
      </trkpt>
      <trkpt lat="45.45646" lon="4.60473">
        <ele>598</ele>
        <time>2014-11-29T09:02:34Z</time>
      </trkpt>
      <trkpt lat="45.45649" lon="4.60461">
        <ele>597</ele>
        <time>2014-11-29T09:02:37Z</time>
      </trkpt>
      <trkpt lat="45.45652" lon="4.60449">
        <ele>596</ele>
        <time>2014-11-29T09:02:40Z</time>
      </trkpt>
      <trkpt lat="45.45655" lon="4.60433">
        <ele>594</ele>
        <time>2014-11-29T09:02:44Z</time>
      </trkpt>
      <trkpt lat="45.45659" lon="4.60422">
        <ele>592</ele>
        <time>2014-11-29T09:02:47Z</time>
      </trkpt>
      <trkpt lat="45.45662" lon="4.6041">
        <ele>591</ele>
        <time>2014-11-29T09:02:50Z</time>
      </trkpt>
      <trkpt lat="45.45666" lon="4.60395">
        <ele>589</ele>
        <time>2014-11-29T09:02:54Z</time>
      </trkpt>
      <trkpt lat="45.45671" lon="4.6038">
        <ele>587</ele>
        <time>2014-11-29T09:02:58Z</time>
      </trkpt>
      <trkpt lat="45.45675" lon="4.60371">
        <ele>586</ele>
        <time>2014-11-29T09:03:01Z</time>
      </trkpt>
      <trkpt lat="45.4568" lon="4.60363">
        <ele>585</ele>
        <time>2014-11-29T09:03:04Z</time>
      </trkpt>
      <trkpt lat="45.45684" lon="4.60352">
        <ele>584</ele>
        <time>2014-11-29T09:03:07Z</time>
      </trkpt>
      <trkpt lat="45.45687" lon="4.60339">
        <ele>583</ele>
        <time>2014-11-29T09:03:10Z</time>
      </trkpt>
      <trkpt lat="45.45692" lon="4.60324">
        <ele>582</ele>
        <time>2014-11-29T09:03:14Z</time>
      </trkpt>
      <trkpt lat="45.45696" lon="4.60312">
        <ele>581</ele>
        <time>2014-11-29T09:03:17Z</time>
      </trkpt>
      <trkpt lat="45.45703" lon="4.60302">
        <ele>581</ele>
        <time>2014-11-29T09:03:20Z</time>
      </trkpt>
      <trkpt lat="45.45713" lon="4.60291">
        <ele>580</ele>
        <time>2014-11-29T09:03:24Z</time>
      </trkpt>
      <trkpt lat="45.45721" lon="4.60285">
        <ele>579</ele>
        <time>2014-11-29T09:03:27Z</time>
      </trkpt>
      <trkpt lat="45.4573" lon="4.60281">
        <ele>578</ele>
        <time>2014-11-29T09:03:30Z</time>
      </trkpt>
      <trkpt lat="45.45742" lon="4.60276">
        <ele>578</ele>
        <time>2014-11-29T09:03:34Z</time>
      </trkpt>
      <trkpt lat="45.4575" lon="4.60273">
        <ele>577</ele>
        <time>2014-11-29T09:03:37Z</time>
      </trkpt>
      <trkpt lat="45.45759" lon="4.6027">
        <ele>576</ele>
        <time>2014-11-29T09:03:40Z</time>
      </trkpt>
      <trkpt lat="45.45768" lon="4.60266">
        <ele>575</ele>
        <time>2014-11-29T09:03:43Z</time>
      </trkpt>
      <trkpt lat="45.45776" lon="4.60264">
        <ele>574</ele>
        <time>2014-11-29T09:03:46Z</time>
      </trkpt>
      <trkpt lat="45.45785" lon="4.60261">
        <ele>573</ele>
        <time>2014-11-29T09:03:49Z</time>
      </trkpt>
      <trkpt lat="45.45794" lon="4.6026">
        <ele>572</ele>
        <time>2014-11-29T09:03:52Z</time>
      </trkpt>
      <trkpt lat="45.45803" lon="4.60264">
        <ele>571</ele>
        <time>2014-11-29T09:03:55Z</time>
      </trkpt>
      <trkpt lat="45.45812" lon="4.60272">
        <ele>569</ele>
        <time>2014-11-29T09:03:58Z</time>
      </trkpt>
      <trkpt lat="45.4582" lon="4.60282">
        <ele>568</ele>
        <time>2014-11-29T09:04:02Z</time>
      </trkpt>
      <trkpt lat="45.45825" lon="4.60291">
        <ele>568</ele>
        <time>2014-11-29T09:04:05Z</time>
      </trkpt>
      <trkpt lat="45.45831" lon="4.60299">
        <ele>567</ele>
        <time>2014-11-29T09:04:08Z</time>
      </trkpt>
      <trkpt lat="45.45837" lon="4.60308">
        <ele>567</ele>
        <time>2014-11-29T09:04:11Z</time>
      </trkpt>
      <trkpt lat="45.45844" lon="4.60319">
        <ele>567</ele>
        <time>2014-11-29T09:04:15Z</time>
      </trkpt>
      <trkpt lat="45.4585" lon="4.60328">
        <ele>567</ele>
        <time>2014-11-29T09:04:18Z</time>
      </trkpt>
      <trkpt lat="45.45855" lon="4.60336">
        <ele>567</ele>
        <time>2014-11-29T09:04:21Z</time>
      </trkpt>
      <trkpt lat="45.45861" lon="4.60344">
        <ele>567</ele>
        <time>2014-11-29T09:04:24Z</time>
      </trkpt>
      <trkpt lat="45.45867" lon="4.60351">
        <ele>567</ele>
        <time>2014-11-29T09:04:27Z</time>
      </trkpt>
      <trkpt lat="45.45874" lon="4.60355">
        <ele>567</ele>
        <time>2014-11-29T09:04:30Z</time>
      </trkpt>
      <trkpt lat="45.45882" lon="4.60355">
        <ele>567</ele>
        <time>2014-11-29T09:04:33Z</time>
      </trkpt>
      <trkpt lat="45.45888" lon="4.60351">
        <ele>567</ele>
        <time>2014-11-29T09:04:36Z</time>
      </trkpt>
      <trkpt lat="45.45895" lon="4.60346">
        <ele>567</ele>
        <time>2014-11-29T09:04:39Z</time>
      </trkpt>
      <trkpt lat="45.45901" lon="4.6034">
        <ele>567</ele>
        <time>2014-11-29T09:04:42Z</time>
      </trkpt>
      <trkpt lat="45.45908" lon="4.60335">
        <ele>567</ele>
        <time>2014-11-29T09:04:45Z</time>
      </trkpt>
      <trkpt lat="45.45913" lon="4.60329">
        <ele>567</ele>
        <time>2014-11-29T09:04:48Z</time>
      </trkpt>
      <trkpt lat="45.45917" lon="4.60326">
        <ele>567</ele>
        <time>2014-11-29T09:04:51Z</time>
      </trkpt>
      <trkpt lat="45.45921" lon="4.60321">
        <ele>567</ele>
        <time>2014-11-29T09:04:55Z</time>
      </trkpt>
      <trkpt lat="45.45924" lon="4.60317">
        <ele>567</ele>
        <time>2014-11-29T09:04:58Z</time>
      </trkpt>
      <trkpt lat="45.45929" lon="4.60311">
        <ele>566</ele>
        <time>2014-11-29T09:05:01Z</time>
      </trkpt>
      <trkpt lat="45.45936" lon="4.60306">
        <ele>566</ele>
        <time>2014-11-29T09:05:04Z</time>
      </trkpt>
      <trkpt lat="45.45943" lon="4.60301">
        <ele>565</ele>
        <time>2014-11-29T09:05:07Z</time>
      </trkpt>
      <trkpt lat="45.4595" lon="4.60296">
        <ele>565</ele>
        <time>2014-11-29T09:05:10Z</time>
      </trkpt>
      <trkpt lat="45.45957" lon="4.60293">
        <ele>565</ele>
        <time>2014-11-29T09:05:13Z</time>
      </trkpt>
      <trkpt lat="45.45964" lon="4.60291">
        <ele>565</ele>
        <time>2014-11-29T09:05:16Z</time>
      </trkpt>
      <trkpt lat="45.45972" lon="4.60291">
        <ele>565</ele>
        <time>2014-11-29T09:05:19Z</time>
      </trkpt>
      <trkpt lat="45.45979" lon="4.60291">
        <ele>565</ele>
        <time>2014-11-29T09:05:22Z</time>
      </trkpt>
      <trkpt lat="45.45988" lon="4.60288">
        <ele>565</ele>
        <time>2014-11-29T09:05:26Z</time>
      </trkpt>
      <trkpt lat="45.45995" lon="4.60285">
        <ele>564</ele>
        <time>2014-11-29T09:05:29Z</time>
      </trkpt>
      <trkpt lat="45.46002" lon="4.6028">
        <ele>563</ele>
        <time>2014-11-29T09:05:32Z</time>
      </trkpt>
      <trkpt lat="45.4601" lon="4.60273">
        <ele>563</ele>
        <time>2014-11-29T09:05:35Z</time>
      </trkpt>
      <trkpt lat="45.46016" lon="4.60265">
        <ele>562</ele>
        <time>2014-11-29T09:05:38Z</time>
      </trkpt>
      <trkpt lat="45.46022" lon="4.60259">
        <ele>562</ele>
        <time>2014-11-29T09:05:41Z</time>
      </trkpt>
      <trkpt lat="45.46028" lon="4.60253">
        <ele>562</ele>
        <time>2014-11-29T09:05:44Z</time>
      </trkpt>
      <trkpt lat="45.46033" lon="4.60246">
        <ele>562</ele>
        <time>2014-11-29T09:05:47Z</time>
      </trkpt>
      <trkpt lat="45.4604" lon="4.6024">
        <ele>562</ele>
        <time>2014-11-29T09:05:50Z</time>
      </trkpt>
      <trkpt lat="45.46046" lon="4.60233">
        <ele>562</ele>
        <time>2014-11-29T09:05:53Z</time>
      </trkpt>
      <trkpt lat="45.46051" lon="4.60227">
        <ele>562</ele>
        <time>2014-11-29T09:05:56Z</time>
      </trkpt>
      <trkpt lat="45.46057" lon="4.6022">
        <ele>562</ele>
        <time>2014-11-29T09:05:59Z</time>
      </trkpt>
      <trkpt lat="45.46064" lon="4.60214">
        <ele>562</ele>
        <time>2014-11-29T09:06:02Z</time>
      </trkpt>
      <trkpt lat="45.46071" lon="4.60207">
        <ele>562</ele>
        <time>2014-11-29T09:06:05Z</time>
      </trkpt>
      <trkpt lat="45.46078" lon="4.60201">
        <ele>562</ele>
        <time>2014-11-29T09:06:08Z</time>
      </trkpt>
      <trkpt lat="45.46085" lon="4.60194">
        <ele>562</ele>
        <time>2014-11-29T09:06:11Z</time>
      </trkpt>
      <trkpt lat="45.46091" lon="4.60187">
        <ele>562</ele>
        <time>2014-11-29T09:06:14Z</time>
      </trkpt>
      <trkpt lat="45.46097" lon="4.60179">
        <ele>562</ele>
        <time>2014-11-29T09:06:17Z</time>
      </trkpt>
      <trkpt lat="45.46101" lon="4.60169">
        <ele>561</ele>
        <time>2014-11-29T09:06:20Z</time>
      </trkpt>
      <trkpt lat="45.46101" lon="4.60157">
        <ele>560</ele>
        <time>2014-11-29T09:06:23Z</time>
      </trkpt>
      <trkpt lat="45.46096" lon="4.60148">
        <ele>559</ele>
        <time>2014-11-29T09:06:26Z</time>
      </trkpt>
      <trkpt lat="45.4609" lon="4.60143">
        <ele>558</ele>
        <time>2014-11-29T09:06:29Z</time>
      </trkpt>
      <trkpt lat="45.46083" lon="4.6014">
        <ele>557</ele>
        <time>2014-11-29T09:06:32Z</time>
      </trkpt>
      <trkpt lat="45.46077" lon="4.60134">
        <ele>556</ele>
        <time>2014-11-29T09:06:35Z</time>
      </trkpt>
      <trkpt lat="45.4607" lon="4.60131">
        <ele>556</ele>
        <time>2014-11-29T09:06:38Z</time>
      </trkpt>
      <trkpt lat="45.46062" lon="4.60128">
        <ele>556</ele>
        <time>2014-11-29T09:06:41Z</time>
      </trkpt>
      <trkpt lat="45.46052" lon="4.60123">
        <ele>555</ele>
        <time>2014-11-29T09:06:45Z</time>
      </trkpt>
      <trkpt lat="45.46046" lon="4.60117">
        <ele>555</ele>
        <time>2014-11-29T09:06:48Z</time>
      </trkpt>
      <trkpt lat="45.4604" lon="4.6011">
        <ele>554</ele>
        <time>2014-11-29T09:06:51Z</time>
      </trkpt>
      <trkpt lat="45.46035" lon="4.60103">
        <ele>554</ele>
        <time>2014-11-29T09:06:54Z</time>
      </trkpt>
      <trkpt lat="45.46031" lon="4.60094">
        <ele>554</ele>
        <time>2014-11-29T09:06:57Z</time>
      </trkpt>
      <trkpt lat="45.46027" lon="4.60085">
        <ele>554</ele>
        <time>2014-11-29T09:07:00Z</time>
      </trkpt>
      <trkpt lat="45.46024" lon="4.60075">
        <ele>553</ele>
        <time>2014-11-29T09:07:03Z</time>
      </trkpt>
      <trkpt lat="45.4602" lon="4.60066">
        <ele>553</ele>
        <time>2014-11-29T09:07:06Z</time>
      </trkpt>
      <trkpt lat="45.46016" lon="4.60057">
        <ele>552</ele>
        <time>2014-11-29T09:07:09Z</time>
      </trkpt>
      <trkpt lat="45.46014" lon="4.60048">
        <ele>552</ele>
        <time>2014-11-29T09:07:12Z</time>
      </trkpt>
      <trkpt lat="45.4601" lon="4.60038">
        <ele>552</ele>
        <time>2014-11-29T09:07:15Z</time>
      </trkpt>
      <trkpt lat="45.46006" lon="4.60028">
        <ele>552</ele>
        <time>2014-11-29T09:07:18Z</time>
      </trkpt>
      <trkpt lat="45.46003" lon="4.60017">
        <ele>552</ele>
        <time>2014-11-29T09:07:21Z</time>
      </trkpt>
      <trkpt lat="45.46001" lon="4.60007">
        <ele>552</ele>
        <time>2014-11-29T09:07:24Z</time>
      </trkpt>
      <trkpt lat="45.45998" lon="4.59996">
        <ele>552</ele>
        <time>2014-11-29T09:07:27Z</time>
      </trkpt>
      <trkpt lat="45.45995" lon="4.59987">
        <ele>551</ele>
        <time>2014-11-29T09:07:30Z</time>
      </trkpt>
      <trkpt lat="45.45991" lon="4.59978">
        <ele>550</ele>
        <time>2014-11-29T09:07:33Z</time>
      </trkpt>
      <trkpt lat="45.45988" lon="4.59968">
        <ele>549</ele>
        <time>2014-11-29T09:07:36Z</time>
      </trkpt>
      <trkpt lat="45.45984" lon="4.59958">
        <ele>549</ele>
        <time>2014-11-29T09:07:39Z</time>
      </trkpt>
      <trkpt lat="45.45979" lon="4.59947">
        <ele>549</ele>
        <time>2014-11-29T09:07:42Z</time>
      </trkpt>
      <trkpt lat="45.45977" lon="4.59937">
        <ele>549</ele>
        <time>2014-11-29T09:07:45Z</time>
      </trkpt>
      <trkpt lat="45.45974" lon="4.59926">
        <ele>549</ele>
        <time>2014-11-29T09:07:48Z</time>
      </trkpt>
      <trkpt lat="45.45972" lon="4.59916">
        <ele>549</ele>
        <time>2014-11-29T09:07:51Z</time>
      </trkpt>
      <trkpt lat="45.4597" lon="4.59905">
        <ele>549</ele>
        <time>2014-11-29T09:07:54Z</time>
      </trkpt>
      <trkpt lat="45.45967" lon="4.59895">
        <ele>549</ele>
        <time>2014-11-29T09:07:57Z</time>
      </trkpt>
      <trkpt lat="45.45964" lon="4.59885">
        <ele>549</ele>
        <time>2014-11-29T09:08:00Z</time>
      </trkpt>
      <trkpt lat="45.45962" lon="4.59873">
        <ele>549</ele>
        <time>2014-11-29T09:08:04Z</time>
      </trkpt>
      <trkpt lat="45.45958" lon="4.5986">
        <ele>548</ele>
        <time>2014-11-29T09:08:07Z</time>
      </trkpt>
      <trkpt lat="45.45954" lon="4.59851">
        <ele>548</ele>
        <time>2014-11-29T09:08:10Z</time>
      </trkpt>
      <trkpt lat="45.4595" lon="4.59842">
        <ele>548</ele>
        <time>2014-11-29T09:08:13Z</time>
      </trkpt>
      <trkpt lat="45.45946" lon="4.59832">
        <ele>548</ele>
        <time>2014-11-29T09:08:16Z</time>
      </trkpt>
      <trkpt lat="45.45942" lon="4.59823">
        <ele>548</ele>
        <time>2014-11-29T09:08:19Z</time>
      </trkpt>
      <trkpt lat="45.45937" lon="4.59815">
        <ele>548</ele>
        <time>2014-11-29T09:08:22Z</time>
      </trkpt>
      <trkpt lat="45.45932" lon="4.59806">
        <ele>547</ele>
        <time>2014-11-29T09:08:25Z</time>
      </trkpt>
      <trkpt lat="45.45928" lon="4.59797">
        <ele>547</ele>
        <time>2014-11-29T09:08:28Z</time>
      </trkpt>
      <trkpt lat="45.45923" lon="4.59788">
        <ele>547</ele>
        <time>2014-11-29T09:08:31Z</time>
      </trkpt>
      <trkpt lat="45.45918" lon="4.5978">
        <ele>546</ele>
        <time>2014-11-29T09:08:34Z</time>
      </trkpt>
      <trkpt lat="45.45914" lon="4.5977">
        <ele>546</ele>
        <time>2014-11-29T09:08:37Z</time>
      </trkpt>
      <trkpt lat="45.4591" lon="4.5976">
        <ele>545</ele>
        <time>2014-11-29T09:08:40Z</time>
      </trkpt>
      <trkpt lat="45.45907" lon="4.5975">
        <ele>544</ele>
        <time>2014-11-29T09:08:43Z</time>
      </trkpt>
      <trkpt lat="45.45905" lon="4.59739">
        <ele>543</ele>
        <time>2014-11-29T09:08:46Z</time>
      </trkpt>
      <trkpt lat="45.45903" lon="4.59727">
        <ele>542</ele>
        <time>2014-11-29T09:08:49Z</time>
      </trkpt>
      <trkpt lat="45.45903" lon="4.59715">
        <ele>541</ele>
        <time>2014-11-29T09:08:52Z</time>
      </trkpt>
      <trkpt lat="45.45905" lon="4.59702">
        <ele>541</ele>
        <time>2014-11-29T09:08:55Z</time>
      </trkpt>
      <trkpt lat="45.45906" lon="4.59689">
        <ele>540</ele>
        <time>2014-11-29T09:08:58Z</time>
      </trkpt>
      <trkpt lat="45.4591" lon="4.59679">
        <ele>538</ele>
        <time>2014-11-29T09:09:01Z</time>
      </trkpt>
      <trkpt lat="45.45913" lon="4.59669">
        <ele>537</ele>
        <time>2014-11-29T09:09:04Z</time>
      </trkpt>
      <trkpt lat="45.45917" lon="4.59657">
        <ele>536</ele>
        <time>2014-11-29T09:09:07Z</time>
      </trkpt>
      <trkpt lat="45.45923" lon="4.59647">
        <ele>535</ele>
        <time>2014-11-29T09:09:10Z</time>
      </trkpt>
      <trkpt lat="45.45928" lon="4.59636">
        <ele>534</ele>
        <time>2014-11-29T09:09:13Z</time>
      </trkpt>
      <trkpt lat="45.45934" lon="4.59627">
        <ele>533</ele>
        <time>2014-11-29T09:09:16Z</time>
      </trkpt>
      <trkpt lat="45.45938" lon="4.59617">
        <ele>533</ele>
        <time>2014-11-29T09:09:19Z</time>
      </trkpt>
      <trkpt lat="45.45943" lon="4.59605">
        <ele>531</ele>
        <time>2014-11-29T09:09:22Z</time>
      </trkpt>
      <trkpt lat="45.45952" lon="4.59591">
        <ele>530</ele>
        <time>2014-11-29T09:09:26Z</time>
      </trkpt>
      <trkpt lat="45.45958" lon="4.59582">
        <ele>528</ele>
        <time>2014-11-29T09:09:29Z</time>
      </trkpt>
      <trkpt lat="45.45963" lon="4.59571">
        <ele>527</ele>
        <time>2014-11-29T09:09:32Z</time>
      </trkpt>
      <trkpt lat="45.45969" lon="4.5956">
        <ele>526</ele>
        <time>2014-11-29T09:09:35Z</time>
      </trkpt>
      <trkpt lat="45.45974" lon="4.59549">
        <ele>525</ele>
        <time>2014-11-29T09:09:38Z</time>
      </trkpt>
      <trkpt lat="45.45979" lon="4.59538">
        <ele>524</ele>
        <time>2014-11-29T09:09:41Z</time>
      </trkpt>
      <trkpt lat="45.45984" lon="4.59526">
        <ele>524</ele>
        <time>2014-11-29T09:09:44Z</time>
      </trkpt>
      <trkpt lat="45.45988" lon="4.59514">
        <ele>523</ele>
        <time>2014-11-29T09:09:47Z</time>
      </trkpt>
      <trkpt lat="45.45992" lon="4.59501">
        <ele>523</ele>
        <time>2014-11-29T09:09:50Z</time>
      </trkpt>
      <trkpt lat="45.45997" lon="4.59489">
        <ele>522</ele>
        <time>2014-11-29T09:09:53Z</time>
      </trkpt>
      <trkpt lat="45.46001" lon="4.59477">
        <ele>521</ele>
        <time>2014-11-29T09:09:56Z</time>
      </trkpt>
      <trkpt lat="45.46006" lon="4.59466">
        <ele>521</ele>
        <time>2014-11-29T09:09:59Z</time>
      </trkpt>
      <trkpt lat="45.46012" lon="4.59455">
        <ele>520</ele>
        <time>2014-11-29T09:10:02Z</time>
      </trkpt>
      <trkpt lat="45.46016" lon="4.59444">
        <ele>520</ele>
        <time>2014-11-29T09:10:05Z</time>
      </trkpt>
      <trkpt lat="45.46021" lon="4.59433">
        <ele>520</ele>
        <time>2014-11-29T09:10:08Z</time>
      </trkpt>
      <trkpt lat="45.46024" lon="4.59421">
        <ele>520</ele>
        <time>2014-11-29T09:10:11Z</time>
      </trkpt>
      <trkpt lat="45.46028" lon="4.59409">
        <ele>520</ele>
        <time>2014-11-29T09:10:14Z</time>
      </trkpt>
      <trkpt lat="45.46031" lon="4.59397">
        <ele>520</ele>
        <time>2014-11-29T09:10:17Z</time>
      </trkpt>
      <trkpt lat="45.46035" lon="4.59384">
        <ele>520</ele>
        <time>2014-11-29T09:10:20Z</time>
      </trkpt>
      <trkpt lat="45.46038" lon="4.59372">
        <ele>520</ele>
        <time>2014-11-29T09:10:23Z</time>
      </trkpt>
      <trkpt lat="45.46041" lon="4.5936">
        <ele>520</ele>
        <time>2014-11-29T09:10:26Z</time>
      </trkpt>
      <trkpt lat="45.46045" lon="4.59347">
        <ele>520</ele>
        <time>2014-11-29T09:10:29Z</time>
      </trkpt>
      <trkpt lat="45.46048" lon="4.59337">
        <ele>519</ele>
        <time>2014-11-29T09:10:32Z</time>
      </trkpt>
      <trkpt lat="45.46051" lon="4.59325">
        <ele>519</ele>
        <time>2014-11-29T09:10:35Z</time>
      </trkpt>
      <trkpt lat="45.46054" lon="4.59313">
        <ele>518</ele>
        <time>2014-11-29T09:10:38Z</time>
      </trkpt>
      <trkpt lat="45.46057" lon="4.59302">
        <ele>517</ele>
        <time>2014-11-29T09:10:41Z</time>
      </trkpt>
      <trkpt lat="45.46061" lon="4.5929">
        <ele>515</ele>
        <time>2014-11-29T09:10:44Z</time>
      </trkpt>
      <trkpt lat="45.46065" lon="4.59278">
        <ele>514</ele>
        <time>2014-11-29T09:10:47Z</time>
      </trkpt>
      <trkpt lat="45.4607" lon="4.59263">
        <ele>512</ele>
        <time>2014-11-29T09:10:51Z</time>
      </trkpt>
      <trkpt lat="45.46074" lon="4.5925">
        <ele>510</ele>
        <time>2014-11-29T09:10:54Z</time>
      </trkpt>
      <trkpt lat="45.46077" lon="4.59237">
        <ele>509</ele>
        <time>2014-11-29T09:10:57Z</time>
      </trkpt>
      <trkpt lat="45.46082" lon="4.59227">
        <ele>507</ele>
        <time>2014-11-29T09:11:00Z</time>
      </trkpt>
      <trkpt lat="45.46087" lon="4.59216">
        <ele>505</ele>
        <time>2014-11-29T09:11:03Z</time>
      </trkpt>
      <trkpt lat="45.46093" lon="4.59204">
        <ele>504</ele>
        <time>2014-11-29T09:11:06Z</time>
      </trkpt>
      <trkpt lat="45.46097" lon="4.59193">
        <ele>502</ele>
        <time>2014-11-29T09:11:09Z</time>
      </trkpt>
      <trkpt lat="45.46101" lon="4.59182">
        <ele>501</ele>
        <time>2014-11-29T09:11:12Z</time>
      </trkpt>
      <trkpt lat="45.46105" lon="4.59169">
        <ele>499</ele>
        <time>2014-11-29T09:11:15Z</time>
      </trkpt>
      <trkpt lat="45.46109" lon="4.59157">
        <ele>498</ele>
        <time>2014-11-29T09:11:18Z</time>
      </trkpt>
      <trkpt lat="45.46112" lon="4.59144">
        <ele>497</ele>
        <time>2014-11-29T09:11:21Z</time>
      </trkpt>
      <trkpt lat="45.46116" lon="4.59132">
        <ele>496</ele>
        <time>2014-11-29T09:11:24Z</time>
      </trkpt>
      <trkpt lat="45.4612" lon="4.5912">
        <ele>496</ele>
        <time>2014-11-29T09:11:27Z</time>
      </trkpt>
      <trkpt lat="45.46125" lon="4.59108">
        <ele>494</ele>
        <time>2014-11-29T09:11:30Z</time>
      </trkpt>
      <trkpt lat="45.46132" lon="4.59098">
        <ele>493</ele>
        <time>2014-11-29T09:11:33Z</time>
      </trkpt>
      <trkpt lat="45.46139" lon="4.59088">
        <ele>492</ele>
        <time>2014-11-29T09:11:36Z</time>
      </trkpt>
      <trkpt lat="45.46147" lon="4.5908">
        <ele>490</ele>
        <time>2014-11-29T09:11:39Z</time>
      </trkpt>
      <trkpt lat="45.46154" lon="4.5907">
        <ele>488</ele>
        <time>2014-11-29T09:11:42Z</time>
      </trkpt>
      <trkpt lat="45.46163" lon="4.59062">
        <ele>486</ele>
        <time>2014-11-29T09:11:45Z</time>
      </trkpt>
      <trkpt lat="45.46167" lon="4.59055">
        <ele>484</ele>
        <time>2014-11-29T09:11:48Z</time>
      </trkpt>
      <trkpt lat="45.46175" lon="4.59048">
        <ele>483</ele>
        <time>2014-11-29T09:11:51Z</time>
      </trkpt>
      <trkpt lat="45.46183" lon="4.59043">
        <ele>481</ele>
        <time>2014-11-29T09:11:54Z</time>
      </trkpt>
      <trkpt lat="45.46191" lon="4.59039">
        <ele>479</ele>
        <time>2014-11-29T09:11:57Z</time>
      </trkpt>
      <trkpt lat="45.46198" lon="4.59038">
        <ele>477</ele>
        <time>2014-11-29T09:12:00Z</time>
      </trkpt>
      <trkpt lat="45.46207" lon="4.59037">
        <ele>476</ele>
        <time>2014-11-29T09:12:03Z</time>
      </trkpt>
      <trkpt lat="45.46215" lon="4.59037">
        <ele>475</ele>
        <time>2014-11-29T09:12:06Z</time>
      </trkpt>
      <trkpt lat="45.46227" lon="4.59036">
        <ele>473</ele>
        <time>2014-11-29T09:12:10Z</time>
      </trkpt>
      <trkpt lat="45.46236" lon="4.59035">
        <ele>471</ele>
        <time>2014-11-29T09:12:13Z</time>
      </trkpt>
      <trkpt lat="45.46246" lon="4.59034">
        <ele>470</ele>
        <time>2014-11-29T09:12:16Z</time>
      </trkpt>
      <trkpt lat="45.46256" lon="4.59032">
        <ele>468</ele>
        <time>2014-11-29T09:12:19Z</time>
      </trkpt>
      <trkpt lat="45.46265" lon="4.59031">
        <ele>467</ele>
        <time>2014-11-29T09:12:22Z</time>
      </trkpt>
      <trkpt lat="45.46275" lon="4.5903">
        <ele>466</ele>
        <time>2014-11-29T09:12:25Z</time>
      </trkpt>
      <trkpt lat="45.46284" lon="4.59029">
        <ele>465</ele>
        <time>2014-11-29T09:12:28Z</time>
      </trkpt>
      <trkpt lat="45.46294" lon="4.59027">
        <ele>464</ele>
        <time>2014-11-29T09:12:31Z</time>
      </trkpt>
      <trkpt lat="45.46303" lon="4.59025">
        <ele>464</ele>
        <time>2014-11-29T09:12:34Z</time>
      </trkpt>
      <trkpt lat="45.46312" lon="4.59024">
        <ele>463</ele>
        <time>2014-11-29T09:12:37Z</time>
      </trkpt>
      <trkpt lat="45.46321" lon="4.59023">
        <ele>462</ele>
        <time>2014-11-29T09:12:40Z</time>
      </trkpt>
      <trkpt lat="45.4633" lon="4.59022">
        <ele>461</ele>
        <time>2014-11-29T09:12:43Z</time>
      </trkpt>
      <trkpt lat="45.46338" lon="4.59019">
        <ele>460</ele>
        <time>2014-11-29T09:12:46Z</time>
      </trkpt>
      <trkpt lat="45.46344" lon="4.59015">
        <ele>459</ele>
        <time>2014-11-29T09:12:49Z</time>
      </trkpt>
      <trkpt lat="45.46352" lon="4.5901">
        <ele>459</ele>
        <time>2014-11-29T09:12:52Z</time>
      </trkpt>
      <trkpt lat="45.4636" lon="4.59004">
        <ele>458</ele>
        <time>2014-11-29T09:12:55Z</time>
      </trkpt>
      <trkpt lat="45.46368" lon="4.59">
        <ele>457</ele>
        <time>2014-11-29T09:12:58Z</time>
      </trkpt>
      <trkpt lat="45.46376" lon="4.58995">
        <ele>456</ele>
        <time>2014-11-29T09:13:01Z</time>
      </trkpt>
      <trkpt lat="45.46383" lon="4.58986">
        <ele>455</ele>
        <time>2014-11-29T09:13:04Z</time>
      </trkpt>
      <trkpt lat="45.46385" lon="4.58973">
        <ele>453</ele>
        <time>2014-11-29T09:13:07Z</time>
      </trkpt>
      <trkpt lat="45.46387" lon="4.58959">
        <ele>450</ele>
        <time>2014-11-29T09:13:10Z</time>
      </trkpt>
      <trkpt lat="45.46388" lon="4.58944">
        <ele>448</ele>
        <time>2014-11-29T09:13:13Z</time>
      </trkpt>
      <trkpt lat="45.46389" lon="4.58929">
        <ele>445</ele>
        <time>2014-11-29T09:13:16Z</time>
      </trkpt>
      <trkpt lat="45.46391" lon="4.5891">
        <ele>442</ele>
        <time>2014-11-29T09:13:20Z</time>
      </trkpt>
      <trkpt lat="45.46393" lon="4.58895">
        <ele>440</ele>
        <time>2014-11-29T09:13:23Z</time>
      </trkpt>
      <trkpt lat="45.46395" lon="4.5888">
        <ele>437</ele>
        <time>2014-11-29T09:13:26Z</time>
      </trkpt>
      <trkpt lat="45.46397" lon="4.58867">
        <ele>434</ele>
        <time>2014-11-29T09:13:29Z</time>
      </trkpt>
      <trkpt lat="45.46397" lon="4.58855">
        <ele>432</ele>
        <time>2014-11-29T09:13:32Z</time>
      </trkpt>
      <trkpt lat="45.46395" lon="4.58844">
        <ele>432</ele>
        <time>2014-11-29T09:13:35Z</time>
      </trkpt>
      <trkpt lat="45.46394" lon="4.58836">
        <ele>432</ele>
        <time>2014-11-29T09:13:38Z</time>
      </trkpt>
      <trkpt lat="45.46392" lon="4.58829">
        <ele>432</ele>
        <time>2014-11-29T09:13:42Z</time>
      </trkpt>
      <trkpt lat="45.4639" lon="4.58826">
        <ele>432</ele>
        <time>2014-11-29T09:13:46Z</time>
      </trkpt>
      <trkpt lat="45.46386" lon="4.58824">
        <ele>432</ele>
        <time>2014-11-29T09:13:49Z</time>
      </trkpt>
      <trkpt lat="45.46378" lon="4.58822">
        <ele>432</ele>
        <time>2014-11-29T09:13:52Z</time>
      </trkpt>
      <trkpt lat="45.46371" lon="4.5882">
        <ele>432</ele>
        <time>2014-11-29T09:13:55Z</time>
      </trkpt>
      <trkpt lat="45.46363" lon="4.58817">
        <ele>432</ele>
        <time>2014-11-29T09:13:58Z</time>
      </trkpt>
      <trkpt lat="45.46355" lon="4.58813">
        <ele>432</ele>
        <time>2014-11-29T09:14:01Z</time>
      </trkpt>
      <trkpt lat="45.46348" lon="4.58808">
        <ele>432</ele>
        <time>2014-11-29T09:14:04Z</time>
      </trkpt>
      <trkpt lat="45.46341" lon="4.58803">
        <ele>432</ele>
        <time>2014-11-29T09:14:07Z</time>
      </trkpt>
      <trkpt lat="45.46334" lon="4.58798">
        <ele>432</ele>
        <time>2014-11-29T09:14:10Z</time>
      </trkpt>
      <trkpt lat="45.46325" lon="4.58793">
        <ele>432</ele>
        <time>2014-11-29T09:14:13Z</time>
      </trkpt>
      <trkpt lat="45.46317" lon="4.5879">
        <ele>432</ele>
        <time>2014-11-29T09:14:16Z</time>
      </trkpt>
      <trkpt lat="45.4631" lon="4.58787">
        <ele>432</ele>
        <time>2014-11-29T09:14:19Z</time>
      </trkpt>
      <trkpt lat="45.46302" lon="4.58784">
        <ele>432</ele>
        <time>2014-11-29T09:14:22Z</time>
      </trkpt>
      <trkpt lat="45.46294" lon="4.58781">
        <ele>432</ele>
        <time>2014-11-29T09:14:25Z</time>
      </trkpt>
      <trkpt lat="45.46286" lon="4.58778">
        <ele>432</ele>
        <time>2014-11-29T09:14:28Z</time>
      </trkpt>
      <trkpt lat="45.46278" lon="4.58775">
        <ele>432</ele>
        <time>2014-11-29T09:14:31Z</time>
      </trkpt>
      <trkpt lat="45.46269" lon="4.5877">
        <ele>432</ele>
        <time>2014-11-29T09:14:34Z</time>
      </trkpt>
      <trkpt lat="45.46261" lon="4.58766">
        <ele>431</ele>
        <time>2014-11-29T09:14:37Z</time>
      </trkpt>
      <trkpt lat="45.46251" lon="4.58763">
        <ele>430</ele>
        <time>2014-11-29T09:14:41Z</time>
      </trkpt>
      <trkpt lat="45.46244" lon="4.5876">
        <ele>429</ele>
        <time>2014-11-29T09:14:44Z</time>
      </trkpt>
      <trkpt lat="45.46238" lon="4.58758">
        <ele>428</ele>
        <time>2014-11-29T09:14:47Z</time>
      </trkpt>
      <trkpt lat="45.46232" lon="4.58755">
        <ele>427</ele>
        <time>2014-11-29T09:14:50Z</time>
      </trkpt>
      <trkpt lat="45.46227" lon="4.58753">
        <ele>426</ele>
        <time>2014-11-29T09:14:53Z</time>
      </trkpt>
      <trkpt lat="45.46221" lon="4.58751">
        <ele>425</ele>
        <time>2014-11-29T09:14:56Z</time>
      </trkpt>
      <trkpt lat="45.46215" lon="4.5875">
        <ele>424</ele>
        <time>2014-11-29T09:14:59Z</time>
      </trkpt>
      <trkpt lat="45.46208" lon="4.58749">
        <ele>423</ele>
        <time>2014-11-29T09:15:02Z</time>
      </trkpt>
      <trkpt lat="45.46201" lon="4.58747">
        <ele>422</ele>
        <time>2014-11-29T09:15:05Z</time>
      </trkpt>
      <trkpt lat="45.46193" lon="4.58744">
        <ele>422</ele>
        <time>2014-11-29T09:15:08Z</time>
      </trkpt>
      <trkpt lat="45.46186" lon="4.58743">
        <ele>422</ele>
        <time>2014-11-29T09:15:11Z</time>
      </trkpt>
      <trkpt lat="45.4618" lon="4.5874">
        <ele>421</ele>
        <time>2014-11-29T09:15:14Z</time>
      </trkpt>
      <trkpt lat="45.46173" lon="4.58739">
        <ele>419</ele>
        <time>2014-11-29T09:15:17Z</time>
      </trkpt>
      <trkpt lat="45.46166" lon="4.58735">
        <ele>418</ele>
        <time>2014-11-29T09:15:20Z</time>
      </trkpt>
      <trkpt lat="45.46159" lon="4.58731">
        <ele>417</ele>
        <time>2014-11-29T09:15:23Z</time>
      </trkpt>
      <trkpt lat="45.46152" lon="4.58728">
        <ele>416</ele>
        <time>2014-11-29T09:15:26Z</time>
      </trkpt>
      <trkpt lat="45.46147" lon="4.58726">
        <ele>416</ele>
        <time>2014-11-29T09:15:29Z</time>
      </trkpt>
      <trkpt lat="45.46143" lon="4.58723">
        <ele>416</ele>
        <time>2014-11-29T09:15:33Z</time>
      </trkpt>
      <trkpt lat="45.46143" lon="4.58719">
        <ele>415</ele>
        <time>2014-11-29T09:15:37Z</time>
      </trkpt>
      <trkpt lat="45.46144" lon="4.58715">
        <ele>415</ele>
        <time>2014-11-29T09:15:40Z</time>
      </trkpt>
      <trkpt lat="45.46144" lon="4.58711">
        <ele>415</ele>
        <time>2014-11-29T09:15:43Z</time>
      </trkpt>
      <trkpt lat="45.46145" lon="4.58706">
        <ele>415</ele>
        <time>2014-11-29T09:15:47Z</time>
      </trkpt>
      <trkpt lat="45.46148" lon="4.58699">
        <ele>415</ele>
        <time>2014-11-29T09:15:50Z</time>
      </trkpt>
      <trkpt lat="45.46152" lon="4.58694">
        <ele>415</ele>
        <time>2014-11-29T09:15:53Z</time>
      </trkpt>
      <trkpt lat="45.46156" lon="4.5869">
        <ele>415</ele>
        <time>2014-11-29T09:15:56Z</time>
      </trkpt>
      <trkpt lat="45.4616" lon="4.58684">
        <ele>414</ele>
        <time>2014-11-29T09:15:59Z</time>
      </trkpt>
      <trkpt lat="45.46164" lon="4.58679">
        <ele>414</ele>
        <time>2014-11-29T09:16:02Z</time>
      </trkpt>
      <trkpt lat="45.46167" lon="4.58675">
        <ele>414</ele>
        <time>2014-11-29T09:16:05Z</time>
      </trkpt>
      <trkpt lat="45.46172" lon="4.58673">
        <ele>414</ele>
        <time>2014-11-29T09:16:08Z</time>
      </trkpt>
      <trkpt lat="45.46178" lon="4.58672">
        <ele>414</ele>
        <time>2014-11-29T09:16:11Z</time>
      </trkpt>
      <trkpt lat="45.46183" lon="4.58668">
        <ele>414</ele>
        <time>2014-11-29T09:16:14Z</time>
      </trkpt>
      <trkpt lat="45.46188" lon="4.58666">
        <ele>414</ele>
        <time>2014-11-29T09:16:17Z</time>
      </trkpt>
      <trkpt lat="45.46196" lon="4.58663">
        <ele>413</ele>
        <time>2014-11-29T09:16:20Z</time>
      </trkpt>
      <trkpt lat="45.46202" lon="4.5866">
        <ele>412</ele>
        <time>2014-11-29T09:16:23Z</time>
      </trkpt>
      <trkpt lat="45.46208" lon="4.58657">
        <ele>411</ele>
        <time>2014-11-29T09:16:26Z</time>
      </trkpt>
      <trkpt lat="45.46215" lon="4.58656">
        <ele>410</ele>
        <time>2014-11-29T09:16:29Z</time>
      </trkpt>
      <trkpt lat="45.46222" lon="4.58653">
        <ele>408</ele>
        <time>2014-11-29T09:16:32Z</time>
      </trkpt>
      <trkpt lat="45.4623" lon="4.58651">
        <ele>406</ele>
        <time>2014-11-29T09:16:35Z</time>
      </trkpt>
      <trkpt lat="45.46239" lon="4.58651">
        <ele>405</ele>
        <time>2014-11-29T09:16:38Z</time>
      </trkpt>
      <trkpt lat="45.46247" lon="4.5865">
        <ele>403</ele>
        <time>2014-11-29T09:16:41Z</time>
      </trkpt>
      <trkpt lat="45.46254" lon="4.58648">
        <ele>401</ele>
        <time>2014-11-29T09:16:44Z</time>
      </trkpt>
      <trkpt lat="45.46263" lon="4.5865">
        <ele>401</ele>
        <time>2014-11-29T09:16:47Z</time>
      </trkpt>
      <trkpt lat="45.46272" lon="4.58652">
        <ele>401</ele>
        <time>2014-11-29T09:16:50Z</time>
      </trkpt>
      <trkpt lat="45.46281" lon="4.58653">
        <ele>401</ele>
        <time>2014-11-29T09:16:53Z</time>
      </trkpt>
      <trkpt lat="45.46286" lon="4.58653">
        <ele>401</ele>
        <time>2014-11-29T09:16:56Z</time>
      </trkpt>
      <trkpt lat="45.46292" lon="4.58651">
        <ele>401</ele>
        <time>2014-11-29T09:16:59Z</time>
      </trkpt>
      <trkpt lat="45.46301" lon="4.58646">
        <ele>401</ele>
        <time>2014-11-29T09:17:02Z</time>
      </trkpt>
      <trkpt lat="45.4631" lon="4.58641">
        <ele>401</ele>
        <time>2014-11-29T09:17:05Z</time>
      </trkpt>
      <trkpt lat="45.46316" lon="4.5864">
        <ele>401</ele>
        <time>2014-11-29T09:17:08Z</time>
      </trkpt>
      <trkpt lat="45.46322" lon="4.58646">
        <ele>401</ele>
        <time>2014-11-29T09:17:11Z</time>
      </trkpt>
      <trkpt lat="45.46326" lon="4.58655">
        <ele>401</ele>
        <time>2014-11-29T09:17:14Z</time>
      </trkpt>
      <trkpt lat="45.46329" lon="4.58662">
        <ele>401</ele>
        <time>2014-11-29T09:17:17Z</time>
      </trkpt>
      <trkpt lat="45.46334" lon="4.58666">
        <ele>401</ele>
        <time>2014-11-29T09:17:20Z</time>
      </trkpt>
      <trkpt lat="45.46341" lon="4.58672">
        <ele>401</ele>
        <time>2014-11-29T09:17:23Z</time>
      </trkpt>
      <trkpt lat="45.46347" lon="4.58676">
        <ele>401</ele>
        <time>2014-11-29T09:17:26Z</time>
      </trkpt>
      <trkpt lat="45.46351" lon="4.58681">
        <ele>400</ele>
        <time>2014-11-29T09:17:29Z</time>
      </trkpt>
      <trkpt lat="45.46355" lon="4.58685">
        <ele>400</ele>
        <time>2014-11-29T09:17:32Z</time>
      </trkpt>
      <trkpt lat="45.46362" lon="4.58687">
        <ele>400</ele>
        <time>2014-11-29T09:17:35Z</time>
      </trkpt>
      <trkpt lat="45.46367" lon="4.58692">
        <ele>400</ele>
        <time>2014-11-29T09:17:38Z</time>
      </trkpt>
      <trkpt lat="45.46374" lon="4.58696">
        <ele>400</ele>
        <time>2014-11-29T09:17:41Z</time>
      </trkpt>
      <trkpt lat="45.46379" lon="4.587">
        <ele>399</ele>
        <time>2014-11-29T09:17:44Z</time>
      </trkpt>
      <trkpt lat="45.46388" lon="4.58703">
        <ele>398</ele>
        <time>2014-11-29T09:17:47Z</time>
      </trkpt>
      <trkpt lat="45.46399" lon="4.58704">
        <ele>398</ele>
        <time>2014-11-29T09:17:50Z</time>
      </trkpt>
      <trkpt lat="45.46405" lon="4.58705">
        <ele>398</ele>
        <time>2014-11-29T09:17:53Z</time>
      </trkpt>
      <trkpt lat="45.46411" lon="4.58706">
        <ele>398</ele>
        <time>2014-11-29T09:17:56Z</time>
      </trkpt>
      <trkpt lat="45.4642" lon="4.58707">
        <ele>398</ele>
        <time>2014-11-29T09:17:59Z</time>
      </trkpt>
      <trkpt lat="45.46427" lon="4.58708">
        <ele>399</ele>
        <time>2014-11-29T09:18:02Z</time>
      </trkpt>
      <trkpt lat="45.46434" lon="4.5871">
        <ele>400</ele>
        <time>2014-11-29T09:18:05Z</time>
      </trkpt>
      <trkpt lat="45.46439" lon="4.58712">
        <ele>400</ele>
        <time>2014-11-29T09:18:08Z</time>
      </trkpt>
      <trkpt lat="45.46447" lon="4.58714">
        <ele>400</ele>
        <time>2014-11-29T09:18:11Z</time>
      </trkpt>
      <trkpt lat="45.46454" lon="4.58714">
        <ele>400</ele>
        <time>2014-11-29T09:18:14Z</time>
      </trkpt>
      <trkpt lat="45.46463" lon="4.58715">
        <ele>400</ele>
        <time>2014-11-29T09:18:17Z</time>
      </trkpt>
      <trkpt lat="45.4647" lon="4.58715">
        <ele>400</ele>
        <time>2014-11-29T09:18:20Z</time>
      </trkpt>
      <trkpt lat="45.46475" lon="4.58716">
        <ele>401</ele>
        <time>2014-11-29T09:18:23Z</time>
      </trkpt>
      <trkpt lat="45.46481" lon="4.58717">
        <ele>401</ele>
        <time>2014-11-29T09:18:26Z</time>
      </trkpt>
      <trkpt lat="45.46487" lon="4.58718">
        <ele>401</ele>
        <time>2014-11-29T09:18:29Z</time>
      </trkpt>
      <trkpt lat="45.4649" lon="4.58717">
        <ele>401</ele>
        <time>2014-11-29T09:18:32Z</time>
      </trkpt>
      <trkpt lat="45.46496" lon="4.58717">
        <ele>401</ele>
        <time>2014-11-29T09:18:35Z</time>
      </trkpt>
      <trkpt lat="45.46503" lon="4.58715">
        <ele>401</ele>
        <time>2014-11-29T09:18:38Z</time>
      </trkpt>
      <trkpt lat="45.46511" lon="4.58712">
        <ele>401</ele>
        <time>2014-11-29T09:18:41Z</time>
      </trkpt>
      <trkpt lat="45.4652" lon="4.58708">
        <ele>401</ele>
        <time>2014-11-29T09:18:44Z</time>
      </trkpt>
      <trkpt lat="45.46535" lon="4.58704">
        <ele>401</ele>
        <time>2014-11-29T09:18:47Z</time>
      </trkpt>
      <trkpt lat="45.46547" lon="4.587">
        <ele>401</ele>
        <time>2014-11-29T09:18:50Z</time>
      </trkpt>
      <trkpt lat="45.46557" lon="4.58697">
        <ele>401</ele>
        <time>2014-11-29T09:18:53Z</time>
      </trkpt>
      <trkpt lat="45.46566" lon="4.58694">
        <ele>402</ele>
        <time>2014-11-29T09:18:56Z</time>
      </trkpt>
      <trkpt lat="45.46573" lon="4.58692">
        <ele>403</ele>
        <time>2014-11-29T09:18:59Z</time>
      </trkpt>
      <trkpt lat="45.46581" lon="4.58691">
        <ele>403</ele>
        <time>2014-11-29T09:19:02Z</time>
      </trkpt>
      <trkpt lat="45.46589" lon="4.5869">
        <ele>404</ele>
        <time>2014-11-29T09:19:05Z</time>
      </trkpt>
      <trkpt lat="45.46597" lon="4.58692">
        <ele>404</ele>
        <time>2014-11-29T09:19:08Z</time>
      </trkpt>
      <trkpt lat="45.46602" lon="4.58695">
        <ele>404</ele>
        <time>2014-11-29T09:19:11Z</time>
      </trkpt>
      <trkpt lat="45.46609" lon="4.58697">
        <ele>404</ele>
        <time>2014-11-29T09:19:14Z</time>
      </trkpt>
      <trkpt lat="45.46616" lon="4.58701">
        <ele>404</ele>
        <time>2014-11-29T09:19:17Z</time>
      </trkpt>
      <trkpt lat="45.46622" lon="4.58705">
        <ele>402</ele>
        <time>2014-11-29T09:19:20Z</time>
      </trkpt>
      <trkpt lat="45.46628" lon="4.58707">
        <ele>399</ele>
        <time>2014-11-29T09:19:23Z</time>
      </trkpt>
      <trkpt lat="45.46634" lon="4.58711">
        <ele>396</ele>
        <time>2014-11-29T09:19:26Z</time>
      </trkpt>
      <trkpt lat="45.4664" lon="4.58714">
        <ele>395</ele>
        <time>2014-11-29T09:19:29Z</time>
      </trkpt>
      <trkpt lat="45.46645" lon="4.58717">
        <ele>394</ele>
        <time>2014-11-29T09:19:32Z</time>
      </trkpt>
      <trkpt lat="45.46652" lon="4.58718">
        <ele>393</ele>
        <time>2014-11-29T09:19:35Z</time>
      </trkpt>
      <trkpt lat="45.46658" lon="4.58718">
        <ele>391</ele>
        <time>2014-11-29T09:19:38Z</time>
      </trkpt>
      <trkpt lat="45.46665" lon="4.58718">
        <ele>390</ele>
        <time>2014-11-29T09:19:41Z</time>
      </trkpt>
      <trkpt lat="45.46676" lon="4.58715">
        <ele>389</ele>
        <time>2014-11-29T09:19:44Z</time>
      </trkpt>
      <trkpt lat="45.46685" lon="4.58711">
        <ele>389</ele>
        <time>2014-11-29T09:19:47Z</time>
      </trkpt>
      <trkpt lat="45.46692" lon="4.58707">
        <ele>389</ele>
        <time>2014-11-29T09:19:50Z</time>
      </trkpt>
      <trkpt lat="45.46699" lon="4.58702">
        <ele>389</ele>
        <time>2014-11-29T09:19:53Z</time>
      </trkpt>
      <trkpt lat="45.46703" lon="4.58696">
        <ele>389</ele>
        <time>2014-11-29T09:19:56Z</time>
      </trkpt>
      <trkpt lat="45.46713" lon="4.58686">
        <ele>389</ele>
        <time>2014-11-29T09:19:59Z</time>
      </trkpt>
      <trkpt lat="45.46725" lon="4.58678">
        <ele>389</ele>
        <time>2014-11-29T09:20:02Z</time>
      </trkpt>
      <trkpt lat="45.46736" lon="4.58671">
        <ele>389</ele>
        <time>2014-11-29T09:20:05Z</time>
      </trkpt>
      <trkpt lat="45.46746" lon="4.58666">
        <ele>389</ele>
        <time>2014-11-29T09:20:08Z</time>
      </trkpt>
      <trkpt lat="45.46756" lon="4.58661">
        <ele>390</ele>
        <time>2014-11-29T09:20:11Z</time>
      </trkpt>
      <trkpt lat="45.46765" lon="4.58656">
        <ele>391</ele>
        <time>2014-11-29T09:20:14Z</time>
      </trkpt>
      <trkpt lat="45.46772" lon="4.58652">
        <ele>392</ele>
        <time>2014-11-29T09:20:17Z</time>
      </trkpt>
      <trkpt lat="45.46778" lon="4.58649">
        <ele>393</ele>
        <time>2014-11-29T09:20:20Z</time>
      </trkpt>
      <trkpt lat="45.46785" lon="4.58647">
        <ele>393</ele>
        <time>2014-11-29T09:20:23Z</time>
      </trkpt>
      <trkpt lat="45.46792" lon="4.58646">
        <ele>393</ele>
        <time>2014-11-29T09:20:26Z</time>
      </trkpt>
      <trkpt lat="45.46798" lon="4.58646">
        <ele>393</ele>
        <time>2014-11-29T09:20:29Z</time>
      </trkpt>
      <trkpt lat="45.46805" lon="4.58646">
        <ele>393</ele>
        <time>2014-11-29T09:20:32Z</time>
      </trkpt>
      <trkpt lat="45.46811" lon="4.58648">
        <ele>393</ele>
        <time>2014-11-29T09:20:35Z</time>
      </trkpt>
      <trkpt lat="45.46819" lon="4.58651">
        <ele>393</ele>
        <time>2014-11-29T09:20:38Z</time>
      </trkpt>
      <trkpt lat="45.46827" lon="4.58655">
        <ele>393</ele>
        <time>2014-11-29T09:20:41Z</time>
      </trkpt>
      <trkpt lat="45.46833" lon="4.58659">
        <ele>392</ele>
        <time>2014-11-29T09:20:44Z</time>
      </trkpt>
      <trkpt lat="45.46838" lon="4.58665">
        <ele>390</ele>
        <time>2014-11-29T09:20:47Z</time>
      </trkpt>
      <trkpt lat="45.46845" lon="4.58671">
        <ele>389</ele>
        <time>2014-11-29T09:20:50Z</time>
      </trkpt>
      <trkpt lat="45.46852" lon="4.58679">
        <ele>389</ele>
        <time>2014-11-29T09:20:53Z</time>
      </trkpt>
      <trkpt lat="45.4686" lon="4.58685">
        <ele>388</ele>
        <time>2014-11-29T09:20:56Z</time>
      </trkpt>
      <trkpt lat="45.46865" lon="4.58694">
        <ele>387</ele>
        <time>2014-11-29T09:20:59Z</time>
      </trkpt>
      <trkpt lat="45.46872" lon="4.58701">
        <ele>387</ele>
        <time>2014-11-29T09:21:02Z</time>
      </trkpt>
      <trkpt lat="45.46878" lon="4.58709">
        <ele>387</ele>
        <time>2014-11-29T09:21:05Z</time>
      </trkpt>
      <trkpt lat="45.46884" lon="4.58716">
        <ele>387</ele>
        <time>2014-11-29T09:21:08Z</time>
      </trkpt>
      <trkpt lat="45.46888" lon="4.58722">
        <ele>387</ele>
        <time>2014-11-29T09:21:11Z</time>
      </trkpt>
      <trkpt lat="45.46893" lon="4.58729">
        <ele>387</ele>
        <time>2014-11-29T09:21:14Z</time>
      </trkpt>
      <trkpt lat="45.46899" lon="4.58736">
        <ele>387</ele>
        <time>2014-11-29T09:21:17Z</time>
      </trkpt>
      <trkpt lat="45.46905" lon="4.58743">
        <ele>387</ele>
        <time>2014-11-29T09:21:20Z</time>
      </trkpt>
      <trkpt lat="45.46913" lon="4.5875">
        <ele>387</ele>
        <time>2014-11-29T09:21:23Z</time>
      </trkpt>
      <trkpt lat="45.46921" lon="4.58757">
        <ele>387</ele>
        <time>2014-11-29T09:21:26Z</time>
      </trkpt>
      <trkpt lat="45.46928" lon="4.58764">
        <ele>387</ele>
        <time>2014-11-29T09:21:29Z</time>
      </trkpt>
      <trkpt lat="45.46934" lon="4.5877">
        <ele>387</ele>
        <time>2014-11-29T09:21:32Z</time>
      </trkpt>
      <trkpt lat="45.46942" lon="4.58774">
        <ele>387</ele>
        <time>2014-11-29T09:21:35Z</time>
      </trkpt>
      <trkpt lat="45.46947" lon="4.58779">
        <ele>387</ele>
        <time>2014-11-29T09:21:38Z</time>
      </trkpt>
      <trkpt lat="45.46953" lon="4.58782">
        <ele>387</ele>
        <time>2014-11-29T09:21:41Z</time>
      </trkpt>
      <trkpt lat="45.46962" lon="4.58783">
        <ele>387</ele>
        <time>2014-11-29T09:21:44Z</time>
      </trkpt>
      <trkpt lat="45.4697" lon="4.58783">
        <ele>387</ele>
        <time>2014-11-29T09:21:47Z</time>
      </trkpt>
      <trkpt lat="45.46977" lon="4.58785">
        <ele>387</ele>
        <time>2014-11-29T09:21:50Z</time>
      </trkpt>
      <trkpt lat="45.46984" lon="4.58785">
        <ele>387</ele>
        <time>2014-11-29T09:21:53Z</time>
      </trkpt>
      <trkpt lat="45.46998" lon="4.58784">
        <ele>387</ele>
        <time>2014-11-29T09:21:56Z</time>
      </trkpt>
      <trkpt lat="45.47011" lon="4.58779">
        <ele>387</ele>
        <time>2014-11-29T09:21:59Z</time>
      </trkpt>
      <trkpt lat="45.4702" lon="4.58777">
        <ele>387</ele>
        <time>2014-11-29T09:22:02Z</time>
      </trkpt>
      <trkpt lat="45.47029" lon="4.58774">
        <ele>387</ele>
        <time>2014-11-29T09:22:05Z</time>
      </trkpt>
      <trkpt lat="45.47038" lon="4.5877">
        <ele>387</ele>
        <time>2014-11-29T09:22:08Z</time>
      </trkpt>
      <trkpt lat="45.47045" lon="4.58766">
        <ele>387</ele>
        <time>2014-11-29T09:22:11Z</time>
      </trkpt>
      <trkpt lat="45.47051" lon="4.58762">
        <ele>387</ele>
        <time>2014-11-29T09:22:14Z</time>
      </trkpt>
      <trkpt lat="45.47058" lon="4.58758">
        <ele>387</ele>
        <time>2014-11-29T09:22:17Z</time>
      </trkpt>
      <trkpt lat="45.47065" lon="4.58753">
        <ele>387</ele>
        <time>2014-11-29T09:22:20Z</time>
      </trkpt>
      <trkpt lat="45.47071" lon="4.58745">
        <ele>387</ele>
        <time>2014-11-29T09:22:23Z</time>
      </trkpt>
      <trkpt lat="45.47079" lon="4.58738">
        <ele>387</ele>
        <time>2014-11-29T09:22:26Z</time>
      </trkpt>
      <trkpt lat="45.47086" lon="4.58732">
        <ele>387</ele>
        <time>2014-11-29T09:22:29Z</time>
      </trkpt>
      <trkpt lat="45.47093" lon="4.58726">
        <ele>387</ele>
        <time>2014-11-29T09:22:32Z</time>
      </trkpt>
      <trkpt lat="45.47099" lon="4.58718">
        <ele>387</ele>
        <time>2014-11-29T09:22:35Z</time>
      </trkpt>
      <trkpt lat="45.47105" lon="4.58714">
        <ele>387</ele>
        <time>2014-11-29T09:22:38Z</time>
      </trkpt>
      <trkpt lat="45.47111" lon="4.58706">
        <ele>387</ele>
        <time>2014-11-29T09:22:41Z</time>
      </trkpt>
      <trkpt lat="45.47118" lon="4.58699">
        <ele>387</ele>
        <time>2014-11-29T09:22:44Z</time>
      </trkpt>
      <trkpt lat="45.47126" lon="4.58695">
        <ele>387</ele>
        <time>2014-11-29T09:22:47Z</time>
      </trkpt>
      <trkpt lat="45.47134" lon="4.58692">
        <ele>387</ele>
        <time>2014-11-29T09:22:50Z</time>
      </trkpt>
      <trkpt lat="45.47141" lon="4.5869">
        <ele>387</ele>
        <time>2014-11-29T09:22:53Z</time>
      </trkpt>
      <trkpt lat="45.47145" lon="4.58688">
        <ele>387</ele>
        <time>2014-11-29T09:22:56Z</time>
      </trkpt>
      <trkpt lat="45.47153" lon="4.58687">
        <ele>387</ele>
        <time>2014-11-29T09:22:59Z</time>
      </trkpt>
      <trkpt lat="45.47159" lon="4.58687">
        <ele>387</ele>
        <time>2014-11-29T09:23:02Z</time>
      </trkpt>
      <trkpt lat="45.47166" lon="4.58687">
        <ele>387</ele>
        <time>2014-11-29T09:23:05Z</time>
      </trkpt>
      <trkpt lat="45.47173" lon="4.58689">
        <ele>387</ele>
        <time>2014-11-29T09:23:08Z</time>
      </trkpt>
      <trkpt lat="45.47181" lon="4.58689">
        <ele>387</ele>
        <time>2014-11-29T09:23:11Z</time>
      </trkpt>
      <trkpt lat="45.47188" lon="4.58691">
        <ele>387</ele>
        <time>2014-11-29T09:23:14Z</time>
      </trkpt>
      <trkpt lat="45.47195" lon="4.5869">
        <ele>387</ele>
        <time>2014-11-29T09:23:17Z</time>
      </trkpt>
      <trkpt lat="45.47201" lon="4.58688">
        <ele>386</ele>
        <time>2014-11-29T09:23:20Z</time>
      </trkpt>
      <trkpt lat="45.47207" lon="4.58685">
        <ele>385</ele>
        <time>2014-11-29T09:23:23Z</time>
      </trkpt>
      <trkpt lat="45.47214" lon="4.58681">
        <ele>385</ele>
        <time>2014-11-29T09:23:26Z</time>
      </trkpt>
      <trkpt lat="45.4722" lon="4.58676">
        <ele>385</ele>
        <time>2014-11-29T09:23:29Z</time>
      </trkpt>
      <trkpt lat="45.47227" lon="4.58671">
        <ele>385</ele>
        <time>2014-11-29T09:23:32Z</time>
      </trkpt>
      <trkpt lat="45.47236" lon="4.58665">
        <ele>385</ele>
        <time>2014-11-29T09:23:35Z</time>
      </trkpt>
      <trkpt lat="45.47246" lon="4.58661">
        <ele>385</ele>
        <time>2014-11-29T09:23:38Z</time>
      </trkpt>
      <trkpt lat="45.47254" lon="4.58655">
        <ele>385</ele>
        <time>2014-11-29T09:23:41Z</time>
      </trkpt>
      <trkpt lat="45.4726" lon="4.5865">
        <ele>385</ele>
        <time>2014-11-29T09:23:44Z</time>
      </trkpt>
      <trkpt lat="45.47263" lon="4.58647">
        <ele>385</ele>
        <time>2014-11-29T09:23:48Z</time>
      </trkpt>
      <trkpt lat="45.47268" lon="4.58647">
        <ele>385</ele>
        <time>2014-11-29T09:23:52Z</time>
      </trkpt>
      <trkpt lat="45.47271" lon="4.58644">
        <ele>385</ele>
        <time>2014-11-29T09:23:55Z</time>
      </trkpt>
      <trkpt lat="45.47274" lon="4.58642">
        <ele>385</ele>
        <time>2014-11-29T09:23:59Z</time>
      </trkpt>
      <trkpt lat="45.47277" lon="4.58641">
        <ele>385</ele>
        <time>2014-11-29T09:24:03Z</time>
      </trkpt>
      <trkpt lat="45.4728" lon="4.58645">
        <ele>385</ele>
        <time>2014-11-29T09:24:08Z</time>
      </trkpt>
      <trkpt lat="45.47282" lon="4.58645">
        <ele>385</ele>
        <time>2014-11-29T09:24:11Z</time>
      </trkpt>
      <trkpt lat="45.47285" lon="4.58643">
        <ele>385</ele>
        <time>2014-11-29T09:24:14Z</time>
      </trkpt>
      <trkpt lat="45.4729" lon="4.58642">
        <ele>385</ele>
        <time>2014-11-29T09:24:17Z</time>
      </trkpt>
      <trkpt lat="45.47295" lon="4.5864">
        <ele>385</ele>
        <time>2014-11-29T09:24:20Z</time>
      </trkpt>
      <trkpt lat="45.47299" lon="4.58638">
        <ele>385</ele>
        <time>2014-11-29T09:24:23Z</time>
      </trkpt>
      <trkpt lat="45.47302" lon="4.58636">
        <ele>385</ele>
        <time>2014-11-29T09:24:26Z</time>
      </trkpt>
      <trkpt lat="45.47306" lon="4.58634">
        <ele>385</ele>
        <time>2014-11-29T09:24:29Z</time>
      </trkpt>
      <trkpt lat="45.47309" lon="4.58631">
        <ele>385</ele>
        <time>2014-11-29T09:24:33Z</time>
      </trkpt>
      <trkpt lat="45.47312" lon="4.58627">
        <ele>385</ele>
        <time>2014-11-29T09:24:37Z</time>
      </trkpt>
      <trkpt lat="45.47316" lon="4.58625">
        <ele>385</ele>
        <time>2014-11-29T09:24:41Z</time>
      </trkpt>
      <trkpt lat="45.47322" lon="4.58621">
        <ele>386</ele>
        <time>2014-11-29T09:24:44Z</time>
      </trkpt>
      <trkpt lat="45.47331" lon="4.58615">
        <ele>386</ele>
        <time>2014-11-29T09:24:47Z</time>
      </trkpt>
      <trkpt lat="45.4734" lon="4.58611">
        <ele>386</ele>
        <time>2014-11-29T09:24:50Z</time>
      </trkpt>
      <trkpt lat="45.4735" lon="4.58606">
        <ele>386</ele>
        <time>2014-11-29T09:24:53Z</time>
      </trkpt>
      <trkpt lat="45.47358" lon="4.58601">
        <ele>386</ele>
        <time>2014-11-29T09:24:56Z</time>
      </trkpt>
      <trkpt lat="45.47367" lon="4.58596">
        <ele>386</ele>
        <time>2014-11-29T09:24:59Z</time>
      </trkpt>
      <trkpt lat="45.47372" lon="4.58597">
        <ele>387</ele>
        <time>2014-11-29T09:25:02Z</time>
      </trkpt>
      <trkpt lat="45.47373" lon="4.58606">
        <ele>390</ele>
        <time>2014-11-29T09:25:05Z</time>
      </trkpt>
      <trkpt lat="45.47372" lon="4.58616">
        <ele>393</ele>
        <time>2014-11-29T09:25:08Z</time>
      </trkpt>
      <trkpt lat="45.4737" lon="4.58627">
        <ele>395</ele>
        <time>2014-11-29T09:25:11Z</time>
      </trkpt>
      <trkpt lat="45.47368" lon="4.58638">
        <ele>397</ele>
        <time>2014-11-29T09:25:14Z</time>
      </trkpt>
      <trkpt lat="45.47367" lon="4.58651">
        <ele>399</ele>
        <time>2014-11-29T09:25:17Z</time>
      </trkpt>
      <trkpt lat="45.47366" lon="4.58663">
        <ele>401</ele>
        <time>2014-11-29T09:25:20Z</time>
      </trkpt>
      <trkpt lat="45.47364" lon="4.58677">
        <ele>402</ele>
        <time>2014-11-29T09:25:23Z</time>
      </trkpt>
      <trkpt lat="45.47364" lon="4.58688">
        <ele>404</ele>
        <time>2014-11-29T09:25:26Z</time>
      </trkpt>
      <trkpt lat="45.47364" lon="4.587">
        <ele>405</ele>
        <time>2014-11-29T09:25:29Z</time>
      </trkpt>
      <trkpt lat="45.47363" lon="4.58711">
        <ele>406</ele>
        <time>2014-11-29T09:25:32Z</time>
      </trkpt>
      <trkpt lat="45.47363" lon="4.58716">
        <ele>407</ele>
        <time>2014-11-29T09:25:35Z</time>
      </trkpt>
      <trkpt lat="45.47363" lon="4.58721">
        <ele>407</ele>
        <time>2014-11-29T09:25:38Z</time>
      </trkpt>
      <trkpt lat="45.47362" lon="4.58726">
        <ele>407</ele>
        <time>2014-11-29T09:25:41Z</time>
      </trkpt>
      <trkpt lat="45.47362" lon="4.5873">
        <ele>407</ele>
        <time>2014-11-29T09:25:44Z</time>
      </trkpt>
      <trkpt lat="45.47363" lon="4.58736">
        <ele>408</ele>
        <time>2014-11-29T09:25:48Z</time>
      </trkpt>
      <trkpt lat="45.47366" lon="4.58739">
        <ele>409</ele>
        <time>2014-11-29T09:25:52Z</time>
      </trkpt>
      <trkpt lat="45.47371" lon="4.58739">
        <ele>410</ele>
        <time>2014-11-29T09:25:55Z</time>
      </trkpt>
      <trkpt lat="45.47375" lon="4.5874">
        <ele>410</ele>
        <time>2014-11-29T09:25:58Z</time>
      </trkpt>
      <trkpt lat="45.47379" lon="4.5874">
        <ele>410</ele>
        <time>2014-11-29T09:26:01Z</time>
      </trkpt>
      <trkpt lat="45.47384" lon="4.5874">
        <ele>411</ele>
        <time>2014-11-29T09:26:04Z</time>
      </trkpt>
      <trkpt lat="45.4739" lon="4.58741">
        <ele>411</ele>
        <time>2014-11-29T09:26:07Z</time>
      </trkpt>
      <trkpt lat="45.47397" lon="4.58742">
        <ele>411</ele>
        <time>2014-11-29T09:26:10Z</time>
      </trkpt>
      <trkpt lat="45.47406" lon="4.58743">
        <ele>412</ele>
        <time>2014-11-29T09:26:13Z</time>
      </trkpt>
      <trkpt lat="45.47415" lon="4.58744">
        <ele>413</ele>
        <time>2014-11-29T09:26:16Z</time>
      </trkpt>
      <trkpt lat="45.47423" lon="4.58743">
        <ele>414</ele>
        <time>2014-11-29T09:26:19Z</time>
      </trkpt>
      <trkpt lat="45.47432" lon="4.58743">
        <ele>415</ele>
        <time>2014-11-29T09:26:22Z</time>
      </trkpt>
      <trkpt lat="45.47438" lon="4.58743">
        <ele>418</ele>
        <time>2014-11-29T09:26:26Z</time>
      </trkpt>
      <trkpt lat="45.47441" lon="4.58743">
        <ele>419</ele>
        <time>2014-11-29T09:26:30Z</time>
      </trkpt>
      <trkpt lat="45.47443" lon="4.58741">
        <ele>421</ele>
        <time>2014-11-29T09:26:33Z</time>
      </trkpt>
      <trkpt lat="45.47446" lon="4.5874">
        <ele>422</ele>
        <time>2014-11-29T09:26:36Z</time>
      </trkpt>
      <trkpt lat="45.4745" lon="4.58741">
        <ele>423</ele>
        <time>2014-11-29T09:26:40Z</time>
      </trkpt>
      <trkpt lat="45.47454" lon="4.58743">
        <ele>423</ele>
        <time>2014-11-29T09:26:43Z</time>
      </trkpt>
      <trkpt lat="45.47465" lon="4.58747">
        <ele>423</ele>
        <time>2014-11-29T09:26:47Z</time>
      </trkpt>
      <trkpt lat="45.47471" lon="4.58751">
        <ele>424</ele>
        <time>2014-11-29T09:26:50Z</time>
      </trkpt>
      <trkpt lat="45.47477" lon="4.58755">
        <ele>424</ele>
        <time>2014-11-29T09:26:53Z</time>
      </trkpt>
      <trkpt lat="45.47485" lon="4.5876">
        <ele>425</ele>
        <time>2014-11-29T09:26:56Z</time>
      </trkpt>
      <trkpt lat="45.47493" lon="4.58763">
        <ele>426</ele>
        <time>2014-11-29T09:26:59Z</time>
      </trkpt>
      <trkpt lat="45.47502" lon="4.58765">
        <ele>427</ele>
        <time>2014-11-29T09:27:02Z</time>
      </trkpt>
      <trkpt lat="45.47512" lon="4.58767">
        <ele>428</ele>
        <time>2014-11-29T09:27:05Z</time>
      </trkpt>
      <trkpt lat="45.47521" lon="4.5877">
        <ele>429</ele>
        <time>2014-11-29T09:27:08Z</time>
      </trkpt>
      <trkpt lat="45.47527" lon="4.58773">
        <ele>430</ele>
        <time>2014-11-29T09:27:12Z</time>
      </trkpt>
      <trkpt lat="45.47531" lon="4.58776">
        <ele>430</ele>
        <time>2014-11-29T09:27:16Z</time>
      </trkpt>
      <trkpt lat="45.47532" lon="4.58777">
        <ele>430</ele>
        <time>2014-11-29T09:27:19Z</time>
      </trkpt>
      <trkpt lat="45.47535" lon="4.58779">
        <ele>430</ele>
        <time>2014-11-29T09:27:22Z</time>
      </trkpt>
      <trkpt lat="45.47539" lon="4.5878">
        <ele>430</ele>
        <time>2014-11-29T09:27:25Z</time>
      </trkpt>
      <trkpt lat="45.47542" lon="4.58782">
        <ele>431</ele>
        <time>2014-11-29T09:27:28Z</time>
      </trkpt>
      <trkpt lat="45.47546" lon="4.58785">
        <ele>431</ele>
        <time>2014-11-29T09:27:32Z</time>
      </trkpt>
      <trkpt lat="45.47552" lon="4.58787">
        <ele>431</ele>
        <time>2014-11-29T09:27:36Z</time>
      </trkpt>
      <trkpt lat="45.47556" lon="4.58788">
        <ele>431</ele>
        <time>2014-11-29T09:27:39Z</time>
      </trkpt>
      <trkpt lat="45.4756" lon="4.58789">
        <ele>431</ele>
        <time>2014-11-29T09:27:42Z</time>
      </trkpt>
      <trkpt lat="45.47565" lon="4.58793">
        <ele>431</ele>
        <time>2014-11-29T09:27:45Z</time>
      </trkpt>
      <trkpt lat="45.47573" lon="4.58799">
        <ele>431</ele>
        <time>2014-11-29T09:27:48Z</time>
      </trkpt>
      <trkpt lat="45.47579" lon="4.58805">
        <ele>431</ele>
        <time>2014-11-29T09:27:51Z</time>
      </trkpt>
      <trkpt lat="45.47585" lon="4.58809">
        <ele>431</ele>
        <time>2014-11-29T09:27:54Z</time>
      </trkpt>
      <trkpt lat="45.47592" lon="4.58814">
        <ele>431</ele>
        <time>2014-11-29T09:27:57Z</time>
      </trkpt>
      <trkpt lat="45.47599" lon="4.58819">
        <ele>431</ele>
        <time>2014-11-29T09:28:00Z</time>
      </trkpt>
      <trkpt lat="45.47605" lon="4.58824">
        <ele>431</ele>
        <time>2014-11-29T09:28:03Z</time>
      </trkpt>
      <trkpt lat="45.47608" lon="4.58828">
        <ele>431</ele>
        <time>2014-11-29T09:28:06Z</time>
      </trkpt>
      <trkpt lat="45.4761" lon="4.58833">
        <ele>432</ele>
        <time>2014-11-29T09:28:10Z</time>
      </trkpt>
      <trkpt lat="45.47611" lon="4.58837">
        <ele>433</ele>
        <time>2014-11-29T09:28:13Z</time>
      </trkpt>
      <trkpt lat="45.47611" lon="4.58841">
        <ele>435</ele>
        <time>2014-11-29T09:28:17Z</time>
      </trkpt>
      <trkpt lat="45.47608" lon="4.58842">
        <ele>437</ele>
        <time>2014-11-29T09:28:21Z</time>
      </trkpt>
      <trkpt lat="45.47604" lon="4.58842">
        <ele>438</ele>
        <time>2014-11-29T09:28:25Z</time>
      </trkpt>
      <trkpt lat="45.47601" lon="4.58843">
        <ele>439</ele>
        <time>2014-11-29T09:28:29Z</time>
      </trkpt>
      <trkpt lat="45.47597" lon="4.58843">
        <ele>440</ele>
        <time>2014-11-29T09:28:33Z</time>
      </trkpt>
      <trkpt lat="45.47594" lon="4.58842">
        <ele>440</ele>
        <time>2014-11-29T09:28:36Z</time>
      </trkpt>
      <trkpt lat="45.47591" lon="4.58842">
        <ele>441</ele>
        <time>2014-11-29T09:28:39Z</time>
      </trkpt>
      <trkpt lat="45.47586" lon="4.58843">
        <ele>441</ele>
        <time>2014-11-29T09:28:43Z</time>
      </trkpt>
      <trkpt lat="45.47583" lon="4.58843">
        <ele>441</ele>
        <time>2014-11-29T09:28:46Z</time>
      </trkpt>
      <trkpt lat="45.4758" lon="4.58844">
        <ele>441</ele>
        <time>2014-11-29T09:28:49Z</time>
      </trkpt>
      <trkpt lat="45.47576" lon="4.58845">
        <ele>442</ele>
        <time>2014-11-29T09:28:52Z</time>
      </trkpt>
      <trkpt lat="45.47572" lon="4.58846">
        <ele>443</ele>
        <time>2014-11-29T09:28:55Z</time>
      </trkpt>
      <trkpt lat="45.47569" lon="4.58846">
        <ele>445</ele>
        <time>2014-11-29T09:28:58Z</time>
      </trkpt>
      <trkpt lat="45.47566" lon="4.58847">
        <ele>446</ele>
        <time>2014-11-29T09:29:01Z</time>
      </trkpt>
      <trkpt lat="45.47562" lon="4.58848">
        <ele>447</ele>
        <time>2014-11-29T09:29:04Z</time>
      </trkpt>
      <trkpt lat="45.47559" lon="4.58849">
        <ele>447</ele>
        <time>2014-11-29T09:29:07Z</time>
      </trkpt>
      <trkpt lat="45.47554" lon="4.58851">
        <ele>448</ele>
        <time>2014-11-29T09:29:11Z</time>
      </trkpt>
      <trkpt lat="45.47551" lon="4.58852">
        <ele>448</ele>
        <time>2014-11-29T09:29:14Z</time>
      </trkpt>
      <trkpt lat="45.47548" lon="4.58854">
        <ele>448</ele>
        <time>2014-11-29T09:29:17Z</time>
      </trkpt>
      <trkpt lat="45.47543" lon="4.58856">
        <ele>448</ele>
        <time>2014-11-29T09:29:21Z</time>
      </trkpt>
      <trkpt lat="45.4754" lon="4.58857">
        <ele>449</ele>
        <time>2014-11-29T09:29:24Z</time>
      </trkpt>
      <trkpt lat="45.47537" lon="4.58859">
        <ele>449</ele>
        <time>2014-11-29T09:29:27Z</time>
      </trkpt>
      <trkpt lat="45.47533" lon="4.58861">
        <ele>449</ele>
        <time>2014-11-29T09:29:31Z</time>
      </trkpt>
      <trkpt lat="45.47529" lon="4.58864">
        <ele>449</ele>
        <time>2014-11-29T09:29:35Z</time>
      </trkpt>
      <trkpt lat="45.47524" lon="4.58866">
        <ele>449</ele>
        <time>2014-11-29T09:29:39Z</time>
      </trkpt>
      <trkpt lat="45.4752" lon="4.58869">
        <ele>450</ele>
        <time>2014-11-29T09:29:43Z</time>
      </trkpt>
      <trkpt lat="45.47517" lon="4.58871">
        <ele>450</ele>
        <time>2014-11-29T09:29:46Z</time>
      </trkpt>
      <trkpt lat="45.47514" lon="4.58872">
        <ele>450</ele>
        <time>2014-11-29T09:29:49Z</time>
      </trkpt>
      <trkpt lat="45.47512" lon="4.58871">
        <ele>452</ele>
        <time>2014-11-29T09:29:58Z</time>
      </trkpt>
      <trkpt lat="45.47512" lon="4.58869">
        <ele>452</ele>
        <time>2014-11-29T09:30:02Z</time>
      </trkpt>
      <trkpt lat="45.4751" lon="4.5887">
        <ele>452</ele>
        <time>2014-11-29T09:30:05Z</time>
      </trkpt>
      <trkpt lat="45.47507" lon="4.58874">
        <ele>452</ele>
        <time>2014-11-29T09:30:09Z</time>
      </trkpt>
      <trkpt lat="45.47505" lon="4.58875">
        <ele>453</ele>
        <time>2014-11-29T09:30:15Z</time>
      </trkpt>
      <trkpt lat="45.47501" lon="4.58879">
        <ele>454</ele>
        <time>2014-11-29T09:30:19Z</time>
      </trkpt>
      <trkpt lat="45.47496" lon="4.58887">
        <ele>455</ele>
        <time>2014-11-29T09:30:22Z</time>
      </trkpt>
      <trkpt lat="45.47491" lon="4.58894">
        <ele>456</ele>
        <time>2014-11-29T09:30:25Z</time>
      </trkpt>
      <trkpt lat="45.47486" lon="4.589">
        <ele>457</ele>
        <time>2014-11-29T09:30:28Z</time>
      </trkpt>
      <trkpt lat="45.47482" lon="4.58908">
        <ele>458</ele>
        <time>2014-11-29T09:30:31Z</time>
      </trkpt>
      <trkpt lat="45.47478" lon="4.58915">
        <ele>459</ele>
        <time>2014-11-29T09:30:34Z</time>
      </trkpt>
      <trkpt lat="45.47474" lon="4.58923">
        <ele>460</ele>
        <time>2014-11-29T09:30:37Z</time>
      </trkpt>
      <trkpt lat="45.4747" lon="4.58931">
        <ele>462</ele>
        <time>2014-11-29T09:30:40Z</time>
      </trkpt>
      <trkpt lat="45.47465" lon="4.58938">
        <ele>464</ele>
        <time>2014-11-29T09:30:43Z</time>
      </trkpt>
      <trkpt lat="45.47463" lon="4.58946">
        <ele>465</ele>
        <time>2014-11-29T09:30:46Z</time>
      </trkpt>
      <trkpt lat="45.47466" lon="4.58951">
        <ele>467</ele>
        <time>2014-11-29T09:30:50Z</time>
      </trkpt>
      <trkpt lat="45.4747" lon="4.5895">
        <ele>468</ele>
        <time>2014-11-29T09:30:53Z</time>
      </trkpt>
      <trkpt lat="45.47475" lon="4.58949">
        <ele>469</ele>
        <time>2014-11-29T09:30:57Z</time>
      </trkpt>
      <trkpt lat="45.47478" lon="4.58948">
        <ele>469</ele>
        <time>2014-11-29T09:31:00Z</time>
      </trkpt>
      <trkpt lat="45.47482" lon="4.58948">
        <ele>470</ele>
        <time>2014-11-29T09:31:03Z</time>
      </trkpt>
      <trkpt lat="45.47486" lon="4.58948">
        <ele>470</ele>
        <time>2014-11-29T09:31:06Z</time>
      </trkpt>
      <trkpt lat="45.47491" lon="4.58949">
        <ele>471</ele>
        <time>2014-11-29T09:31:10Z</time>
      </trkpt>
      <trkpt lat="45.47491" lon="4.58951">
        <ele>471</ele>
        <time>2014-11-29T09:31:15Z</time>
      </trkpt>
      <trkpt lat="45.47495" lon="4.58951">
        <ele>472</ele>
        <time>2014-11-29T09:31:19Z</time>
      </trkpt>
      <trkpt lat="45.47498" lon="4.58953">
        <ele>472</ele>
        <time>2014-11-29T09:31:23Z</time>
      </trkpt>
      <trkpt lat="45.47503" lon="4.58957">
        <ele>472</ele>
        <time>2014-11-29T09:31:26Z</time>
      </trkpt>
      <trkpt lat="45.47509" lon="4.58962">
        <ele>473</ele>
        <time>2014-11-29T09:31:29Z</time>
      </trkpt>
      <trkpt lat="45.47514" lon="4.58966">
        <ele>473</ele>
        <time>2014-11-29T09:31:32Z</time>
      </trkpt>
      <trkpt lat="45.47519" lon="4.58972">
        <ele>474</ele>
        <time>2014-11-29T09:31:35Z</time>
      </trkpt>
      <trkpt lat="45.47522" lon="4.58979">
        <ele>474</ele>
        <time>2014-11-29T09:31:38Z</time>
      </trkpt>
      <trkpt lat="45.47525" lon="4.58985">
        <ele>474</ele>
        <time>2014-11-29T09:31:41Z</time>
      </trkpt>
      <trkpt lat="45.47528" lon="4.58991">
        <ele>474</ele>
        <time>2014-11-29T09:31:44Z</time>
      </trkpt>
      <trkpt lat="45.4753" lon="4.58998">
        <ele>474</ele>
        <time>2014-11-29T09:31:47Z</time>
      </trkpt>
      <trkpt lat="45.47533" lon="4.59005">
        <ele>474</ele>
        <time>2014-11-29T09:31:50Z</time>
      </trkpt>
      <trkpt lat="45.47538" lon="4.59009">
        <ele>474</ele>
        <time>2014-11-29T09:31:55Z</time>
      </trkpt>
      <trkpt lat="45.4754" lon="4.59014">
        <ele>474</ele>
        <time>2014-11-29T09:31:59Z</time>
      </trkpt>
      <trkpt lat="45.47542" lon="4.5902">
        <ele>474</ele>
        <time>2014-11-29T09:32:03Z</time>
      </trkpt>
      <trkpt lat="45.47544" lon="4.59025">
        <ele>474</ele>
        <time>2014-11-29T09:32:06Z</time>
      </trkpt>
      <trkpt lat="45.47546" lon="4.59029">
        <ele>474</ele>
        <time>2014-11-29T09:32:09Z</time>
      </trkpt>
      <trkpt lat="45.47548" lon="4.59033">
        <ele>474</ele>
        <time>2014-11-29T09:32:12Z</time>
      </trkpt>
      <trkpt lat="45.47552" lon="4.59037">
        <ele>474</ele>
        <time>2014-11-29T09:32:15Z</time>
      </trkpt>
      <trkpt lat="45.47554" lon="4.59042">
        <ele>474</ele>
        <time>2014-11-29T09:32:18Z</time>
      </trkpt>
      <trkpt lat="45.47555" lon="4.59047">
        <ele>475</ele>
        <time>2014-11-29T09:32:21Z</time>
      </trkpt>
      <trkpt lat="45.47557" lon="4.59051">
        <ele>475</ele>
        <time>2014-11-29T09:32:24Z</time>
      </trkpt>
      <trkpt lat="45.47559" lon="4.59055">
        <ele>476</ele>
        <time>2014-11-29T09:32:28Z</time>
      </trkpt>
      <trkpt lat="45.47561" lon="4.59057">
        <ele>477</ele>
        <time>2014-11-29T09:32:42Z</time>
      </trkpt>
      <trkpt lat="45.47562" lon="4.59058">
        <ele>480</ele>
        <time>2014-11-29T09:33:07Z</time>
      </trkpt>
      <trkpt lat="45.47561" lon="4.5906">
        <ele>480</ele>
        <time>2014-11-29T09:33:21Z</time>
      </trkpt>
      <trkpt lat="45.4756" lon="4.59059">
        <ele>481</ele>
        <time>2014-11-29T09:33:44Z</time>
      </trkpt>
      <trkpt lat="45.47561" lon="4.59061">
        <ele>481</ele>
        <time>2014-11-29T09:34:19Z</time>
      </trkpt>
      <trkpt lat="45.47562" lon="4.5906">
        <ele>481</ele>
        <time>2014-11-29T09:34:33Z</time>
      </trkpt>
      <trkpt lat="45.47563" lon="4.59062">
        <ele>481</ele>
        <time>2014-11-29T09:34:36Z</time>
      </trkpt>
      <trkpt lat="45.47565" lon="4.59067">
        <ele>481</ele>
        <time>2014-11-29T09:34:39Z</time>
      </trkpt>
      <trkpt lat="45.47569" lon="4.59073">
        <ele>481</ele>
        <time>2014-11-29T09:34:42Z</time>
      </trkpt>
      <trkpt lat="45.47572" lon="4.59082">
        <ele>481</ele>
        <time>2014-11-29T09:34:45Z</time>
      </trkpt>
      <trkpt lat="45.47575" lon="4.59091">
        <ele>481</ele>
        <time>2014-11-29T09:34:48Z</time>
      </trkpt>
      <trkpt lat="45.47578" lon="4.59099">
        <ele>481</ele>
        <time>2014-11-29T09:34:51Z</time>
      </trkpt>
      <trkpt lat="45.47582" lon="4.59108">
        <ele>481</ele>
        <time>2014-11-29T09:34:54Z</time>
      </trkpt>
      <trkpt lat="45.47586" lon="4.59116">
        <ele>481</ele>
        <time>2014-11-29T09:34:57Z</time>
      </trkpt>
      <trkpt lat="45.47591" lon="4.59122">
        <ele>481</ele>
        <time>2014-11-29T09:35:00Z</time>
      </trkpt>
      <trkpt lat="45.47596" lon="4.59131">
        <ele>481</ele>
        <time>2014-11-29T09:35:03Z</time>
      </trkpt>
      <trkpt lat="45.47599" lon="4.59142">
        <ele>481</ele>
        <time>2014-11-29T09:35:06Z</time>
      </trkpt>
      <trkpt lat="45.47601" lon="4.59153">
        <ele>481</ele>
        <time>2014-11-29T09:35:09Z</time>
      </trkpt>
      <trkpt lat="45.47604" lon="4.59164">
        <ele>480</ele>
        <time>2014-11-29T09:35:12Z</time>
      </trkpt>
      <trkpt lat="45.47606" lon="4.59176">
        <ele>479</ele>
        <time>2014-11-29T09:35:15Z</time>
      </trkpt>
      <trkpt lat="45.47608" lon="4.59188">
        <ele>479</ele>
        <time>2014-11-29T09:35:18Z</time>
      </trkpt>
      <trkpt lat="45.4761" lon="4.59201">
        <ele>479</ele>
        <time>2014-11-29T09:35:21Z</time>
      </trkpt>
      <trkpt lat="45.47611" lon="4.59213">
        <ele>479</ele>
        <time>2014-11-29T09:35:24Z</time>
      </trkpt>
      <trkpt lat="45.47612" lon="4.59226">
        <ele>479</ele>
        <time>2014-11-29T09:35:27Z</time>
      </trkpt>
      <trkpt lat="45.47615" lon="4.59238">
        <ele>479</ele>
        <time>2014-11-29T09:35:30Z</time>
      </trkpt>
      <trkpt lat="45.4762" lon="4.59248">
        <ele>477</ele>
        <time>2014-11-29T09:35:33Z</time>
      </trkpt>
      <trkpt lat="45.47626" lon="4.59257">
        <ele>476</ele>
        <time>2014-11-29T09:35:36Z</time>
      </trkpt>
      <trkpt lat="45.47631" lon="4.59266">
        <ele>475</ele>
        <time>2014-11-29T09:35:39Z</time>
      </trkpt>
      <trkpt lat="45.47637" lon="4.59274">
        <ele>474</ele>
        <time>2014-11-29T09:35:42Z</time>
      </trkpt>
      <trkpt lat="45.47644" lon="4.59279">
        <ele>474</ele>
        <time>2014-11-29T09:35:45Z</time>
      </trkpt>
      <trkpt lat="45.4765" lon="4.59286">
        <ele>474</ele>
        <time>2014-11-29T09:35:48Z</time>
      </trkpt>
      <trkpt lat="45.47655" lon="4.59295">
        <ele>474</ele>
        <time>2014-11-29T09:35:51Z</time>
      </trkpt>
      <trkpt lat="45.47661" lon="4.59304">
        <ele>473</ele>
        <time>2014-11-29T09:35:54Z</time>
      </trkpt>
      <trkpt lat="45.47667" lon="4.59312">
        <ele>473</ele>
        <time>2014-11-29T09:35:57Z</time>
      </trkpt>
      <trkpt lat="45.47675" lon="4.59319">
        <ele>473</ele>
        <time>2014-11-29T09:36:00Z</time>
      </trkpt>
      <trkpt lat="45.47683" lon="4.59327">
        <ele>473</ele>
        <time>2014-11-29T09:36:03Z</time>
      </trkpt>
      <trkpt lat="45.4769" lon="4.59335">
        <ele>473</ele>
        <time>2014-11-29T09:36:06Z</time>
      </trkpt>
      <trkpt lat="45.47694" lon="4.59343">
        <ele>473</ele>
        <time>2014-11-29T09:36:09Z</time>
      </trkpt>
      <trkpt lat="45.47698" lon="4.59348">
        <ele>473</ele>
        <time>2014-11-29T09:36:13Z</time>
      </trkpt>
      <trkpt lat="45.47701" lon="4.5935">
        <ele>473</ele>
        <time>2014-11-29T09:36:17Z</time>
      </trkpt>
      <trkpt lat="45.47705" lon="4.59357">
        <ele>473</ele>
        <time>2014-11-29T09:36:20Z</time>
      </trkpt>
      <trkpt lat="45.47708" lon="4.59363">
        <ele>473</ele>
        <time>2014-11-29T09:36:23Z</time>
      </trkpt>
      <trkpt lat="45.47709" lon="4.5937">
        <ele>473</ele>
        <time>2014-11-29T09:36:26Z</time>
      </trkpt>
      <trkpt lat="45.47712" lon="4.59379">
        <ele>473</ele>
        <time>2014-11-29T09:36:29Z</time>
      </trkpt>
      <trkpt lat="45.47716" lon="4.59389">
        <ele>473</ele>
        <time>2014-11-29T09:36:32Z</time>
      </trkpt>
      <trkpt lat="45.47721" lon="4.594">
        <ele>473</ele>
        <time>2014-11-29T09:36:35Z</time>
      </trkpt>
      <trkpt lat="45.47724" lon="4.59409">
        <ele>473</ele>
        <time>2014-11-29T09:36:38Z</time>
      </trkpt>
      <trkpt lat="45.47727" lon="4.5942">
        <ele>473</ele>
        <time>2014-11-29T09:36:41Z</time>
      </trkpt>
      <trkpt lat="45.47729" lon="4.59431">
        <ele>473</ele>
        <time>2014-11-29T09:36:44Z</time>
      </trkpt>
      <trkpt lat="45.47734" lon="4.59439">
        <ele>472</ele>
        <time>2014-11-29T09:36:47Z</time>
      </trkpt>
      <trkpt lat="45.47738" lon="4.59437">
        <ele>471</ele>
        <time>2014-11-29T09:36:50Z</time>
      </trkpt>
      <trkpt lat="45.47743" lon="4.59433">
        <ele>469</ele>
        <time>2014-11-29T09:36:53Z</time>
      </trkpt>
      <trkpt lat="45.47748" lon="4.59424">
        <ele>468</ele>
        <time>2014-11-29T09:36:56Z</time>
      </trkpt>
      <trkpt lat="45.47753" lon="4.59416">
        <ele>466</ele>
        <time>2014-11-29T09:36:59Z</time>
      </trkpt>
      <trkpt lat="45.47757" lon="4.59407">
        <ele>466</ele>
        <time>2014-11-29T09:37:02Z</time>
      </trkpt>
      <trkpt lat="45.47759" lon="4.59399">
        <ele>466</ele>
        <time>2014-11-29T09:37:05Z</time>
      </trkpt>
      <trkpt lat="45.47762" lon="4.5939">
        <ele>466</ele>
        <time>2014-11-29T09:37:08Z</time>
      </trkpt>
      <trkpt lat="45.47767" lon="4.59382">
        <ele>466</ele>
        <time>2014-11-29T09:37:11Z</time>
      </trkpt>
      <trkpt lat="45.47771" lon="4.59375">
        <ele>466</ele>
        <time>2014-11-29T09:37:14Z</time>
      </trkpt>
      <trkpt lat="45.47778" lon="4.59369">
        <ele>465</ele>
        <time>2014-11-29T09:37:17Z</time>
      </trkpt>
      <trkpt lat="45.47785" lon="4.59363">
        <ele>465</ele>
        <time>2014-11-29T09:37:20Z</time>
      </trkpt>
      <trkpt lat="45.47792" lon="4.59357">
        <ele>465</ele>
        <time>2014-11-29T09:37:23Z</time>
      </trkpt>
      <trkpt lat="45.47799" lon="4.59352">
        <ele>465</ele>
        <time>2014-11-29T09:37:26Z</time>
      </trkpt>
      <trkpt lat="45.47804" lon="4.59347">
        <ele>465</ele>
        <time>2014-11-29T09:37:29Z</time>
      </trkpt>
      <trkpt lat="45.4781" lon="4.59343">
        <ele>465</ele>
        <time>2014-11-29T09:37:32Z</time>
      </trkpt>
      <trkpt lat="45.47814" lon="4.59341">
        <ele>465</ele>
        <time>2014-11-29T09:37:35Z</time>
      </trkpt>
      <trkpt lat="45.47822" lon="4.59337">
        <ele>465</ele>
        <time>2014-11-29T09:37:38Z</time>
      </trkpt>
      <trkpt lat="45.47831" lon="4.59332">
        <ele>465</ele>
        <time>2014-11-29T09:37:41Z</time>
      </trkpt>
      <trkpt lat="45.47839" lon="4.59328">
        <ele>465</ele>
        <time>2014-11-29T09:37:44Z</time>
      </trkpt>
      <trkpt lat="45.47849" lon="4.59324">
        <ele>465</ele>
        <time>2014-11-29T09:37:47Z</time>
      </trkpt>
      <trkpt lat="45.47858" lon="4.59322">
        <ele>465</ele>
        <time>2014-11-29T09:37:50Z</time>
      </trkpt>
      <trkpt lat="45.47866" lon="4.59319">
        <ele>465</ele>
        <time>2014-11-29T09:37:53Z</time>
      </trkpt>
      <trkpt lat="45.47873" lon="4.59315">
        <ele>465</ele>
        <time>2014-11-29T09:37:56Z</time>
      </trkpt>
      <trkpt lat="45.47881" lon="4.5931">
        <ele>465</ele>
        <time>2014-11-29T09:37:59Z</time>
      </trkpt>
      <trkpt lat="45.47888" lon="4.59303">
        <ele>465</ele>
        <time>2014-11-29T09:38:02Z</time>
      </trkpt>
      <trkpt lat="45.47893" lon="4.59294">
        <ele>465</ele>
        <time>2014-11-29T09:38:05Z</time>
      </trkpt>
      <trkpt lat="45.479" lon="4.59286">
        <ele>466</ele>
        <time>2014-11-29T09:38:08Z</time>
      </trkpt>
      <trkpt lat="45.47905" lon="4.59279">
        <ele>466</ele>
        <time>2014-11-29T09:38:11Z</time>
      </trkpt>
      <trkpt lat="45.4791" lon="4.59274">
        <ele>466</ele>
        <time>2014-11-29T09:38:14Z</time>
      </trkpt>
      <trkpt lat="45.47916" lon="4.5927">
        <ele>466</ele>
        <time>2014-11-29T09:38:17Z</time>
      </trkpt>
      <trkpt lat="45.47925" lon="4.59269">
        <ele>466</ele>
        <time>2014-11-29T09:38:20Z</time>
      </trkpt>
      <trkpt lat="45.47932" lon="4.59271">
        <ele>466</ele>
        <time>2014-11-29T09:38:23Z</time>
      </trkpt>
      <trkpt lat="45.47941" lon="4.59273">
        <ele>466</ele>
        <time>2014-11-29T09:38:26Z</time>
      </trkpt>
      <trkpt lat="45.47949" lon="4.59268">
        <ele>466</ele>
        <time>2014-11-29T09:38:29Z</time>
      </trkpt>
      <trkpt lat="45.47953" lon="4.59256">
        <ele>466</ele>
        <time>2014-11-29T09:38:32Z</time>
      </trkpt>
      <trkpt lat="45.47954" lon="4.59246">
        <ele>466</ele>
        <time>2014-11-29T09:38:35Z</time>
      </trkpt>
      <trkpt lat="45.47955" lon="4.59234">
        <ele>466</ele>
        <time>2014-11-29T09:38:38Z</time>
      </trkpt>
      <trkpt lat="45.47956" lon="4.59222">
        <ele>466</ele>
        <time>2014-11-29T09:38:41Z</time>
      </trkpt>
      <trkpt lat="45.47957" lon="4.59212">
        <ele>466</ele>
        <time>2014-11-29T09:38:44Z</time>
      </trkpt>
      <trkpt lat="45.47958" lon="4.59202">
        <ele>466</ele>
        <time>2014-11-29T09:38:47Z</time>
      </trkpt>
      <trkpt lat="45.4796" lon="4.59192">
        <ele>466</ele>
        <time>2014-11-29T09:38:50Z</time>
      </trkpt>
      <trkpt lat="45.47959" lon="4.59182">
        <ele>466</ele>
        <time>2014-11-29T09:38:53Z</time>
      </trkpt>
      <trkpt lat="45.47959" lon="4.59172">
        <ele>466</ele>
        <time>2014-11-29T09:38:56Z</time>
      </trkpt>
      <trkpt lat="45.47959" lon="4.59162">
        <ele>467</ele>
        <time>2014-11-29T09:38:59Z</time>
      </trkpt>
      <trkpt lat="45.47961" lon="4.59152">
        <ele>468</ele>
        <time>2014-11-29T09:39:02Z</time>
      </trkpt>
      <trkpt lat="45.47965" lon="4.59141">
        <ele>468</ele>
        <time>2014-11-29T09:39:05Z</time>
      </trkpt>
      <trkpt lat="45.47969" lon="4.59132">
        <ele>468</ele>
        <time>2014-11-29T09:39:08Z</time>
      </trkpt>
      <trkpt lat="45.47974" lon="4.59125">
        <ele>468</ele>
        <time>2014-11-29T09:39:11Z</time>
      </trkpt>
      <trkpt lat="45.47981" lon="4.5912">
        <ele>468</ele>
        <time>2014-11-29T09:39:14Z</time>
      </trkpt>
      <trkpt lat="45.47988" lon="4.59118">
        <ele>469</ele>
        <time>2014-11-29T09:39:17Z</time>
      </trkpt>
      <trkpt lat="45.4799" lon="4.59121">
        <ele>469</ele>
        <time>2014-11-29T09:39:21Z</time>
      </trkpt>
      <trkpt lat="45.47997" lon="4.59119">
        <ele>469</ele>
        <time>2014-11-29T09:39:24Z</time>
      </trkpt>
      <trkpt lat="45.48004" lon="4.59116">
        <ele>469</ele>
        <time>2014-11-29T09:39:27Z</time>
      </trkpt>
      <trkpt lat="45.48011" lon="4.59114">
        <ele>469</ele>
        <time>2014-11-29T09:39:30Z</time>
      </trkpt>
      <trkpt lat="45.48018" lon="4.59112">
        <ele>469</ele>
        <time>2014-11-29T09:39:33Z</time>
      </trkpt>
      <trkpt lat="45.48026" lon="4.5911">
        <ele>470</ele>
        <time>2014-11-29T09:39:36Z</time>
      </trkpt>
      <trkpt lat="45.48031" lon="4.59108">
        <ele>470</ele>
        <time>2014-11-29T09:39:39Z</time>
      </trkpt>
      <trkpt lat="45.48036" lon="4.59104">
        <ele>470</ele>
        <time>2014-11-29T09:39:42Z</time>
      </trkpt>
      <trkpt lat="45.48042" lon="4.59102">
        <ele>470</ele>
        <time>2014-11-29T09:39:45Z</time>
      </trkpt>
      <trkpt lat="45.48049" lon="4.59101">
        <ele>470</ele>
        <time>2014-11-29T09:39:48Z</time>
      </trkpt>
      <trkpt lat="45.48056" lon="4.59101">
        <ele>470</ele>
        <time>2014-11-29T09:39:51Z</time>
      </trkpt>
      <trkpt lat="45.48061" lon="4.59102">
        <ele>470</ele>
        <time>2014-11-29T09:39:54Z</time>
      </trkpt>
      <trkpt lat="45.48066" lon="4.59101">
        <ele>470</ele>
        <time>2014-11-29T09:39:58Z</time>
      </trkpt>
      <trkpt lat="45.48072" lon="4.591">
        <ele>470</ele>
        <time>2014-11-29T09:40:01Z</time>
      </trkpt>
      <trkpt lat="45.48079" lon="4.591">
        <ele>470</ele>
        <time>2014-11-29T09:40:04Z</time>
      </trkpt>
      <trkpt lat="45.48086" lon="4.59099">
        <ele>470</ele>
        <time>2014-11-29T09:40:07Z</time>
      </trkpt>
      <trkpt lat="45.48095" lon="4.59098">
        <ele>470</ele>
        <time>2014-11-29T09:40:10Z</time>
      </trkpt>
      <trkpt lat="45.48104" lon="4.59096">
        <ele>470</ele>
        <time>2014-11-29T09:40:13Z</time>
      </trkpt>
      <trkpt lat="45.48112" lon="4.59095">
        <ele>470</ele>
        <time>2014-11-29T09:40:16Z</time>
      </trkpt>
      <trkpt lat="45.48119" lon="4.59094">
        <ele>470</ele>
        <time>2014-11-29T09:40:19Z</time>
      </trkpt>
      <trkpt lat="45.48127" lon="4.59093">
        <ele>470</ele>
        <time>2014-11-29T09:40:22Z</time>
      </trkpt>
      <trkpt lat="45.48134" lon="4.59092">
        <ele>470</ele>
        <time>2014-11-29T09:40:25Z</time>
      </trkpt>
      <trkpt lat="45.48141" lon="4.59092">
        <ele>470</ele>
        <time>2014-11-29T09:40:28Z</time>
      </trkpt>
      <trkpt lat="45.48148" lon="4.59091">
        <ele>470</ele>
        <time>2014-11-29T09:40:31Z</time>
      </trkpt>
      <trkpt lat="45.48155" lon="4.5909">
        <ele>470</ele>
        <time>2014-11-29T09:40:34Z</time>
      </trkpt>
      <trkpt lat="45.48161" lon="4.59089">
        <ele>470</ele>
        <time>2014-11-29T09:40:37Z</time>
      </trkpt>
      <trkpt lat="45.48166" lon="4.59088">
        <ele>470</ele>
        <time>2014-11-29T09:40:40Z</time>
      </trkpt>
      <trkpt lat="45.48172" lon="4.59088">
        <ele>470</ele>
        <time>2014-11-29T09:40:43Z</time>
      </trkpt>
      <trkpt lat="45.48178" lon="4.59087">
        <ele>470</ele>
        <time>2014-11-29T09:40:46Z</time>
      </trkpt>
      <trkpt lat="45.48185" lon="4.59086">
        <ele>470</ele>
        <time>2014-11-29T09:40:49Z</time>
      </trkpt>
      <trkpt lat="45.48191" lon="4.59084">
        <ele>470</ele>
        <time>2014-11-29T09:40:52Z</time>
      </trkpt>
      <trkpt lat="45.48197" lon="4.59082">
        <ele>471</ele>
        <time>2014-11-29T09:40:55Z</time>
      </trkpt>
      <trkpt lat="45.48204" lon="4.59081">
        <ele>471</ele>
        <time>2014-11-29T09:40:58Z</time>
      </trkpt>
      <trkpt lat="45.48211" lon="4.5908">
        <ele>471</ele>
        <time>2014-11-29T09:41:01Z</time>
      </trkpt>
      <trkpt lat="45.48215" lon="4.59077">
        <ele>472</ele>
        <time>2014-11-29T09:41:04Z</time>
      </trkpt>
      <trkpt lat="45.48221" lon="4.59075">
        <ele>473</ele>
        <time>2014-11-29T09:41:07Z</time>
      </trkpt>
      <trkpt lat="45.48224" lon="4.59073">
        <ele>474</ele>
        <time>2014-11-29T09:41:10Z</time>
      </trkpt>
      <trkpt lat="45.48228" lon="4.59071">
        <ele>475</ele>
        <time>2014-11-29T09:41:14Z</time>
      </trkpt>
      <trkpt lat="45.48231" lon="4.59071">
        <ele>475</ele>
        <time>2014-11-29T09:41:17Z</time>
      </trkpt>
      <trkpt lat="45.48234" lon="4.5907">
        <ele>475</ele>
        <time>2014-11-29T09:41:20Z</time>
      </trkpt>
      <trkpt lat="45.48238" lon="4.59068">
        <ele>475</ele>
        <time>2014-11-29T09:41:24Z</time>
      </trkpt>
      <trkpt lat="45.48241" lon="4.59067">
        <ele>475</ele>
        <time>2014-11-29T09:41:28Z</time>
      </trkpt>
      <trkpt lat="45.48242" lon="4.59066">
        <ele>476</ele>
        <time>2014-11-29T09:41:51Z</time>
      </trkpt>
      <trkpt lat="45.48244" lon="4.59066">
        <ele>476</ele>
        <time>2014-11-29T09:41:58Z</time>
      </trkpt>
      <trkpt lat="45.48246" lon="4.59064">
        <ele>477</ele>
        <time>2014-11-29T09:42:01Z</time>
      </trkpt>
      <trkpt lat="45.4825" lon="4.59063">
        <ele>477</ele>
        <time>2014-11-29T09:42:05Z</time>
      </trkpt>
      <trkpt lat="45.48253" lon="4.59062">
        <ele>477</ele>
        <time>2014-11-29T09:42:08Z</time>
      </trkpt>
      <trkpt lat="45.48257" lon="4.59061">
        <ele>477</ele>
        <time>2014-11-29T09:42:12Z</time>
      </trkpt>
      <trkpt lat="45.48261" lon="4.59059">
        <ele>477</ele>
        <time>2014-11-29T09:42:16Z</time>
      </trkpt>
      <trkpt lat="45.48265" lon="4.59058">
        <ele>477</ele>
        <time>2014-11-29T09:42:20Z</time>
      </trkpt>
      <trkpt lat="45.48269" lon="4.59057">
        <ele>477</ele>
        <time>2014-11-29T09:42:24Z</time>
      </trkpt>
      <trkpt lat="45.48272" lon="4.59055">
        <ele>477</ele>
        <time>2014-11-29T09:42:28Z</time>
      </trkpt>
      <trkpt lat="45.48276" lon="4.59054">
        <ele>477</ele>
        <time>2014-11-29T09:42:32Z</time>
      </trkpt>
      <trkpt lat="45.4828" lon="4.59053">
        <ele>477</ele>
        <time>2014-11-29T09:42:35Z</time>
      </trkpt>
      <trkpt lat="45.48283" lon="4.59051">
        <ele>477</ele>
        <time>2014-11-29T09:42:38Z</time>
      </trkpt>
      <trkpt lat="45.48287" lon="4.5905">
        <ele>477</ele>
        <time>2014-11-29T09:42:42Z</time>
      </trkpt>
      <trkpt lat="45.4829" lon="4.59049">
        <ele>477</ele>
        <time>2014-11-29T09:42:46Z</time>
      </trkpt>
      <trkpt lat="45.48293" lon="4.59047">
        <ele>477</ele>
        <time>2014-11-29T09:42:50Z</time>
      </trkpt>
      <trkpt lat="45.48296" lon="4.59045">
        <ele>477</ele>
        <time>2014-11-29T09:42:53Z</time>
      </trkpt>
      <trkpt lat="45.483" lon="4.59043">
        <ele>477</ele>
        <time>2014-11-29T09:42:57Z</time>
      </trkpt>
      <trkpt lat="45.48303" lon="4.59041">
        <ele>477</ele>
        <time>2014-11-29T09:43:00Z</time>
      </trkpt>
      <trkpt lat="45.48307" lon="4.5904">
        <ele>477</ele>
        <time>2014-11-29T09:43:03Z</time>
      </trkpt>
      <trkpt lat="45.48309" lon="4.59038">
        <ele>477</ele>
        <time>2014-11-29T09:43:06Z</time>
      </trkpt>
      <trkpt lat="45.48312" lon="4.59036">
        <ele>478</ele>
        <time>2014-11-29T09:43:12Z</time>
      </trkpt>
      <trkpt lat="45.48317" lon="4.59034">
        <ele>478</ele>
        <time>2014-11-29T09:43:15Z</time>
      </trkpt>
      <trkpt lat="45.48323" lon="4.59032">
        <ele>478</ele>
        <time>2014-11-29T09:43:18Z</time>
      </trkpt>
      <trkpt lat="45.48331" lon="4.59028">
        <ele>478</ele>
        <time>2014-11-29T09:43:22Z</time>
      </trkpt>
      <trkpt lat="45.4834" lon="4.59024">
        <ele>478</ele>
        <time>2014-11-29T09:43:26Z</time>
      </trkpt>
      <trkpt lat="45.48346" lon="4.59021">
        <ele>478</ele>
        <time>2014-11-29T09:43:29Z</time>
      </trkpt>
      <trkpt lat="45.48355" lon="4.59017">
        <ele>478</ele>
        <time>2014-11-29T09:43:33Z</time>
      </trkpt>
      <trkpt lat="45.4836" lon="4.59014">
        <ele>478</ele>
        <time>2014-11-29T09:43:36Z</time>
      </trkpt>
      <trkpt lat="45.48368" lon="4.59011">
        <ele>478</ele>
        <time>2014-11-29T09:43:40Z</time>
      </trkpt>
      <trkpt lat="45.48374" lon="4.59008">
        <ele>478</ele>
        <time>2014-11-29T09:43:43Z</time>
      </trkpt>
      <trkpt lat="45.48382" lon="4.59005">
        <ele>479</ele>
        <time>2014-11-29T09:43:47Z</time>
      </trkpt>
      <trkpt lat="45.48386" lon="4.59003">
        <ele>479</ele>
        <time>2014-11-29T09:43:50Z</time>
      </trkpt>
      <trkpt lat="45.48394" lon="4.59002">
        <ele>479</ele>
        <time>2014-11-29T09:43:54Z</time>
      </trkpt>
      <trkpt lat="45.48403" lon="4.59001">
        <ele>479</ele>
        <time>2014-11-29T09:43:58Z</time>
      </trkpt>
      <trkpt lat="45.4841" lon="4.59002">
        <ele>479</ele>
        <time>2014-11-29T09:44:01Z</time>
      </trkpt>
      <trkpt lat="45.48418" lon="4.59003">
        <ele>479</ele>
        <time>2014-11-29T09:44:04Z</time>
      </trkpt>
      <trkpt lat="45.48427" lon="4.59006">
        <ele>479</ele>
        <time>2014-11-29T09:44:08Z</time>
      </trkpt>
      <trkpt lat="45.48434" lon="4.59008">
        <ele>479</ele>
        <time>2014-11-29T09:44:11Z</time>
      </trkpt>
      <trkpt lat="45.48443" lon="4.59011">
        <ele>479</ele>
        <time>2014-11-29T09:44:15Z</time>
      </trkpt>
      <trkpt lat="45.4845" lon="4.59013">
        <ele>479</ele>
        <time>2014-11-29T09:44:18Z</time>
      </trkpt>
      <trkpt lat="45.48456" lon="4.59015">
        <ele>479</ele>
        <time>2014-11-29T09:44:21Z</time>
      </trkpt>
      <trkpt lat="45.48466" lon="4.59019">
        <ele>479</ele>
        <time>2014-11-29T09:44:25Z</time>
      </trkpt>
      <trkpt lat="45.48473" lon="4.59021">
        <ele>479</ele>
        <time>2014-11-29T09:44:28Z</time>
      </trkpt>
      <trkpt lat="45.48479" lon="4.59024">
        <ele>479</ele>
        <time>2014-11-29T09:44:31Z</time>
      </trkpt>
      <trkpt lat="45.48486" lon="4.59028">
        <ele>479</ele>
        <time>2014-11-29T09:44:34Z</time>
      </trkpt>
      <trkpt lat="45.48493" lon="4.59032">
        <ele>479</ele>
        <time>2014-11-29T09:44:37Z</time>
      </trkpt>
      <trkpt lat="45.48502" lon="4.59037">
        <ele>477</ele>
        <time>2014-11-29T09:44:41Z</time>
      </trkpt>
      <trkpt lat="45.48507" lon="4.59043">
        <ele>476</ele>
        <time>2014-11-29T09:44:44Z</time>
      </trkpt>
      <trkpt lat="45.4851" lon="4.59051">
        <ele>474</ele>
        <time>2014-11-29T09:44:47Z</time>
      </trkpt>
      <trkpt lat="45.48513" lon="4.59059">
        <ele>473</ele>
        <time>2014-11-29T09:44:50Z</time>
      </trkpt>
      <trkpt lat="45.48517" lon="4.59068">
        <ele>473</ele>
        <time>2014-11-29T09:44:53Z</time>
      </trkpt>
      <trkpt lat="45.48524" lon="4.59081">
        <ele>473</ele>
        <time>2014-11-29T09:44:57Z</time>
      </trkpt>
      <trkpt lat="45.48529" lon="4.5909">
        <ele>473</ele>
        <time>2014-11-29T09:45:00Z</time>
      </trkpt>
      <trkpt lat="45.48532" lon="4.591">
        <ele>473</ele>
        <time>2014-11-29T09:45:03Z</time>
      </trkpt>
      <trkpt lat="45.48538" lon="4.59113">
        <ele>473</ele>
        <time>2014-11-29T09:45:07Z</time>
      </trkpt>
      <trkpt lat="45.48541" lon="4.59122">
        <ele>473</ele>
        <time>2014-11-29T09:45:10Z</time>
      </trkpt>
      <trkpt lat="45.48542" lon="4.59131">
        <ele>473</ele>
        <time>2014-11-29T09:45:13Z</time>
      </trkpt>
      <trkpt lat="45.48544" lon="4.59142">
        <ele>473</ele>
        <time>2014-11-29T09:45:17Z</time>
      </trkpt>
      <trkpt lat="45.48549" lon="4.5915">
        <ele>473</ele>
        <time>2014-11-29T09:45:20Z</time>
      </trkpt>
      <trkpt lat="45.48552" lon="4.59158">
        <ele>473</ele>
        <time>2014-11-29T09:45:23Z</time>
      </trkpt>
      <trkpt lat="45.48557" lon="4.59166">
        <ele>473</ele>
        <time>2014-11-29T09:45:26Z</time>
      </trkpt>
      <trkpt lat="45.48563" lon="4.59177">
        <ele>473</ele>
        <time>2014-11-29T09:45:30Z</time>
      </trkpt>
      <trkpt lat="45.4857" lon="4.59188">
        <ele>473</ele>
        <time>2014-11-29T09:45:34Z</time>
      </trkpt>
      <trkpt lat="45.48575" lon="4.59196">
        <ele>473</ele>
        <time>2014-11-29T09:45:37Z</time>
      </trkpt>
      <trkpt lat="45.4858" lon="4.59203">
        <ele>473</ele>
        <time>2014-11-29T09:45:40Z</time>
      </trkpt>
      <trkpt lat="45.48585" lon="4.59209">
        <ele>473</ele>
        <time>2014-11-29T09:45:43Z</time>
      </trkpt>
      <trkpt lat="45.4859" lon="4.59215">
        <ele>473</ele>
        <time>2014-11-29T09:45:46Z</time>
      </trkpt>
      <trkpt lat="45.48597" lon="4.59221">
        <ele>472</ele>
        <time>2014-11-29T09:45:49Z</time>
      </trkpt>
      <trkpt lat="45.48604" lon="4.59227">
        <ele>472</ele>
        <time>2014-11-29T09:45:52Z</time>
      </trkpt>
      <trkpt lat="45.48609" lon="4.59235">
        <ele>472</ele>
        <time>2014-11-29T09:45:55Z</time>
      </trkpt>
      <trkpt lat="45.48617" lon="4.59244">
        <ele>471</ele>
        <time>2014-11-29T09:45:59Z</time>
      </trkpt>
      <trkpt lat="45.48624" lon="4.59251">
        <ele>470</ele>
        <time>2014-11-29T09:46:02Z</time>
      </trkpt>
      <trkpt lat="45.48632" lon="4.59258">
        <ele>470</ele>
        <time>2014-11-29T09:46:05Z</time>
      </trkpt>
      <trkpt lat="45.48641" lon="4.59266">
        <ele>470</ele>
        <time>2014-11-29T09:46:09Z</time>
      </trkpt>
      <trkpt lat="45.48648" lon="4.59272">
        <ele>470</ele>
        <time>2014-11-29T09:46:12Z</time>
      </trkpt>
      <trkpt lat="45.48655" lon="4.59278">
        <ele>470</ele>
        <time>2014-11-29T09:46:15Z</time>
      </trkpt>
      <trkpt lat="45.48663" lon="4.59288">
        <ele>470</ele>
        <time>2014-11-29T09:46:19Z</time>
      </trkpt>
      <trkpt lat="45.4867" lon="4.59294">
        <ele>470</ele>
        <time>2014-11-29T09:46:22Z</time>
      </trkpt>
      <trkpt lat="45.48677" lon="4.59301">
        <ele>470</ele>
        <time>2014-11-29T09:46:25Z</time>
      </trkpt>
      <trkpt lat="45.48685" lon="4.59309">
        <ele>470</ele>
        <time>2014-11-29T09:46:29Z</time>
      </trkpt>
      <trkpt lat="45.48692" lon="4.59315">
        <ele>469</ele>
        <time>2014-11-29T09:46:32Z</time>
      </trkpt>
      <trkpt lat="45.48698" lon="4.59321">
        <ele>469</ele>
        <time>2014-11-29T09:46:35Z</time>
      </trkpt>
      <trkpt lat="45.48707" lon="4.5933">
        <ele>469</ele>
        <time>2014-11-29T09:46:39Z</time>
      </trkpt>
      <trkpt lat="45.48714" lon="4.59335">
        <ele>468</ele>
        <time>2014-11-29T09:46:42Z</time>
      </trkpt>
      <trkpt lat="45.48721" lon="4.5934">
        <ele>468</ele>
        <time>2014-11-29T09:46:45Z</time>
      </trkpt>
      <trkpt lat="45.48727" lon="4.59344">
        <ele>468</ele>
        <time>2014-11-29T09:46:48Z</time>
      </trkpt>
      <trkpt lat="45.48733" lon="4.59347">
        <ele>468</ele>
        <time>2014-11-29T09:46:51Z</time>
      </trkpt>
      <trkpt lat="45.48741" lon="4.59352">
        <ele>468</ele>
        <time>2014-11-29T09:46:55Z</time>
      </trkpt>
      <trkpt lat="45.48748" lon="4.59355">
        <ele>468</ele>
        <time>2014-11-29T09:46:58Z</time>
      </trkpt>
      <trkpt lat="45.48756" lon="4.59358">
        <ele>467</ele>
        <time>2014-11-29T09:47:01Z</time>
      </trkpt>
      <trkpt lat="45.48766" lon="4.59361">
        <ele>467</ele>
        <time>2014-11-29T09:47:05Z</time>
      </trkpt>
      <trkpt lat="45.48774" lon="4.59363">
        <ele>467</ele>
        <time>2014-11-29T09:47:08Z</time>
      </trkpt>
      <trkpt lat="45.4878" lon="4.59363">
        <ele>467</ele>
        <time>2014-11-29T09:47:11Z</time>
      </trkpt>
      <trkpt lat="45.48789" lon="4.59364">
        <ele>467</ele>
        <time>2014-11-29T09:47:15Z</time>
      </trkpt>
      <trkpt lat="45.48796" lon="4.59363">
        <ele>466</ele>
        <time>2014-11-29T09:47:18Z</time>
      </trkpt>
      <trkpt lat="45.48804" lon="4.59363">
        <ele>466</ele>
        <time>2014-11-29T09:47:21Z</time>
      </trkpt>
      <trkpt lat="45.48811" lon="4.59366">
        <ele>465</ele>
        <time>2014-11-29T09:47:24Z</time>
      </trkpt>
      <trkpt lat="45.48818" lon="4.5937">
        <ele>464</ele>
        <time>2014-11-29T09:47:27Z</time>
      </trkpt>
      <trkpt lat="45.48825" lon="4.59374">
        <ele>464</ele>
        <time>2014-11-29T09:47:30Z</time>
      </trkpt>
      <trkpt lat="45.48832" lon="4.5938">
        <ele>463</ele>
        <time>2014-11-29T09:47:33Z</time>
      </trkpt>
      <trkpt lat="45.48838" lon="4.59385">
        <ele>463</ele>
        <time>2014-11-29T09:47:36Z</time>
      </trkpt>
      <trkpt lat="45.48847" lon="4.59393">
        <ele>462</ele>
        <time>2014-11-29T09:47:40Z</time>
      </trkpt>
      <trkpt lat="45.48853" lon="4.59401">
        <ele>462</ele>
        <time>2014-11-29T09:47:43Z</time>
      </trkpt>
      <trkpt lat="45.48857" lon="4.59409">
        <ele>462</ele>
        <time>2014-11-29T09:47:46Z</time>
      </trkpt>
      <trkpt lat="45.48862" lon="4.59417">
        <ele>462</ele>
        <time>2014-11-29T09:47:49Z</time>
      </trkpt>
      <trkpt lat="45.48868" lon="4.59426">
        <ele>462</ele>
        <time>2014-11-29T09:47:52Z</time>
      </trkpt>
      <trkpt lat="45.48875" lon="4.59433">
        <ele>461</ele>
        <time>2014-11-29T09:47:55Z</time>
      </trkpt>
      <trkpt lat="45.4888" lon="4.59441">
        <ele>461</ele>
        <time>2014-11-29T09:47:58Z</time>
      </trkpt>
      <trkpt lat="45.48885" lon="4.59449">
        <ele>461</ele>
        <time>2014-11-29T09:48:01Z</time>
      </trkpt>
      <trkpt lat="45.48893" lon="4.5946">
        <ele>461</ele>
        <time>2014-11-29T09:48:05Z</time>
      </trkpt>
      <trkpt lat="45.48898" lon="4.59468">
        <ele>461</ele>
        <time>2014-11-29T09:48:08Z</time>
      </trkpt>
      <trkpt lat="45.48905" lon="4.59479">
        <ele>461</ele>
        <time>2014-11-29T09:48:12Z</time>
      </trkpt>
      <trkpt lat="45.48911" lon="4.59487">
        <ele>461</ele>
        <time>2014-11-29T09:48:15Z</time>
      </trkpt>
      <trkpt lat="45.48916" lon="4.59495">
        <ele>461</ele>
        <time>2014-11-29T09:48:18Z</time>
      </trkpt>
      <trkpt lat="45.48922" lon="4.59503">
        <ele>461</ele>
        <time>2014-11-29T09:48:21Z</time>
      </trkpt>
      <trkpt lat="45.48928" lon="4.59511">
        <ele>461</ele>
        <time>2014-11-29T09:48:24Z</time>
      </trkpt>
      <trkpt lat="45.48934" lon="4.59519">
        <ele>461</ele>
        <time>2014-11-29T09:48:27Z</time>
      </trkpt>
      <trkpt lat="45.48938" lon="4.59527">
        <ele>461</ele>
        <time>2014-11-29T09:48:30Z</time>
      </trkpt>
      <trkpt lat="45.48943" lon="4.59536">
        <ele>461</ele>
        <time>2014-11-29T09:48:33Z</time>
      </trkpt>
      <trkpt lat="45.48948" lon="4.59544">
        <ele>461</ele>
        <time>2014-11-29T09:48:36Z</time>
      </trkpt>
      <trkpt lat="45.48952" lon="4.59552">
        <ele>461</ele>
        <time>2014-11-29T09:48:39Z</time>
      </trkpt>
      <trkpt lat="45.48957" lon="4.59559">
        <ele>461</ele>
        <time>2014-11-29T09:48:42Z</time>
      </trkpt>
      <trkpt lat="45.48963" lon="4.59567">
        <ele>461</ele>
        <time>2014-11-29T09:48:45Z</time>
      </trkpt>
      <trkpt lat="45.48969" lon="4.59576">
        <ele>461</ele>
        <time>2014-11-29T09:48:48Z</time>
      </trkpt>
      <trkpt lat="45.48972" lon="4.59584">
        <ele>461</ele>
        <time>2014-11-29T09:48:51Z</time>
      </trkpt>
      <trkpt lat="45.48976" lon="4.59593">
        <ele>461</ele>
        <time>2014-11-29T09:48:54Z</time>
      </trkpt>
      <trkpt lat="45.4898" lon="4.59602">
        <ele>461</ele>
        <time>2014-11-29T09:48:57Z</time>
      </trkpt>
      <trkpt lat="45.48983" lon="4.59613">
        <ele>460</ele>
        <time>2014-11-29T09:49:00Z</time>
      </trkpt>
      <trkpt lat="45.48986" lon="4.59623">
        <ele>460</ele>
        <time>2014-11-29T09:49:03Z</time>
      </trkpt>
      <trkpt lat="45.48988" lon="4.59633">
        <ele>459</ele>
        <time>2014-11-29T09:49:06Z</time>
      </trkpt>
      <trkpt lat="45.48991" lon="4.59642">
        <ele>459</ele>
        <time>2014-11-29T09:49:09Z</time>
      </trkpt>
      <trkpt lat="45.48992" lon="4.59651">
        <ele>459</ele>
        <time>2014-11-29T09:49:12Z</time>
      </trkpt>
      <trkpt lat="45.48993" lon="4.59661">
        <ele>459</ele>
        <time>2014-11-29T09:49:15Z</time>
      </trkpt>
      <trkpt lat="45.48991" lon="4.59669">
        <ele>459</ele>
        <time>2014-11-29T09:49:18Z</time>
      </trkpt>
      <trkpt lat="45.48984" lon="4.59673">
        <ele>459</ele>
        <time>2014-11-29T09:49:21Z</time>
      </trkpt>
      <trkpt lat="45.48978" lon="4.59677">
        <ele>459</ele>
        <time>2014-11-29T09:49:24Z</time>
      </trkpt>
      <trkpt lat="45.48974" lon="4.5968">
        <ele>459</ele>
        <time>2014-11-29T09:49:27Z</time>
      </trkpt>
      <trkpt lat="45.48968" lon="4.59685">
        <ele>459</ele>
        <time>2014-11-29T09:49:31Z</time>
      </trkpt>
      <trkpt lat="45.48964" lon="4.59689">
        <ele>459</ele>
        <time>2014-11-29T09:49:35Z</time>
      </trkpt>
      <trkpt lat="45.4896" lon="4.59692">
        <ele>459</ele>
        <time>2014-11-29T09:49:38Z</time>
      </trkpt>
      <trkpt lat="45.48957" lon="4.59699">
        <ele>459</ele>
        <time>2014-11-29T09:49:41Z</time>
      </trkpt>
      <trkpt lat="45.48954" lon="4.59707">
        <ele>459</ele>
        <time>2014-11-29T09:49:44Z</time>
      </trkpt>
      <trkpt lat="45.48951" lon="4.59715">
        <ele>459</ele>
        <time>2014-11-29T09:49:47Z</time>
      </trkpt>
      <trkpt lat="45.48948" lon="4.59724">
        <ele>459</ele>
        <time>2014-11-29T09:49:50Z</time>
      </trkpt>
      <trkpt lat="45.48944" lon="4.59732">
        <ele>459</ele>
        <time>2014-11-29T09:49:53Z</time>
      </trkpt>
      <trkpt lat="45.4894" lon="4.59742">
        <ele>459</ele>
        <time>2014-11-29T09:49:57Z</time>
      </trkpt>
      <trkpt lat="45.48936" lon="4.59751">
        <ele>459</ele>
        <time>2014-11-29T09:50:00Z</time>
      </trkpt>
      <trkpt lat="45.48933" lon="4.59758">
        <ele>459</ele>
        <time>2014-11-29T09:50:03Z</time>
      </trkpt>
      <trkpt lat="45.48926" lon="4.59767">
        <ele>459</ele>
        <time>2014-11-29T09:50:07Z</time>
      </trkpt>
      <trkpt lat="45.48921" lon="4.59772">
        <ele>459</ele>
        <time>2014-11-29T09:50:10Z</time>
      </trkpt>
      <trkpt lat="45.48915" lon="4.59777">
        <ele>459</ele>
        <time>2014-11-29T09:50:13Z</time>
      </trkpt>
      <trkpt lat="45.48907" lon="4.59783">
        <ele>459</ele>
        <time>2014-11-29T09:50:17Z</time>
      </trkpt>
      <trkpt lat="45.48901" lon="4.59787">
        <ele>459</ele>
        <time>2014-11-29T09:50:20Z</time>
      </trkpt>
      <trkpt lat="45.48896" lon="4.5979">
        <ele>459</ele>
        <time>2014-11-29T09:50:23Z</time>
      </trkpt>
      <trkpt lat="45.48887" lon="4.59795">
        <ele>459</ele>
        <time>2014-11-29T09:50:27Z</time>
      </trkpt>
      <trkpt lat="45.48882" lon="4.59798">
        <ele>460</ele>
        <time>2014-11-29T09:50:30Z</time>
      </trkpt>
      <trkpt lat="45.48878" lon="4.59801">
        <ele>460</ele>
        <time>2014-11-29T09:50:33Z</time>
      </trkpt>
      <trkpt lat="45.48873" lon="4.59806">
        <ele>461</ele>
        <time>2014-11-29T09:50:38Z</time>
      </trkpt>
      <trkpt lat="45.48865" lon="4.5981">
        <ele>461</ele>
        <time>2014-11-29T09:50:42Z</time>
      </trkpt>
      <trkpt lat="45.48859" lon="4.59815">
        <ele>461</ele>
        <time>2014-11-29T09:50:45Z</time>
      </trkpt>
      <trkpt lat="45.48852" lon="4.5982">
        <ele>461</ele>
        <time>2014-11-29T09:50:48Z</time>
      </trkpt>
      <trkpt lat="45.48844" lon="4.59827">
        <ele>461</ele>
        <time>2014-11-29T09:50:52Z</time>
      </trkpt>
      <trkpt lat="45.48837" lon="4.59833">
        <ele>462</ele>
        <time>2014-11-29T09:50:56Z</time>
      </trkpt>
      <trkpt lat="45.4883" lon="4.59837">
        <ele>462</ele>
        <time>2014-11-29T09:50:59Z</time>
      </trkpt>
      <trkpt lat="45.48823" lon="4.59844">
        <ele>463</ele>
        <time>2014-11-29T09:51:03Z</time>
      </trkpt>
      <trkpt lat="45.48817" lon="4.59847">
        <ele>463</ele>
        <time>2014-11-29T09:51:06Z</time>
      </trkpt>
      <trkpt lat="45.48811" lon="4.59852">
        <ele>463</ele>
        <time>2014-11-29T09:51:09Z</time>
      </trkpt>
      <trkpt lat="45.48802" lon="4.59857">
        <ele>463</ele>
        <time>2014-11-29T09:51:13Z</time>
      </trkpt>
      <trkpt lat="45.48796" lon="4.59861">
        <ele>463</ele>
        <time>2014-11-29T09:51:16Z</time>
      </trkpt>
      <trkpt lat="45.4879" lon="4.59864">
        <ele>463</ele>
        <time>2014-11-29T09:51:19Z</time>
      </trkpt>
      <trkpt lat="45.48782" lon="4.5987">
        <ele>463</ele>
        <time>2014-11-29T09:51:23Z</time>
      </trkpt>
      <trkpt lat="45.48777" lon="4.59874">
        <ele>463</ele>
        <time>2014-11-29T09:51:26Z</time>
      </trkpt>
      <trkpt lat="45.48771" lon="4.59877">
        <ele>463</ele>
        <time>2014-11-29T09:51:29Z</time>
      </trkpt>
      <trkpt lat="45.48766" lon="4.59882">
        <ele>463</ele>
        <time>2014-11-29T09:51:32Z</time>
      </trkpt>
      <trkpt lat="45.48761" lon="4.59885">
        <ele>463</ele>
        <time>2014-11-29T09:51:35Z</time>
      </trkpt>
      <trkpt lat="45.48756" lon="4.59888">
        <ele>463</ele>
        <time>2014-11-29T09:51:38Z</time>
      </trkpt>
      <trkpt lat="45.48752" lon="4.59891">
        <ele>463</ele>
        <time>2014-11-29T09:51:41Z</time>
      </trkpt>
      <trkpt lat="45.48746" lon="4.59895">
        <ele>463</ele>
        <time>2014-11-29T09:51:44Z</time>
      </trkpt>
      <trkpt lat="45.48741" lon="4.59898">
        <ele>463</ele>
        <time>2014-11-29T09:51:47Z</time>
      </trkpt>
      <trkpt lat="45.48735" lon="4.59902">
        <ele>463</ele>
        <time>2014-11-29T09:51:50Z</time>
      </trkpt>
      <trkpt lat="45.48729" lon="4.59904">
        <ele>463</ele>
        <time>2014-11-29T09:51:53Z</time>
      </trkpt>
      <trkpt lat="45.48723" lon="4.59907">
        <ele>463</ele>
        <time>2014-11-29T09:51:56Z</time>
      </trkpt>
      <trkpt lat="45.48717" lon="4.59909">
        <ele>463</ele>
        <time>2014-11-29T09:51:59Z</time>
      </trkpt>
      <trkpt lat="45.48708" lon="4.59912">
        <ele>463</ele>
        <time>2014-11-29T09:52:03Z</time>
      </trkpt>
      <trkpt lat="45.48702" lon="4.59914">
        <ele>463</ele>
        <time>2014-11-29T09:52:06Z</time>
      </trkpt>
      <trkpt lat="45.48697" lon="4.59916">
        <ele>464</ele>
        <time>2014-11-29T09:52:09Z</time>
      </trkpt>
      <trkpt lat="45.48691" lon="4.59918">
        <ele>464</ele>
        <time>2014-11-29T09:52:12Z</time>
      </trkpt>
      <trkpt lat="45.48685" lon="4.59921">
        <ele>465</ele>
        <time>2014-11-29T09:52:15Z</time>
      </trkpt>
      <trkpt lat="45.48677" lon="4.59924">
        <ele>466</ele>
        <time>2014-11-29T09:52:19Z</time>
      </trkpt>
      <trkpt lat="45.48671" lon="4.59925">
        <ele>467</ele>
        <time>2014-11-29T09:52:22Z</time>
      </trkpt>
      <trkpt lat="45.48668" lon="4.59927">
        <ele>467</ele>
        <time>2014-11-29T09:52:25Z</time>
      </trkpt>
      <trkpt lat="45.48664" lon="4.59928">
        <ele>468</ele>
        <time>2014-11-29T09:52:28Z</time>
      </trkpt>
      <trkpt lat="45.4866" lon="4.5993">
        <ele>468</ele>
        <time>2014-11-29T09:52:32Z</time>
      </trkpt>
      <trkpt lat="45.48656" lon="4.59931">
        <ele>468</ele>
        <time>2014-11-29T09:52:36Z</time>
      </trkpt>
      <trkpt lat="45.48655" lon="4.59933">
        <ele>468</ele>
        <time>2014-11-29T09:52:39Z</time>
      </trkpt>
      <trkpt lat="45.48651" lon="4.59935">
        <ele>468</ele>
        <time>2014-11-29T09:52:43Z</time>
      </trkpt>
      <trkpt lat="45.48648" lon="4.59936">
        <ele>468</ele>
        <time>2014-11-29T09:52:46Z</time>
      </trkpt>
      <trkpt lat="45.48647" lon="4.59937">
        <ele>468</ele>
        <time>2014-11-29T09:52:55Z</time>
      </trkpt>
      <trkpt lat="45.48647" lon="4.59937">
        <ele>468</ele>
        <time>2014-11-29T09:53:14Z</time>
      </trkpt>
      <trkpt lat="45.48648" lon="4.59934">
        <ele>468</ele>
        <time>2014-11-29T09:53:36Z</time>
      </trkpt>
      <trkpt lat="45.4865" lon="4.59926">
        <ele>468</ele>
        <time>2014-11-29T09:53:43Z</time>
      </trkpt>
      <trkpt lat="45.48657" lon="4.59909">
        <ele>468</ele>
        <time>2014-11-29T09:53:50Z</time>
      </trkpt>
      <trkpt lat="45.48661" lon="4.59902">
        <ele>468</ele>
        <time>2014-11-29T09:53:55Z</time>
      </trkpt>
      <trkpt lat="45.48667" lon="4.59891">
        <ele>468</ele>
        <time>2014-11-29T09:54:00Z</time>
      </trkpt>
      <trkpt lat="45.48673" lon="4.59878">
        <ele>469</ele>
        <time>2014-11-29T09:54:04Z</time>
      </trkpt>
      <trkpt lat="45.4868" lon="4.59866">
        <ele>471</ele>
        <time>2014-11-29T09:54:10Z</time>
      </trkpt>
      <trkpt lat="45.48683" lon="4.59861">
        <ele>471</ele>
        <time>2014-11-29T09:54:15Z</time>
      </trkpt>
      <trkpt lat="45.48687" lon="4.59856">
        <ele>471</ele>
        <time>2014-11-29T09:54:21Z</time>
      </trkpt>
      <trkpt lat="45.4869" lon="4.59848">
        <ele>471</ele>
        <time>2014-11-29T09:54:24Z</time>
      </trkpt>
      <trkpt lat="45.48693" lon="4.59845">
        <ele>471</ele>
        <time>2014-11-29T09:54:29Z</time>
      </trkpt>
      <trkpt lat="45.48697" lon="4.59838">
        <ele>471</ele>
        <time>2014-11-29T09:54:34Z</time>
      </trkpt>
      <trkpt lat="45.48706" lon="4.59827">
        <ele>471</ele>
        <time>2014-11-29T09:54:39Z</time>
      </trkpt>
      <trkpt lat="45.48712" lon="4.59817">
        <ele>471</ele>
        <time>2014-11-29T09:54:43Z</time>
      </trkpt>
      <trkpt lat="45.4872" lon="4.59808">
        <ele>471</ele>
        <time>2014-11-29T09:54:49Z</time>
      </trkpt>
      <trkpt lat="45.48727" lon="4.598">
        <ele>471</ele>
        <time>2014-11-29T09:54:55Z</time>
      </trkpt>
      <trkpt lat="45.48734" lon="4.59791">
        <ele>473</ele>
        <time>2014-11-29T09:54:59Z</time>
      </trkpt>
      <trkpt lat="45.4874" lon="4.59784">
        <ele>474</ele>
        <time>2014-11-29T09:55:04Z</time>
      </trkpt>
      <trkpt lat="45.48747" lon="4.59776">
        <ele>475</ele>
        <time>2014-11-29T09:55:09Z</time>
      </trkpt>
      <trkpt lat="45.48752" lon="4.59769">
        <ele>475</ele>
        <time>2014-11-29T09:55:15Z</time>
      </trkpt>
      <trkpt lat="45.48759" lon="4.59761">
        <ele>476</ele>
        <time>2014-11-29T09:55:19Z</time>
      </trkpt>
      <trkpt lat="45.48767" lon="4.5975">
        <ele>477</ele>
        <time>2014-11-29T09:55:24Z</time>
      </trkpt>
      <trkpt lat="45.48774" lon="4.59741">
        <ele>477</ele>
        <time>2014-11-29T09:55:29Z</time>
      </trkpt>
      <trkpt lat="45.48779" lon="4.59735">
        <ele>477</ele>
        <time>2014-11-29T09:55:34Z</time>
      </trkpt>
      <trkpt lat="45.4878" lon="4.59733">
        <ele>478</ele>
        <time>2014-11-29T09:55:41Z</time>
      </trkpt>
      <trkpt lat="45.48785" lon="4.59729">
        <ele>478</ele>
        <time>2014-11-29T09:55:44Z</time>
      </trkpt>
      <trkpt lat="45.48788" lon="4.59725">
        <ele>478</ele>
        <time>2014-11-29T09:55:48Z</time>
      </trkpt>
      <trkpt lat="45.48794" lon="4.59715">
        <ele>478</ele>
        <time>2014-11-29T09:55:51Z</time>
      </trkpt>
      <trkpt lat="45.48797" lon="4.59712">
        <ele>478</ele>
        <time>2014-11-29T09:55:55Z</time>
      </trkpt>
      <trkpt lat="45.48802" lon="4.59707">
        <ele>478</ele>
        <time>2014-11-29T09:56:03Z</time>
      </trkpt>
      <trkpt lat="45.48805" lon="4.59704">
        <ele>478</ele>
        <time>2014-11-29T09:56:09Z</time>
      </trkpt>
      <trkpt lat="45.48809" lon="4.59698">
        <ele>478</ele>
        <time>2014-11-29T09:56:14Z</time>
      </trkpt>
      <trkpt lat="45.48817" lon="4.59686">
        <ele>478</ele>
        <time>2014-11-29T09:56:19Z</time>
      </trkpt>
      <trkpt lat="45.48822" lon="4.59669">
        <ele>479</ele>
        <time>2014-11-29T09:56:25Z</time>
      </trkpt>
      <trkpt lat="45.48828" lon="4.59659">
        <ele>479</ele>
        <time>2014-11-29T09:56:31Z</time>
      </trkpt>
      <trkpt lat="45.48834" lon="4.59659">
        <ele>480</ele>
        <time>2014-11-29T09:56:38Z</time>
      </trkpt>
      <trkpt lat="45.48844" lon="4.59659">
        <ele>480</ele>
        <time>2014-11-29T09:56:42Z</time>
      </trkpt>
      <trkpt lat="45.48854" lon="4.5966">
        <ele>480</ele>
        <time>2014-11-29T09:56:47Z</time>
      </trkpt>
      <trkpt lat="45.48866" lon="4.59662">
        <ele>480</ele>
        <time>2014-11-29T09:56:52Z</time>
      </trkpt>
      <trkpt lat="45.48878" lon="4.59664">
        <ele>479</ele>
        <time>2014-11-29T09:56:57Z</time>
      </trkpt>
      <trkpt lat="45.48891" lon="4.59663">
        <ele>476</ele>
        <time>2014-11-29T09:57:02Z</time>
      </trkpt>
      <trkpt lat="45.48904" lon="4.59663">
        <ele>474</ele>
        <time>2014-11-29T09:57:07Z</time>
      </trkpt>
      <trkpt lat="45.48916" lon="4.59662">
        <ele>472</ele>
        <time>2014-11-29T09:57:12Z</time>
      </trkpt>
      <trkpt lat="45.48928" lon="4.59657">
        <ele>471</ele>
        <time>2014-11-29T09:57:17Z</time>
      </trkpt>
      <trkpt lat="45.48941" lon="4.59654">
        <ele>470</ele>
        <time>2014-11-29T09:57:22Z</time>
      </trkpt>
      <trkpt lat="45.48951" lon="4.59657">
        <ele>468</ele>
        <time>2014-11-29T09:57:25Z</time>
      </trkpt>
      <trkpt lat="45.48956" lon="4.59661">
        <ele>468</ele>
        <time>2014-11-29T09:57:28Z</time>
      </trkpt>
      <trkpt lat="45.48967" lon="4.59671">
        <ele>465</ele>
        <time>2014-11-29T09:57:33Z</time>
      </trkpt>
      <trkpt lat="45.48976" lon="4.59671">
        <ele>462</ele>
        <time>2014-11-29T09:57:36Z</time>
      </trkpt>
      <trkpt lat="45.48984" lon="4.59669">
        <ele>461</ele>
        <time>2014-11-29T09:57:39Z</time>
      </trkpt>
      <trkpt lat="45.48996" lon="4.59669">
        <ele>460</ele>
        <time>2014-11-29T09:57:45Z</time>
      </trkpt>
      <trkpt lat="45.49006" lon="4.59675">
        <ele>459</ele>
        <time>2014-11-29T09:57:48Z</time>
      </trkpt>
      <trkpt lat="45.49011" lon="4.59678">
        <ele>459</ele>
        <time>2014-11-29T09:57:51Z</time>
      </trkpt>
      <trkpt lat="45.49022" lon="4.59683">
        <ele>458</ele>
        <time>2014-11-29T09:57:56Z</time>
      </trkpt>
      <trkpt lat="45.49034" lon="4.59685">
        <ele>458</ele>
        <time>2014-11-29T09:58:01Z</time>
      </trkpt>
      <trkpt lat="45.49042" lon="4.59686">
        <ele>458</ele>
        <time>2014-11-29T09:58:07Z</time>
      </trkpt>
      <trkpt lat="45.49053" lon="4.59687">
        <ele>458</ele>
        <time>2014-11-29T09:58:12Z</time>
      </trkpt>
      <trkpt lat="45.49066" lon="4.59689">
        <ele>457</ele>
        <time>2014-11-29T09:58:17Z</time>
      </trkpt>
      <trkpt lat="45.49079" lon="4.59692">
        <ele>457</ele>
        <time>2014-11-29T09:58:20Z</time>
      </trkpt>
      <trkpt lat="45.49087" lon="4.59694">
        <ele>456</ele>
        <time>2014-11-29T09:58:23Z</time>
      </trkpt>
      <trkpt lat="45.49095" lon="4.59696">
        <ele>456</ele>
        <time>2014-11-29T09:58:28Z</time>
      </trkpt>
      <trkpt lat="45.49108" lon="4.597">
        <ele>456</ele>
        <time>2014-11-29T09:58:33Z</time>
      </trkpt>
      <trkpt lat="45.49121" lon="4.59705">
        <ele>456</ele>
        <time>2014-11-29T09:58:38Z</time>
      </trkpt>
      <trkpt lat="45.49135" lon="4.59708">
        <ele>456</ele>
        <time>2014-11-29T09:58:43Z</time>
      </trkpt>
      <trkpt lat="45.49147" lon="4.59713">
        <ele>456</ele>
        <time>2014-11-29T09:58:48Z</time>
      </trkpt>
      <trkpt lat="45.49158" lon="4.5972">
        <ele>456</ele>
        <time>2014-11-29T09:58:53Z</time>
      </trkpt>
      <trkpt lat="45.49169" lon="4.59727">
        <ele>456</ele>
        <time>2014-11-29T09:58:58Z</time>
      </trkpt>
      <trkpt lat="45.49178" lon="4.59732">
        <ele>455</ele>
        <time>2014-11-29T09:59:03Z</time>
      </trkpt>
      <trkpt lat="45.49181" lon="4.59734">
        <ele>455</ele>
        <time>2014-11-29T09:59:10Z</time>
      </trkpt>
      <trkpt lat="45.49181" lon="4.59736">
        <ele>455</ele>
        <time>2014-11-29T09:59:19Z</time>
      </trkpt>
      <trkpt lat="45.49181" lon="4.59736">
        <ele>452</ele>
        <time>2014-11-29T09:59:25Z</time>
      </trkpt>
    </trkseg>
  </trk>
</gpx>